[[{"header":{"parameterUnit":"m.s-1","parameterCategory":1,"la1":31.0,"la2":29.5877,"lo1":-88.7671,"lo2":-86.6584,"dy":0.0162,"dx":0.0185,"nx":115,"ny":88,"refTime":"2025-12-10T00:00:00:Z","depth":0,"parameterNumber":2,"parameterNumberName":"U-component_of_WINDS"},"data":[0.0,0.0,0.0,0.0,0.0,0.0,0.0,0.0,0.0,0.0,0.0,0.0,0.0,0.0,0.0,0.0,0.0,0.0,0.0,0.0,0.0,0.0,0.0,0.0,0.0,0.0,0.0,0.0,0.0,0.0,0.0,0.0,0.0,0.0,0.0,0.0,0.0,0.0,0.0,0.0,0.0,0.0,0.0,0.0,0.0,0.0,0.0,0.0,0.0,0.0,0.0,0.0,0.0,0.0,0.0,0.0,0.0,0.0,0.0,0.0,0.0,0.0,0.0,0.0,0.0,0.0,0.0,0.0,0.0,0.0,0.0,0.0,0.0,0.0,0.0,0.0,0.0,0.0,0.0,0.0,0.0,0.0,0.0,0.0,0.0,0.0,0.0,0.0,0.0,0.0,0.0,0.0,0.0,0.0,0.0,0.0,0.0,0.0,0.0,0.0,0.0,0.0,0.0,0.0,0.0,0.0,0.0,0.0,0.0,0.0,0.0,0.0,0.0,0.0,0.0,0.0,0.0,0.0,0.0,0.0,0.0,0.0,0.0,0.0,0.0,0.0,0.0,0.0,0.0,0.0,0.0,0.0,0.0,0.0,0.0,0.0,0.0,0.0,0.0,0.0,0.0,0.0,0.0,0.0,0.0,0.0,0.0,0.0,0.0,0.0,0.0,0.0,0.0,0.0,0.0,0.0,0.0,0.0,0.0,0.0,0.0,0.0,0.0,0.0,0.0,0.0,0.0,0.0,0.0,0.0,0.0,0.0,0.0,0.0,0.0,0.0,0.0,0.0,0.0,0.0,0.0,0.0,0.0,0.0,0.0,0.0,0.0,0.0,0.0,0.0,0.0,0.0,0.0,0.0,0.0,0.0,0.0,0.0,0.0,0.0,0.0,0.0,0.0,0.0,0.0,0.0,0.0,0.0,0.0,0.0,0.0,0.0,0.0,0.0,0.0,0.0,0.0,0.0,0.0,0.0,0.0,0.0,0.0,0.0,0.0,0.0,0.0,0.0,0.0,0.0,0.0,0.0,0.0,0.0,0.0,0.0,0.0,0.0,0.0,0.0,0.0,0.0,0.0,0.0,0.0,0.0,0.0,0.0,0.0,0.0,0.0,0.0,0.0,0.0,0.0,0.0,0.0,0.0,0.0,0.0,0.0,0.0,0.0,0.0,0.0,0.0,0.0,0.0,0.0,0.0,0.0,0.0,0.0,0.0,0.0,0.0,0.0,0.0,0.0,0.0,0.0,0.0,0.0,0.0,0.0,0.0,0.0,0.0,0.0,0.0,0.0,0.0,0.0,0.0,0.0,0.0,0.0,0.0,0.0,0.0,0.0,0.0,0.0,0.0,0.0,0.0,0.0,0.0,0.0,0.0,0.0,0.0,0.0,0.0,0.0,0.0,0.0,0.0,0.0,0.0,0.0,0.0,0.0,0.0,0.0,0.0,0.0,0.0,0.0,0.0,0.0,0.0,0.0,0.0,0.0,0.0,0.0,0.0,0.0,0.0,0.0,0.0,0.0,0.0,0.0,0.0,0.0,0.0,0.0,0.0,0.0,0.0,0.0,0.0,0.0,0.0,0.0,0.0,0.0,0.0,0.0,0.0,0.0,0.0,0.0,0.0,0.0,0.0,0.0,0.0,0.0,0.0,0.0,0.0,0.0,0.0,0.0,0.0,0.0,0.0,0.0,0.0,0.0,0.0,0.0,0.0,0.0,0.0,0.0,0.0,0.0,0.0,0.0,0.0,0.0,0.0,0.0,0.0,0.0,0.0,0.0,0.0,0.0,0.0,0.0,0.0,0.0,0.0,0.0,0.0,0.0,0.0,0.0,0.0,0.0,0.0,0.0,0.0,0.0,0.0,0.0,0.0,0.0,0.0,0.0,0.0,0.0,0.0,0.0,0.0,0.0,0.0,0.0,0.0,0.0,0.0,0.0,0.0,0.0,0.0,0.0,0.0,0.0,0.0,0.0,0.0,0.0,0.0,0.0,0.0,0.0,0.0,0.0,0.0,0.0,0.0,0.0,0.0,0.0,0.0,0.0,0.0,0.0,0.0,0.0,0.0,0.0,0.0,0.0,0.0,0.0,0.0,0.0,0.0,0.0,0.0,0.0,0.0,0.0,0.0,0.0,0.0,0.0,0.0,0.0,0.0,0.0,0.0,0.0,0.0,0.0,0.0,0.0,0.0,0.0,0.0,0.0,0.0,0.0,0.0,0.0,0.0,0.0,0.0,0.0,0.0,0.0,0.0,0.0,0.0,0.0,0.0,0.0,0.0,0.0,0.0,0.0,0.0,0.0,0.0,0.0,0.0,0.0,0.0,0.0,0.0,0.0,0.0,0.0,0.0,0.0,0.0,0.0,0.0,0.0,0.0,0.0,0.0,0.0,0.0,0.0,0.0,0.0,0.0,0.0,0.0,0.0,0.0,0.0,0.0,0.0,0.0,0.0,0.0,0.0,0.0,0.0,0.0,0.0,0.0,0.0,0.0,0.0,0.0,0.0,0.0,0.0,0.0,0.0,0.0,0.0,0.0,0.0,0.0,0.0,0.0,0.0,0.0,0.0,0.0,0.0,0.0,0.0,0.0,0.0,0.0,0.0,0.0,0.0,0.0,0.0,0.0,0.0,0.0,0.0,0.0,0.0,0.0,0.0,0.0,0.0,0.0,0.0,0.0,0.0,0.0,0.0,0.0,0.0,0.0,0.0,0.0,0.0,0.0,0.0,0.0,0.0,0.0,0.0,0.0,0.0,0.0,0.0,0.0,0.0,0.0,0.0,0.0,0.0,0.0,0.0,0.0,0.0,0.0,0.0,0.0,0.0,0.0,0.0,0.0,0.0,0.0,0.0,0.0,0.0,0.0,0.0,0.0,0.0,0.0,0.0,0.0,0.0,0.0,0.0,0.0,0.0,0.0,0.0,0.0,0.0,0.0,0.0,0.0,0.0,0.0,0.0,0.0,0.0,0.0,0.0,0.0,0.0,0.0,0.0,0.0,0.0,0.0,0.0,0.0,0.0,0.0,0.0,0.0,0.0,0.0,0.0,0.0,0.0,0.0,0.0,0.0,0.0,0.0,0.0,0.0,0.0,0.0,0.0,0.0,0.0,0.0,0.0,0.0,0.0,0.0,0.0,0.0,0.0,0.0,0.0,0.0,0.0,0.0,0.0,0.0,0.0,0.0,0.0,0.0,0.0,0.0,0.0,0.0,0.0,0.0,0.0,0.0,0.0,0.0,0.0,0.0,0.0,0.0,0.0,0.0,0.0,0.0,0.0,0.0,0.0,0.0,0.0,0.0,0.0,0.0,0.0,0.0,0.0,0.0,0.0,0.0,0.0,0.0,0.0,0.0,0.0,0.0,0.0,0.0,0.0,0.0,0.0,0.0,0.0,0.0,0.0,0.0,0.0,0.0,0.0,0.0,0.0,0.0,0.0,0.0,0.0,0.0,0.0,0.0,0.0,0.0,0.0,0.0,0.0,0.0,0.0,0.0,0.0,0.0,0.0,0.0,0.0,0.0,0.0,0.0,0.0,0.0,0.0,0.0,0.0,0.0,0.0,0.0,0.0,0.0,0.0,0.0,0.0,0.0,0.0,0.0,0.0,0.0,0.0,0.0,0.0,0.0,0.0,0.0,0.0,0.0,0.0,0.0,0.0,0.0,0.0,0.0,0.0,0.0,0.0,0.0,0.0,0.0,0.0,0.0,0.0,0.0,0.0,0.0,0.0,0.0,0.0,0.0,0.0,0.0,0.0,0.0,0.0,0.0,0.0,0.0,0.0,0.0,0.0,0.0,0.0,0.0,0.0,0.0,0.0,0.0,0.0,0.0,0.0,0.0,0.0,0.0,0.0,0.0,0.0,0.0,0.0,0.0,0.0,0.0,0.0,0.0,0.0,0.0,0.0,0.0,0.0,0.0,0.0,0.0,0.0,0.0,0.0,0.0,0.0,0.0,0.0,0.0,0.0,0.0,0.0,0.0,0.0,0.0,0.0,0.0,0.0,0.0,0.0,0.0,0.0,0.0,0.0,0.0,0.0,0.0,0.0,0.0,0.0,0.0,0.0,0.0,0.0,0.0,0.0,0.0,0.0,0.0,0.0,0.0,0.0,0.0,0.0,0.0,0.0,0.0,0.0,0.0,0.0,0.0,0.0,0.0,0.0,0.0,0.0,0.0,0.0,0.0,0.0,0.0,0.0,0.0,0.0,0.0,0.0,0.0,0.0,0.0,0.0,0.0,0.0,0.0,0.0,0.0,0.0,0.0,0.0,0.0,0.0,0.0,-0.651,0.0,0.0,0.0,0.0,0.0,0.0,0.0,0.0,0.0,0.0,0.0,0.0,0.0,0.0,0.0,0.0,0.0,0.0,0.0,0.0,0.0,0.0,0.0,0.0,0.0,0.0,0.0,0.0,0.0,0.0,0.0,0.0,0.0,0.0,0.0,0.0,0.0,0.0,0.0,0.0,0.0,0.0,0.0,0.0,0.0,0.0,0.0,0.0,0.0,0.0,0.0,0.0,0.0,0.0,0.0,0.0,0.0,0.0,0.0,0.0,0.0,0.0,0.0,0.0,0.0,0.0,0.0,0.0,0.0,0.0,0.0,0.0,0.0,0.0,0.0,0.0,0.0,0.0,0.0,0.0,0.0,0.0,0.0,0.0,0.0,0.0,0.0,0.0,0.0,0.0,0.0,0.0,0.0,0.0,0.0,0.0,0.0,0.0,0.0,0.0,0.0,0.0,0.0,0.0,0.0,0.0,0.0,0.0,0.0,0.0,-0.7324,-0.7312,-0.6568,-0.5968,-0.5562,0.0,0.0,0.0,0.0,0.0,0.0,0.0,0.0,0.0,0.0,0.0,0.0,0.0,0.0,0.0,0.0,0.0,0.0,0.0,0.0,0.0,0.0,0.0,0.0,0.0,0.0,0.0,0.0,0.0,0.0,0.0,0.0,0.0,0.0,0.0,0.0,0.0,0.0,0.0,0.0,0.0,0.0,0.0,0.0,0.0,0.0,0.0,0.0,0.0,0.0,0.0,0.0,0.0,0.0,0.0,0.0,0.0,0.0,0.0,0.0,0.0,0.0,0.0,0.0,0.0,0.0,0.0,0.0,0.0,0.0,0.0,0.0,0.0,0.0,0.0,0.0,0.0,0.0,0.0,0.0,0.0,0.0,0.0,0.0,0.0,0.0,0.0,0.0,0.0,0.0,0.0,0.0,0.0,0.0,0.0,0.0,0.0,0.0,0.0,0.0,0.0,0.0,0.0,0.0,0.0,0.0,0.0,0.0,0.0,0.0,0.0,0.0,-0.5797,-0.5246,-0.4919,0.0,0.0,0.0,0.0,0.0,0.0,0.0,0.0,0.0,0.0,0.0,0.0,0.0,0.0,0.0,0.0,0.0,0.0,0.0,0.0,0.0,0.0,0.0,0.0,0.0,0.0,0.0,0.0,0.0,0.0,0.0,0.0,0.0,0.0,0.0,0.0,0.0,0.0,0.0,0.0,0.0,0.0,0.0,0.0,0.0,0.0,0.0,0.0,0.0,0.0,0.0,0.0,0.0,0.0,0.0,0.0,0.0,0.0,0.0,0.0,0.0,0.0,0.0,0.0,0.0,0.0,0.0,0.0,0.0,0.0,0.0,0.0,0.0,0.0,0.0,0.0,0.0,0.0,0.0,0.0,0.0,0.0,0.0,0.0,0.0,0.0,0.0,0.0,0.0,0.0,0.0,0.0,0.0,0.0,0.0,0.0,0.0,0.0,0.0,0.0,0.0,0.0,0.0,0.0,0.0,0.0,0.0,0.0,0.0,0.0,-0.5051,-0.6528,-0.5623,0.0,-0.5142,0.0,0.0,0.0,0.0,0.0,0.0,0.0,0.0,0.0,0.0,0.0,0.0,0.0,0.0,0.0,0.0,0.0,0.0,0.0,0.0,0.0,0.0,0.0,0.0,0.0,0.0,0.0,0.0,0.0,0.0,0.0,0.0,0.0,0.0,0.0,0.0,0.0,0.0,0.0,0.0,0.0,0.0,0.0,0.0,0.0,0.0,0.0,0.0,0.0,0.0,0.0,0.0,0.0,0.0,0.0,0.0,0.0,0.0,0.0,0.0,0.0,0.0,0.0,0.0,0.0,0.0,0.0,0.0,0.0,0.0,0.0,0.0,0.0,0.0,0.0,0.0,0.0,0.0,0.0,0.0,0.0,0.0,0.0,0.0,0.0,0.0,0.0,0.0,0.0,0.0,0.0,0.0,0.0,0.0,0.0,0.0,0.0,0.0,0.0,0.0,0.0,0.0,0.0,0.0,0.0,0.0,0.0,0.0,0.0,0.0,-0.415,-0.3769,-0.3397,-0.3539,0.0,0.0,0.0,0.0,0.0,0.0,0.0,0.0,0.0,0.0,0.0,0.0,0.0,0.0,0.0,0.0,0.0,0.0,0.0,0.0,0.0,0.0,0.0,0.0,0.0,0.0,0.0,0.0,0.0,0.0,0.0,0.0,0.0,0.0,0.0,0.0,0.0,0.0,0.0,0.0,0.0,0.0,0.0,0.0,0.0,0.0,0.0,0.0,0.0,0.0,0.0,0.0,0.0,0.0,0.0,0.0,0.0,0.0,0.0,0.0,0.0,0.0,0.0,0.0,0.0,0.0,0.0,0.0,0.0,0.0,0.0,0.0,0.0,0.0,0.0,0.0,0.0,0.0,0.0,0.0,0.0,0.0,0.0,0.0,0.0,0.0,0.0,0.0,0.0,0.0,0.0,0.0,0.0,0.0,0.0,0.0,0.0,0.0,0.0,0.0,0.0,0.0,0.0,0.0,0.0,0.0,0.0,0.0,0.0,0.0,-0.2579,-0.2717,-0.1958,-0.2002,-0.2464,-0.3369,0.0,0.0,0.0,0.0,0.0,0.0,0.0,0.0,0.0,0.0,0.0,0.0,0.0,0.0,0.0,0.0,0.0,0.0,0.0,0.0,0.0,0.0,0.0,0.0,0.0,0.0,0.0,0.0,0.0,0.0,0.0,0.0,0.0,0.0,0.0,0.0,0.0,0.0,0.0,0.0,0.0,0.0,0.0,0.0,0.0,0.0,0.0,0.0,0.0,0.0,0.0,0.0,0.0,0.0,0.0,0.0,0.0,0.0,0.0,0.0,0.0,0.0,0.0,0.0,0.0,0.0,0.0,0.0,0.0,0.0,0.0,0.0,0.0,0.0,0.0,0.0,0.0,0.0,0.0,0.0,0.0,0.0,0.0,0.0,0.0,0.0,0.0,0.0,0.0,0.0,0.0,0.0,0.0,0.0,0.0,0.0,0.0,0.0,0.0,0.0,0.0,0.0,0.0,0.0,0.0,0.0,0.0,0.0,-0.1813,-0.0535,-0.0508,-0.2066,-0.2312,-0.2457,0.0,0.0,0.0,0.0,0.0,0.0,0.0,0.0,0.0,0.0,0.0,0.0,0.0,0.0,0.0,0.0,0.0,0.0,0.0,0.0,0.0,0.0,0.0,0.0,0.0,0.0,0.0,0.0,0.0,0.0,0.0,0.0,0.0,0.0,0.0,0.0,0.0,0.0,0.0,0.0,0.0,0.0,0.0,0.0,0.0,0.0,0.0,0.0,0.0,0.0,0.0,0.0,0.0,0.0,0.0,0.0,0.0,0.0,0.0,0.0,0.0,0.0,0.0,0.0,0.0,0.0,0.0,0.0,0.0,0.0,0.0,0.0,0.0,0.0,0.0,0.0,0.0,0.0,0.0,0.0,0.0,0.0,0.0,0.0,0.0,0.0,0.0,0.0,0.0,0.0,0.0,0.0,0.0,0.0,0.0,0.0,0.0,0.0,0.0,0.0,0.0,0.0,0.0,0.0,0.0,0.0,0.0,0.0,0.0,0.094,0.1038,0.0523,-0.0728,-0.0994,-0.1357,0.0,0.0,0.0,0.0,0.0,0.0,0.0,0.0,0.0,0.0,0.0,0.0,0.0,0.0,0.0,0.0,0.0,0.0,0.0,0.0,0.0,0.0,0.0,0.0,0.0,0.0,0.0,0.0,0.0,0.0,0.0,0.0,0.0,0.0,0.0,0.0,0.0,0.0,0.0,0.0,0.0,0.0,0.0,0.0,0.0,0.0,0.0,0.0,0.0,0.0,0.0,0.0,0.0,0.0,0.0,0.0,0.0,0.0,0.0,0.0,0.0,0.0,0.0,0.0,0.0,0.0,0.0,0.0,0.0,0.0,0.0,0.0,0.0,0.0,0.0,0.0,0.0,0.0,0.0,0.0,0.0,0.0,0.0,0.0,0.0,0.0,0.0,0.0,0.0,0.0,0.0,0.0,0.0,0.0,0.0,0.0,0.0,0.0,0.0,0.0,0.0,0.0,0.0,0.0,0.0,0.0,0.0,0.0,0.0,0.29,0.0,0.1482,0.0482,-0.0158,-0.0757,0.0,0.0,0.0,0.0,0.0,0.0,0.0,0.0,0.0,0.0,0.0,0.0,0.0,0.0,0.0,0.0,0.0,0.0,0.0,0.0,0.0,0.0,0.0,0.0,0.0,0.0,0.0,0.0,0.0,0.0,0.0,0.0,0.0,0.0,0.0,0.0,0.0,0.0,0.0,0.0,0.0,0.0,0.0,0.0,0.0,0.0,0.0,0.0,0.0,0.0,0.0,0.0,0.0,0.0,0.0,0.0,0.0,0.0,0.0,0.0,0.0,0.0,0.0,0.0,0.0,0.0,0.0,0.0,0.0,0.0,0.0,0.0,0.0,0.0,0.0,0.0,0.0,0.0,0.0,0.0,0.0,0.0,0.0,0.0,0.0,0.0,0.0,0.0,0.0,0.0,0.0,0.0,0.0,0.0,0.0,0.0,0.0,0.0,0.0,0.0,0.0,0.0,0.0,0.0,0.0,0.0,0.0,0.0,0.3288,0.3731,0.3172,0.2322,0.1389,0.0079,-0.0812,0.0,0.0,0.0,0.0,0.0,0.0,0.0,0.0,0.0,0.0,0.0,0.0,0.0,0.0,0.0,0.0,0.0,0.0,0.0,0.0,0.0,0.0,0.0,0.0,0.0,0.0,0.0,0.0,0.0,0.0,0.0,0.0,0.0,0.0,0.0,0.0,0.0,0.0,0.0,0.0,0.0,0.0,0.0,0.0,0.0,0.0,0.0,0.0,0.0,0.0,0.0,0.0,0.0,0.0,0.0,0.0,0.0,0.0,0.0,0.0,0.0,0.0,0.0,0.0,0.0,0.0,0.0,0.0,0.0,0.0,0.0,0.0,0.0,0.0,0.0,0.0,0.0,0.0,0.0,0.0,0.0,0.0,0.0,0.0,0.0,0.0,0.0,0.0,0.0,0.0,0.0,0.0,0.0,0.0,0.0,0.0,0.0,0.0,0.0,0.0,0.0,0.0,0.0,0.0,0.0,0.0,0.0,0.0,0.0,0.3738,0.2913,0.1931,0.0726,-0.0268,-0.0961,0.0,0.0,0.0,0.0,0.0,0.0,0.0,0.0,0.0,0.0,0.0,0.0,0.0,0.0,0.0,0.0,0.0,0.0,0.0,0.0,0.0,0.0,0.0,0.0,0.0,0.0,0.0,0.0,0.0,0.0,0.0,0.0,0.0,0.0,0.0,0.0,0.0,0.0,0.0,0.0,0.0,0.0,0.0,0.0,0.0,0.0,0.0,0.0,0.0,0.0,0.0,0.0,0.0,0.0,0.0,0.0,0.0,0.0,0.0,0.0,0.0,0.0,0.0,0.0,0.0,0.0,0.0,0.0,0.0,0.0,0.0,0.0,0.0,0.0,0.0,0.0,0.0,0.0,0.0,0.0,0.0,0.0,0.0,0.0,0.0,0.0,0.0,0.0,0.0,0.0,0.0,0.0,0.0,0.0,0.0,0.0,0.0,0.0,0.0,0.0,0.0,0.0,0.0,0.0,0.0,0.0,0.0,0.0,0.0,0.3199,0.268,0.1533,-0.0383,-0.1147,-0.159,-0.1717,0.0,0.0,0.0,0.0,0.0,0.0,0.0,0.0,0.0,0.0,0.0,0.0,0.0,0.0,0.0,0.0,0.0,0.0,0.0,0.0,0.0,0.0,0.0,0.0,0.0,0.0,0.0,0.0,0.0,0.0,0.0,0.0,0.0,0.0,0.0,0.0,0.0,0.0,0.0,0.0,0.0,0.0,0.0,0.0,0.0,0.0,0.0,0.0,0.0,0.0,0.0,0.0,0.0,0.0,0.0,0.0,0.0,0.0,0.0,0.0,0.0,0.0,0.0,0.0,0.0,0.0,0.0,0.0,0.0,0.0,0.0,0.0,0.0,0.0,0.0,0.0,0.0,0.0,0.0,0.0,0.0,0.0,0.0,0.0,0.0,0.0,0.0,0.0,0.0,0.0,0.0,0.0,0.0,0.0,0.0,0.0,0.0,0.0,0.0,0.0,0.0,0.0,0.0,0.0,0.0,0.0,0.0,0.0,0.2002,0.2221,0.0981,-0.1749,-0.2372,-0.2579,0.0,0.0,0.0,0.0,0.0,0.0,0.0,0.0,0.0,0.0,0.0,0.0,0.0,0.0,0.0,0.0,0.0,0.0,0.0,0.0,0.0,0.0,0.0,0.0,0.0,0.0,0.0,0.0,0.0,0.0,0.0,0.0,0.0,0.0,0.0,0.0,0.0,0.0,0.0,0.0,0.0,0.0,0.0,0.0,0.0,0.0,0.0,0.0,0.0,0.0,0.0,0.0,0.0,0.0,0.0,0.0,0.0,0.0,0.0,0.0,0.0,0.0,0.0,0.0,0.0,0.0,0.0,0.0,0.0,0.0,0.0,0.0,0.0,0.0,0.0,0.0,0.0,0.0,0.0,0.0,0.0,0.0,0.0,0.0,0.0,0.0,0.0,0.0,0.0,0.0,0.0,0.0,0.0,0.0,0.0,0.0,0.0,0.0,0.0,0.0,0.0,0.0,0.0,0.0,0.0,0.0,0.0,0.0,0.0,-0.0712,-0.1517,-0.2121,-0.2613,-0.3126,-0.3097,0.0,0.0,0.0,0.0,0.0,0.0,0.0,0.0,0.0,0.0,0.0,0.0,0.0,0.0,0.0,0.0,0.0,0.0,0.0,0.0,0.0,0.0,0.0,0.0,0.0,0.0,0.0,0.0,0.0,0.0,0.0,0.0,0.0,0.0,0.0,0.0,0.0,0.0,0.0,0.0,0.0,0.0,0.0,0.0,0.0,0.0,0.0,0.0,0.0,0.0,0.0,0.0,0.0,0.0,0.0,0.0,0.0,0.0,0.0,0.0,0.0,0.0,0.0,0.0,0.0,0.0,0.0,0.0,0.0,0.0,0.0,0.0,0.0,0.0,0.0,0.0,0.0,0.0,0.0,0.0,0.0,0.0,0.0,0.0,0.0,0.0,0.0,0.0,0.0,0.0,0.0,0.0,0.0,0.0,0.0,0.0,0.0,0.0,0.0,0.0,0.0,0.0,0.0,0.0,0.0,0.0,0.0,0.0,0.0748,-0.2259,-0.4253,-0.5108,-0.4792,-0.4821,-0.4146,0.0,0.0,0.0,0.0,0.0,0.0,0.0,0.0,0.0,0.0,0.0,0.0,0.0,0.0,0.0,0.0,0.0,0.0,0.0,0.0,0.0,0.0,0.0,0.0,0.0,0.0,0.0,0.0,0.0,0.0,0.0,0.0,0.0,0.0,0.0,0.0,0.0,0.0,0.0,0.0,0.0,0.0,0.0,0.0,0.0,0.0,0.0,0.0,0.0,0.0,0.0,0.0,0.0,0.0,0.0,0.0,0.0,0.0,0.0,0.0,0.0,0.0,0.0,0.0,0.0,0.0,0.0,0.0,0.0,0.0,0.0,0.0,0.0,0.0,0.0,0.0,0.0,0.0,0.0,0.0,0.0,0.0,0.0,0.0,0.0,0.0,0.0,0.0,0.0,0.0,0.0,0.0,0.0,0.0,0.0,0.0,0.0,0.0,0.0,0.0,0.0,0.0,0.0,0.0,0.0,0.0,0.0,0.0,-0.0351,-0.3188,-0.6232,-0.7763,-0.7593,-0.6893,-0.5441,0.0,0.0,0.0,0.0,0.0,0.0,0.0,0.0,0.0,0.0,0.0,0.0,0.0,0.0,0.0,0.0,0.0,0.0,0.0,0.0,0.0,0.0,0.0,0.0,0.0,0.0,0.0,0.0,0.0,0.0,0.0,0.0,0.0,0.0,0.0,0.0,0.0,0.0,0.0,0.0,0.0,0.0,0.0,0.0,0.0,0.0,0.0,0.0,0.0,0.0,0.0,0.0,0.0,0.0,0.0,0.0,0.0,0.0,0.0,0.0,0.0,0.0,0.0,0.0,0.0,0.0,0.0,0.0,0.0,0.0,0.0,0.0,0.0,0.0,0.0,0.0,0.0,0.0,0.0,0.0,0.0,0.0,0.0,0.0,0.0,0.0,0.0,0.0,0.0,0.0,0.0,0.0,0.0,0.0,0.0,0.0,0.0,0.0,0.0,0.0,0.0,0.0,0.0,0.0,0.0,0.0,0.0,0.0,-0.177,-0.5267,-0.7503,-0.8757,-0.8961,-0.7812,-0.6194,0.0,0.0,0.0,0.0,0.0,0.0,0.0,0.0,0.0,0.0,0.0,0.0,0.0,0.0,0.0,0.0,0.0,0.0,0.0,0.0,0.0,0.0,0.0,0.0,0.0,0.0,0.0,0.0,0.0,0.0,0.0,0.0,0.0,0.0,0.0,0.0,0.0,0.0,0.0,0.0,0.0,0.0,0.0,0.0,0.0,0.0,0.0,0.0,0.3594,0.0,0.0,0.0,0.0,0.0,0.0,0.0,0.0,0.0,0.0,0.0,0.0,0.0,0.0,0.0,0.0,0.0,0.0,0.0,0.0,0.0,0.0,0.0,0.0,0.0,0.0,0.0,0.0,0.0,0.0,0.0,0.0,0.0,0.0,0.0,0.0,0.0,0.0,0.0,0.0,0.0,0.0,0.0,0.0,0.0,0.0,0.0,0.0,0.0,0.0,0.0,0.0,0.0,0.0,0.0,0.0,0.0,0.0,0.0,-0.3012,-0.6427,-0.8449,-0.95,-0.951,-0.9038,-0.7415,0.0,0.0,0.0,0.0,0.0,0.0,0.0,0.0,0.0,0.0,0.0,0.0,0.0,0.0,0.0,0.0,0.0,0.0,0.0,0.0,0.0,0.0,0.0,0.0,0.0,0.0,0.0,0.0,0.0,0.0,0.0,0.0,0.0,0.0,0.0,0.0,0.0,0.0,0.0,0.0,0.0,0.0,0.0,0.0,0.0,0.0,0.0,0.0,0.0,0.0,0.0,0.0,0.0,0.0,0.0,0.0,0.0,0.0,0.0,0.0,0.0,0.0,0.0,0.0,0.0,0.0,0.0,0.0,0.0,0.0,0.0,0.0,0.0,0.0,0.0,0.0,0.0,0.0,0.0,0.0,0.0,0.0,0.0,0.0,0.0,0.0,0.0,0.0,0.0,0.0,0.0,0.0,0.0,0.0,0.0,0.0,0.0,0.0,0.0,0.0,0.0,0.0,0.0,0.0,0.0,0.0,0.0,-0.1794,-0.4194,-0.7281,-0.9328,-1.0214,-0.9978,-1.0269,-0.8663,-0.4962,0.0,0.0,0.0,0.0,0.0,0.0,0.0,0.0,0.0,0.0,0.0,0.0,0.0,0.0,0.0,0.0,0.0,0.0,0.0,0.0,0.0,0.0,0.0,0.0,0.0,0.0,0.0,0.0,0.0,0.0,0.0,0.0,0.0,0.0,0.0,0.0,0.0,0.0,0.4528,0.4918,0.0,0.0,0.0,0.0,0.0,0.0,0.0,0.0,0.4159,0.0,0.0,0.0,0.0,0.0,0.0,0.0,0.0,0.0,0.0,0.0,0.0,0.0,0.0,0.0,0.0,0.0,0.0,0.0,0.0,0.0,0.0,0.0,0.0,0.0,0.0,0.0,0.0,0.0,0.0,0.0,0.0,0.0,0.0,0.0,0.0,0.0,0.0,0.0,0.0,0.0,0.0,0.0,0.0,0.0,0.0,0.0,0.0,0.0,0.0,0.0,0.0,0.0,0.0,0.0,0.0,-0.0671,-0.2749,-0.537,-0.8535,-1.0463,-1.1332,-1.1143,-1.107,-0.9259,-0.5548,0.0,0.0,0.0,0.0,0.0,0.0,0.0,0.0,0.0,0.0,0.0,0.0,0.0,0.0,0.0,0.0,0.0,0.0,0.0,0.0,0.0,0.0,0.0,0.0,0.0,0.0,0.0,0.0,0.0,0.0,0.0,0.0,0.0,0.0,0.0,0.0,0.0,0.0,0.0,0.6118,0.6489,0.0,0.0,0.0,0.0,0.0,0.0,0.0,0.0,0.3448,0.0,0.0,0.0,0.0,0.0,0.0,0.0,0.0,0.0,0.0,0.0,0.0,0.0,0.0,0.0,0.0,0.0,0.0,0.0,0.0,0.0,0.0,0.0,0.0,0.0,0.0,0.0,0.0,0.0,0.0,0.0,0.0,0.0,0.0,0.0,0.0,0.0,0.0,0.0,0.0,0.0,0.0,0.0,0.0,0.0,0.0,0.0,0.0,0.0,0.0,0.0,0.0,0.0,0.0,0.0,-0.1388,-0.3748,-0.6286,-0.8949,-1.1077,-1.1813,-1.1074,-1.0741,-0.8712,0.0,0.0,0.0,0.0,0.0,0.0,0.0,0.0,0.0,0.0,0.0,0.0,0.0,0.0,0.0,0.0,0.0,0.0,0.0,0.0,0.0,0.0,0.0,0.0,0.0,0.0,0.0,0.0,0.0,0.0,0.0,0.0,0.0,0.0,0.0,0.0,0.0,0.0,0.0,0.0,0.5939,0.611,0.5849,0.0,0.0,0.0,0.0,0.0,0.0,0.4646,0.4124,0.0,0.0,0.0,0.0,0.0,0.0,0.0,0.0,0.0,0.0,0.0,0.0,0.0,0.0,0.0,0.0,0.0,0.0,0.0,0.0,0.0,0.0,0.0,0.0,0.0,0.0,0.0,0.0,0.0,0.0,0.0,0.0,0.0,0.0,0.0,0.0,0.0,0.0,0.0,0.0,0.0,0.0,0.0,0.0,0.0,0.0,0.0,0.0,0.0,0.0,0.0,0.0,0.0,0.0,0.0,-0.2016,-0.4692,-0.7109,-0.9198,-1.1427,-1.2004,-1.0779,-1.0329,-0.8102,0.0,0.0,0.0,0.0,0.0,0.0,0.0,0.0,0.0,0.0,0.0,0.0,0.0,0.0,0.0,0.0,0.0,0.0,0.0,0.0,0.0,0.0,0.0,0.0,0.0,0.0,0.0,0.0,0.0,0.0,0.0,0.0,0.0,0.0,0.0,0.0,0.0,0.0,0.0,0.0,0.0,0.6062,0.6348,0.5967,0.0,0.0,0.0,0.0,0.5476,0.5236,0.0,0.0,0.0,0.0,0.0,0.0,0.0,0.0,0.0,0.0,0.0,0.0,0.0,0.0,0.0,0.0,0.0,0.0,0.0,0.0,0.0,0.0,0.0,0.0,0.0,0.0,0.0,0.0,0.0,0.0,0.0,0.0,0.0,0.0,0.0,0.0,0.0,0.0,0.0,0.0,0.0,0.0,0.0,0.0,0.0,0.0,0.0,0.0,0.0,0.0,0.0,0.0,0.0,0.0,0.0,0.0,-0.2386,-0.5388,-0.7818,-0.9608,-1.1574,-1.2038,-1.0914,-1.0586,-0.818,0.0,0.0,0.0,0.0,0.0,0.0,0.0,0.0,0.0,0.0,0.0,0.0,0.0,0.0,0.0,0.0,0.0,0.0,0.0,0.0,0.0,0.0,0.0,0.0,0.0,0.0,0.0,0.0,0.0,0.0,0.0,0.0,0.0,0.0,0.0,0.0,0.0,0.0,0.0,0.0,0.0,0.8192,0.7225,0.672,0.669,0.0,0.0,0.5411,0.6516,0.5465,0.0,0.0,0.0,0.0,0.0,0.0,0.0,0.0,0.0,0.0,0.0,0.0,0.0,0.0,0.0,0.0,0.0,0.0,0.0,0.0,0.0,0.0,0.0,0.0,0.0,0.0,0.0,0.0,0.0,0.0,0.0,0.0,0.0,0.0,0.0,0.0,0.0,0.0,0.0,0.0,0.0,0.0,0.0,0.0,0.0,0.0,0.0,0.0,0.0,0.0,0.0,0.0,0.0,0.0,0.0,-0.1164,-0.3504,-0.6034,-0.8203,-1.0014,-1.1709,-1.2008,-1.0806,-1.0003,-0.7463,0.0,0.0,0.0,0.0,0.0,0.0,0.0,0.0,0.0,0.0,0.0,0.0,0.0,0.0,0.0,0.0,0.0,0.0,0.0,0.0,0.0,0.0,0.0,0.0,0.0,0.0,0.0,0.0,0.0,0.0,0.0,0.0,0.0,0.0,0.0,0.0,0.0,0.0,0.0,0.0,0.0,0.0,0.7419,0.7064,0.0,0.0,0.0,0.6587,0.6667,0.0,0.0,0.0,0.0,0.0,0.0,0.0,0.0,0.0,0.0,0.0,0.0,0.0,0.0,0.0,0.0,0.0,0.0,0.0,0.0,0.0,0.0,0.0,0.0,0.0,0.0,0.0,0.0,0.0,0.0,0.0,0.0,0.0,0.0,0.0,0.0,0.0,0.0,0.0,0.0,0.0,0.0,0.0,0.0,0.0,0.0,0.0,0.0,0.0,0.0,0.0,0.0,0.0,0.0,0.0,0.0,0.0,-0.4287,-0.652,-0.8585,-1.0407,-1.1822,-1.1951,-1.07,-0.9705,0.0,0.0,0.0,0.0,0.0,0.0,0.0,0.0,0.0,0.0,0.0,0.0,0.0,0.0,0.0,0.0,0.0,0.0,0.0,0.0,0.0,0.0,0.0,0.0,0.0,0.0,0.0,0.0809,0.0,0.0,0.0,0.0,0.0,0.0,0.0,0.0,0.0,0.0,0.0,0.0,0.0,0.0,0.7762,0.7912,0.7742,0.7416,0.0,0.0,0.7814,0.6991,0.6706,0.6173,0.0,0.0,0.0,0.0,0.0,0.0,0.0,0.0,0.0,0.0,0.0,0.0,0.0,0.0,0.0,0.0,0.0,0.0,0.0,0.0,0.0,0.0,0.0,0.0,0.0,0.0,0.0,0.0,0.0,0.0,0.0,0.0,0.0,0.0,0.0,0.0,0.0,0.0,0.0,0.0,0.0,0.0,0.0,0.0,0.0,0.0,0.0,0.0,0.0,0.0,0.0,0.0,0.0,0.0,0.0,-0.4114,-0.6785,-0.9028,-1.0808,-1.1882,-1.184,-1.0656,-1.0173,-0.7848,0.0,0.0,0.0,0.0,0.0,0.0,0.0,0.0,0.0,0.0,0.0,0.0,0.0,0.0,0.0,0.0,0.0,0.0,0.0,0.0,0.0,0.0,0.0,0.0,0.0,0.0,0.0,0.0,0.0,0.0,0.0,0.0,0.0,0.0,0.0,0.0,0.0,0.0,0.0,0.0,0.0,0.9266,0.9098,0.9173,0.9286,0.0,0.0,0.8723,0.7926,0.6976,0.5956,0.4874,0.0,0.0,0.0,0.0,0.0,0.0,0.0,0.0,0.0,0.0,0.0,0.0,0.0,0.0,0.0,0.0,0.0,0.0,0.0,0.0,0.0,0.0,0.0,0.0,0.0,0.0,0.0,0.0,0.0,0.0,0.0,0.0,0.0,0.0,0.0,0.0,0.0,0.0,0.0,0.0,0.0,0.0,0.0,0.0,0.0,0.0,0.0,0.0,0.0,0.0,0.0,0.0,0.0,-0.2127,-0.5243,-0.719,-0.9077,-1.0855,-1.1878,-1.2097,-1.1482,-1.0631,-0.8395,0.0,0.0,0.0,0.0,0.0,0.0,0.0,0.0,0.0,0.0,0.0,0.0,0.0,0.0,0.0,0.0,0.0,0.0,0.0,0.0,0.0,0.0,0.0,0.0,0.0,0.0,0.0,0.0,0.503,0.4977,0.4935,0.0,0.0,0.0,0.0,0.0,0.0,0.0,0.0,0.0,0.0,1.0354,1.048,1.0674,0.0,0.0,1.0609,0.9906,0.8795,0.779,0.6592,0.5176,0.4179,0.0,0.0,0.0,0.0,0.0,0.0,0.0,0.0,0.0,0.0,0.0,0.0,0.0,0.0,0.0,0.0,0.0,0.0,0.0,0.0,0.0,0.0,0.0,0.0,0.0,0.0,0.0,0.0,0.0,0.0,0.0,0.0,0.0,0.0,0.0,0.0,0.0,0.0,0.0,0.0,0.0,0.0,0.0,0.0,0.0,0.0,0.0,0.0,0.0,0.0,0.0,0.0,-0.2461,-0.5755,-0.7494,-0.9205,-1.0866,-1.1794,-1.2141,-1.1939,-1.097,-0.898,0.0,0.0,0.0,0.0,0.0,0.0,0.0,0.0,0.0,0.0,0.0,0.0,0.0,0.0,0.0,0.0,0.0,0.0,0.0,0.0,0.0,0.0,0.0,0.0,0.0,0.0,0.0,0.0,0.5035,0.5004,0.5031,0.0,0.0,0.0,0.0,0.0,0.0,0.0,0.0,0.0,0.0,1.082,1.1866,1.1915,1.1906,1.2161,1.12,0.9871,0.8131,0.6866,0.5556,0.3829,0.0,0.0,0.0,0.0,0.0,0.0,0.0,0.0,0.0,0.0,0.0,0.0,0.0,0.0,0.0,0.0,0.0,0.0,0.0,0.0,0.0,0.0,0.0,0.0,0.0,0.0,0.0,0.0016,0.0,0.0,0.0824,0.0,0.0,0.0,0.0,0.0,0.0,0.0,0.0,0.0,0.0,0.0,0.0,0.0,0.0,0.0,0.0,0.0,0.0,0.0,0.0,0.0,0.0,-0.2603,-0.5283,-0.7582,-0.948,-1.0866,-1.156,-1.1882,-1.1819,-1.1153,-0.963,-0.7089,0.0,0.0,0.0,0.0,0.0,0.0,0.0,0.0,0.0,0.0,0.0,0.0,0.0,0.0,0.0,0.0,0.0,0.0,0.0,0.0,0.0,0.0,0.0,0.0,0.0,0.0,0.5097,0.5038,0.5028,0.0,0.0,0.0,0.0,0.0,0.0,0.0,0.0,0.0,0.0,0.8821,1.058,1.312,1.267,1.1987,1.254,1.0632,0.8175,0.5352,0.3728,0.2146,0.0,0.0,0.0,0.0,0.0,0.0,0.0,0.0,0.0,0.0,0.0,0.0,0.0,0.0,0.0,0.0,0.0,0.0,0.0,0.0,0.0,0.0,0.0,0.0,0.0,0.0,0.0,-0.2953,-0.2335,0.0,0.0,0.0,0.0,0.0,0.0,0.0,0.0,0.0,0.0,0.0,-0.5893,-0.7301,0.0,0.0,0.0,0.0,0.0,0.0,0.0,0.0,0.0,0.0,0.0,0.0,-0.2365,-0.5066,-0.753,-0.948,-1.0866,-1.1373,-1.196,-1.2629,-1.2062,-1.0146,-0.6792,0.0,0.0,0.0,0.0,0.0,0.0,0.0,0.0,0.0,0.0,0.0,0.0,0.0,0.0,0.0,0.0,0.0,0.0,0.0,0.0,0.0,0.0,0.0,0.0,0.0,0.5095,0.0,0.0,0.0,0.0,0.0,0.0,0.0,0.0,0.0,0.0,0.0,0.8153,0.8751,0.8399,0.834,0.9082,0.7882,0.6505,0.0,0.0,0.0,0.0,0.0,0.0,0.0,0.0,0.0,0.0,0.0,0.0,0.0,0.0,-0.2089,-0.0749,-0.0634,-0.0831,-0.105,0.0,0.0,0.0,0.0,0.0,0.0,0.0,0.0,0.0,0.0,0.0,0.0,0.0,0.0,-0.4768,0.0,-0.4033,0.0,0.0,0.0,0.0,0.0,0.0,0.0,0.0,-0.5432,-0.6636,-0.8347,-0.9275,-0.9787,0.0,-1.016,-0.8415,0.0,0.0,0.0,0.0,0.0,0.0,0.0,0.0,-0.355,-0.6401,-0.8137,-0.9623,-1.0835,-1.124,-1.1948,-1.2971,-1.2455,-1.0643,-0.7389,-0.4496,-0.2383,0.0,0.0,0.0,0.0,0.0,0.0,0.0,0.0,0.0,0.0,0.0,0.0,0.0,0.0,0.0,0.0,0.0,0.0,0.0,0.0,0.0,0.0,0.0,0.5428,0.0,0.0,0.0,0.0,0.0,0.0,0.0,0.0,0.0,0.7435,0.7351,0.7605,0.8479,0.7308,0.6318,0.6199,0.0,0.0,0.0,0.0,0.0,0.0,0.0,-0.4755,-0.6273,-0.6671,-0.7072,-0.7966,-0.8036,-0.7866,-0.7527,0.0,0.0,-0.4094,-0.3788,-0.3951,-0.4172,-0.4363,-0.455,-0.4824,-0.5582,-0.6307,0.0,0.0,0.0,0.0,0.0,0.0,0.0,0.0,-0.5738,-0.5823,0.0,-0.5757,0.0,0.0,0.0,0.0,0.0,-0.4154,0.0,0.0,-0.8539,-0.9396,-1.0972,-1.1716,-1.215,-1.2373,-1.3272,-1.2599,-1.0375,-0.6455,0.0,0.0,0.0,0.0,0.0,0.0,-0.6101,-0.9011,-0.9354,-0.9949,-1.0931,-1.1194,-1.1835,-1.2842,-1.239,-1.1102,-0.895,-0.6468,-0.4056,-0.1706,0.0474,0.0,0.0,0.0,0.0,0.0,0.0,0.0,0.0,0.0,0.0,0.0,0.0,0.0,0.0,0.0,0.0,0.0,0.0,0.0,0.0,0.6359,0.0,0.0,0.0,0.0,0.0,0.0,0.0,0.0,0.0,0.0,0.6338,0.6189,0.6281,0.6819,0.0,0.0,0.0,0.0,0.1287,-0.0432,-0.2493,-0.4739,-0.6777,-0.7707,-0.8631,-0.9945,0.0,0.0,-1.0336,-1.1115,-1.1395,-1.0715,-1.0476,-0.9546,-0.7119,-0.6783,-0.6846,-0.6893,-0.6992,-0.6951,-0.7063,-0.85,-0.975,-0.9535,0.0,0.0,0.0,0.0,-0.7487,-0.8101,-0.9231,-0.8489,-0.8618,-0.9296,-0.8584,0.0,0.0,0.0,0.0,0.0,0.0,-0.7776,-0.918,-0.9462,-1.0261,-1.1503,-1.2206,-1.2711,-1.303,-1.3538,-1.3468,-1.2786,-1.102,-0.8374,-0.5044,0.0,0.0,0.0,0.0,-0.8678,-0.8888,-0.9961,-1.1089,-1.2147,-1.1797,-1.2014,-1.2864,-1.2426,-1.1759,-1.0869,-0.8072,-0.5679,-0.3828,-0.0684,0.0,0.0,0.0,0.0,0.0,0.0,0.0,0.0,0.0,0.0,0.0,0.0,0.0,0.0,0.0,0.0,0.0,0.0,0.0,0.6286,0.6377,0.652,0.0,0.0,0.0,0.0,0.0,0.0,0.0,0.0,0.0,0.3805,0.4656,0.4722,0.0,0.0,-0.0783,-0.1836,-0.4789,-0.7818,-1.0405,-1.1482,0.0,-1.4016,-1.3865,-1.3914,-1.5001,-1.4983,-1.4928,-1.522,-1.4929,-1.46,-1.4445,-1.3974,-1.3287,-1.2558,-1.093,-0.9991,-1.0273,-1.0932,-1.1487,-1.1673,-1.2631,-1.3485,-1.277,-1.1771,-1.0272,-0.9731,-0.9925,-1.0009,-1.0675,-1.1653,-1.0971,-1.1112,-1.171,-1.1041,-1.04,-0.9802,-0.9475,0.0,0.0,0.0,-1.0118,-1.1027,-1.1497,-1.2361,-1.3528,-1.4162,-1.4506,-1.4655,-1.4852,-1.47,-1.4199,-1.366,-1.1904,-0.9011,0.0,0.0,-0.7898,-0.9491,-1.0096,-0.9672,-1.0678,-1.1723,-1.2657,-1.2429,-1.2614,-1.3246,-1.2906,-1.2484,-1.205,-0.9818,-0.7577,-0.5441,-0.2115,0.0284,0.0,0.0,0.0,0.0,0.0,0.0,0.0,0.0,0.0,0.0,0.0,0.5376,0.5069,0.0,0.0,0.0,0.5391,0.5938,0.6796,0.6846,0.0,0.0,0.0,0.0,0.0,0.0,0.0,0.5023,0.3703,0.2247,0.0634,0.0835,0.0889,0.0083,-0.2417,-0.4505,-0.5334,0.0,-1.2467,-1.5172,-1.5687,-1.6039,-1.6889,-1.6583,-1.646,-1.703,-1.7065,-1.7049,-1.7104,-1.6648,-1.6362,-1.6391,-1.6065,-1.5635,-1.5424,-1.4058,-1.299,-1.307,-1.3618,-1.4114,-1.4215,-1.4729,-1.5147,-1.5582,-1.5377,-1.2703,-1.1776,-1.2163,-1.2704,-1.3163,-1.351,-1.3133,-1.3179,-1.354,-1.316,-1.2739,-1.2299,-1.1919,0.0,-1.1778,-1.2165,-1.2787,-1.3698,-1.4198,-1.5116,-1.6354,-1.6848,-1.6998,-1.6779,-1.6786,-1.6196,-1.5137,-1.5004,-1.4247,-1.2863,-1.134,-1.0593,-1.0584,-1.0621,-1.0796,-1.1123,-1.156,-1.2095,-1.2712,-1.3028,-1.3386,-1.3815,-1.3532,-1.3175,-1.2733,-1.1566,-0.9596,-0.676,-0.3642,-0.124,0.0345,0.0,0.0,0.0,0.0,0.0,0.0,0.0,0.0,0.0,0.0,0.0,0.0,0.0,0.0,0.0,0.5937,0.0,0.7562,0.7549,0.0,0.0,0.0,0.6978,0.6801,0.6583,0.5525,0.3255,0.0,0.0,-0.2963,-0.4352,-0.4577,-0.3134,-0.5462,-0.7252,-0.718,-1.0679,-1.3997,-1.618,-1.65,-1.6597,-1.6998,-1.71,-1.7206,-1.7257,-1.7101,-1.7188,-1.7188,-1.7041,-1.7067,-1.7167,-1.7019,-1.6746,-1.6278,-1.6064,-1.5979,-1.5264,-1.5146,-1.5163,-1.513,-1.5163,-1.5195,-1.5582,-1.5546,-1.4838,-1.4364,-1.405,-1.4183,-1.4547,-1.5042,-1.4522,-1.4618,-1.5118,-1.4623,-1.4353,-1.4223,-1.4144,-1.4082,-1.4088,-1.4212,-1.4588,-1.5188,-1.5329,-1.5939,-1.6911,-1.7047,-1.7217,-1.7466,-1.7451,-1.7515,-1.7484,-1.666,-1.6245,-1.6156,-1.4681,-1.3024,-1.1301,-1.2327,-1.2617,-1.2076,-1.2923,-1.3178,-1.289,-1.3085,-1.3193,-1.3153,-1.3214,-1.3415,-1.3779,-1.2607,-1.1019,-0.8924,-0.4725,-0.1547,0.026,0.2945,0.0,0.0,0.0,0.0,0.0,0.0,0.0,0.0,0.0,0.6691,0.586,0.0,0.6793,0.0,0.6868,0.7246,0.7848,0.7614,0.0,0.0,0.6513,0.5618,0.5072,0.3422,0.1796,0.0501,-0.1758,-0.3965,-0.5978,-0.8055,-0.9805,-1.0749,-1.0833,-1.1077,-1.1889,-1.4085,-1.6278,-1.7521,-1.8082,-1.8432,-1.855,-1.8705,-1.8684,-1.8711,-1.8702,-1.873,-1.873,-1.8216,-1.7844,-1.7808,-1.7321,-1.6955,-1.6939,-1.6973,-1.697,-1.6725,-1.5947,-1.5195,-1.5195,-1.5224,-1.5205,-1.6002,-1.6008,-1.6002,-1.582,-1.5528,-1.5522,-1.5694,-1.5977,-1.5703,-1.5763,-1.6045,-1.5737,-1.5605,-1.5593,-1.5605,-1.5599,-1.5646,-1.5868,-1.6127,-1.6433,-1.691,-1.74,-1.7884,-1.8153,-1.8221,-1.8164,-1.8346,-1.8412,-1.8361,-1.792,-1.7772,-1.7838,-1.6985,-1.5528,-1.3596,-1.3857,-1.3733,-1.309,-1.3605,-1.3807,-1.3633,-1.3606,-1.3602,-1.3651,-1.3464,-1.3607,-1.4048,-1.3032,-1.1725,-1.0042,-0.5628,-0.2339,-0.0544,0.306,0.4795,0.0,0.0,0.0,0.0,0.0,0.0,0.0,0.0,0.0,0.0,0.0,0.6676,0.6833,0.6136,0.589,0.635,0.5478,0.4851,0.4786,0.3507,0.2367,0.1677,-0.0,-0.1717,-0.3342,-0.6137,-0.8314,-0.9326,-1.1142,-1.2919,-1.4434,-1.447,-1.4514,-1.5018,-1.6382,-1.77,-1.8592,-1.8895,-1.9051,-1.9259,-1.9295,-1.9295,-1.9295,-1.9295,-1.9295,-1.9286,-1.8941,-1.8629,-1.861,-1.8271,-1.7909,-1.778,-1.7787,-1.7742,-1.7302,-1.6788,-1.6346,-1.6244,-1.5984,-1.5782,-1.6528,-1.6528,-1.6528,-1.6528,-1.6528,-1.6528,-1.6528,-1.6528,-1.6528,-1.6528,-1.6528,-1.6528,-1.6528,-1.6515,-1.6565,-1.6601,-1.6631,-1.7146,-1.7429,-1.7544,-1.8451,-1.893,-1.9006,-1.9479,-1.9418,-1.8917,-1.9313,-1.9263,-1.884,-1.8967,-1.889,-1.8624,-1.8408,-1.7637,-1.6329,-1.5386,-1.4589,-1.4,-1.3927,-1.4052,-1.4392,-1.415,-1.4158,-1.4468,-1.3943,-1.3712,-1.3833,-1.3236,-1.2212,-1.0688,-0.6761,-0.3804,-0.2132,0.2094,0.4017,0.0,0.3294,0.0,0.0,0.0,0.0,0.0,0.0,0.0,0.0,0.5854,0.5862,0.5758,0.4296,0.3453,0.3658,0.2098,0.0927,0.0572,-0.0736,-0.1904,-0.2613,-0.3753,-0.5324,-0.7526,-1.0444,-1.2347,-1.2588,-1.3734,-1.4919,-1.5823,-1.662,-1.6979,-1.7003,-1.7631,-1.8438,-1.9171,-1.9134,-1.9108,-1.9259,-1.9295,-1.9295,-1.9295,-1.9295,-1.9295,-1.9295,-1.9277,-1.9268,-1.9268,-1.9198,-1.907,-1.8624,-1.861,-1.8427,-1.7844,-1.7877,-1.7891,-1.7434,-1.684,-1.6542,-1.6528,-1.6528,-1.6528,-1.6528,-1.6528,-1.6528,-1.6528,-1.6528,-1.6528,-1.6528,-1.6528,-1.6528,-1.6528,-1.6515,-1.6957,-1.7146,-1.7188,-1.7713,-1.8178,-1.8612,-1.881,-1.9125,-1.953,-1.9654,-1.9814,-2.0,-2.0102,-2.0422,-2.0961,-1.9885,-1.9452,-1.9652,-1.843,-1.7695,-1.7406,0.0,0.0,0.0,-1.4052,-1.3927,-1.4012,-1.3755,-1.3741,-1.4019,-1.3927,0.0,-1.3674,-1.3764,-1.3236,-1.1892,-0.932,0.0,0.0,0.0,0.0,0.0,0.0,0.0,0.0,0.0,0.0,0.0,0.2373,0.3191,0.5463,0.5206,0.416,0.2438,0.1514,0.0706,-0.0073,-0.153,-0.2665,-0.323,-0.4898,-0.6209,-0.6764,-0.8193,-0.9619,-1.0655,-1.2281,-1.3727,-1.4661,-1.5645,-1.6389,-1.6904,-1.7394,-1.765,-1.7612,-1.8116,-1.8596,-1.886,-1.9081,-1.9243,-1.928,-1.9295,-1.9295,-1.9295,-1.9295,-1.9295,-1.9295,-1.9295,-1.9295,-1.9295,-1.9295,-1.9328,-1.9345,-1.9473,-1.9404,-1.9176,-1.9487,-1.9339,-1.7828,-1.6974,-1.6513,-1.6948,0.0,-1.6641,-1.6528,0.0,-1.6528,-1.6528,-1.6515,-1.6795,-1.6873,-1.6873,-1.6595,-1.6631,-1.6915,-1.7188,-1.7463,-1.7713,-1.8256,-1.865,-1.893,-1.9162,-1.9442,-1.9697,-1.9697,-1.9909,-2.0322,-2.0516,-2.0983,-2.1535,-2.0857,-2.0502,-2.0471,-1.947,-1.8735,-1.8208,-1.7847,-1.679,-1.5022,-1.4265,-1.3993,-1.4175,-1.4073,-1.4263,-1.4755,-1.4443,0.0,0.0,0.0,0.0,0.0,0.0,0.0,0.0,0.0,0.0,-0.3762,-0.1739,-0.1154,-0.2498,-0.1156,-0.0372,-0.0727,-0.1451,-0.0545,0.2545,0.191,0.0633,-0.1055,-0.2537,-0.3456,-0.3673,-0.5896,-0.7756,-0.8524,-0.9597,-1.0438,-1.0959,-1.1945,-1.2946,-1.3769,-1.4596,-1.5449,-1.6226,-1.6855,-1.7287,-1.7517,-1.7704,-1.7789,-1.7847,-1.827,-1.868,-1.898,-1.9178,-1.928,-1.9295,-1.9295,-1.9295,-1.9295,-1.9295,-1.9295,-1.9295,-1.9295,-1.9295,-1.9295,-1.9295,-1.9365,-1.9564,-1.971,-1.9776,-1.9759,-2.002,-2.0004,-1.8885,-1.7872,-1.6955,-1.7532,-1.7488,-1.7011,-1.676,-1.6672,-1.6666,-1.6683,-1.6795,0.0,0.0,0.0,-1.6831,-1.6873,-1.7312,-1.7504,-1.782,-1.8256,-1.881,-1.905,-1.9058,-1.9486,-1.9697,-1.9697,-1.9697,-1.9937,-2.0416,-2.0821,-2.1205,-2.159,-2.162,-2.136,-2.0878,-2.0491,-1.9813,-1.8901,-1.8223,-1.7203,-1.5846,-1.4761,-1.4343,-1.4621,-1.4556,-1.4892,-1.5686,-1.5122,-1.4859,-1.4916,-1.3671,-1.2924,-1.2754,-1.0229,-0.863,-0.8225,-0.5728,-0.5041,-0.6589,-0.4744,-0.4518,-0.6837,-0.5448,-0.4704,-0.5191,-0.5811,-0.4798,-0.1688,-0.2474,-0.3693,-0.5033,-0.7099,-0.8117,-0.7657,-1.0392,-1.264,-1.3424,-1.3794,-1.412,-1.4495,-1.4913,-1.5381,-1.6269,-1.6527,-1.6937,-1.7287,-1.7595,-1.7789,-1.7789,-1.7789,-1.7816,-1.7936,-1.829,-1.8753,-1.9162,-1.928,-1.9295,-1.9295,-1.9295,-1.9295,-1.9295,-1.9295,-1.9295,-1.9295,-1.9295,-1.9295,-1.9295,-1.9295,-1.938,-1.9564,-1.972,-1.9797,-1.9809,-2.0069,-2.0184,-1.9773,-1.881,-1.7725,-1.8085,-1.8078,-1.8003,-1.7695,-1.7262,-1.7256,-1.7508,-1.7787,-1.6999,-1.6886,-1.7305,-1.7236,-1.7229,-1.7347,-1.8256,-1.8727,-1.881,-1.9361,-1.9566,-1.9603,-1.9682,-1.9697,-1.9697,-1.9697,-2.0104,-2.087,-2.0967,-2.1221,-2.1552,-2.162,-2.1205,-2.0483,-2.0314,-2.0043,-1.9531,-1.8889,-1.8066,-1.7079,-1.5875,-1.5234,-1.5161,-1.4731,-1.4877,-1.5637,-1.5623,-1.5523,-1.5471,-1.5244,-1.5054,-1.4782,-1.4351,-1.3853,-1.3284,-1.2702,-1.2474,-1.2192,-1.1204,-1.0683,-1.0717,-0.9896,-0.9574,-0.9984,-1.0371,-0.9354,-0.6571,-0.6983,-0.8304,-1.0213,-1.1519,-1.2616,-1.3127,-1.4322,-1.5166,-1.5391,-1.5943,-1.6336,-1.6338,-1.6433,-1.6616,-1.706,-1.7183,-1.7336,-1.765,-1.7772,-1.7811,-1.7789,-1.7789,-1.7878,-1.8181,-1.841,-1.8771,-1.9162,-1.9295,-1.9295,-1.9295,-1.9295,-1.9295,-1.9295,-1.9295,-1.9295,-1.9295,-1.9295,-1.9295,-1.9295,-1.9295,-1.9365,-1.9555,-1.971,-1.9788,-1.9813,-2.0088,-2.0041,-1.9353,-1.8914,-1.8491,-1.865,-1.8618,-1.8336,-1.806,-1.7834,-1.7827,-1.8106,-1.8528,-1.7766,-1.7532,-1.768,-1.7429,-1.7463,-1.778,-1.8535,-1.9043,-1.9325,-1.9603,-1.9697,-1.9697,-1.9697,-1.9697,-1.9697,-1.9697,-2.0139,-2.0967,-2.0999,-2.1314,-2.1899,-2.1507,-2.107,-2.0657,-2.0227,-1.9866,-1.9696,-1.9383,-1.8739,-1.7727,-1.6533,-1.5924,-1.5848,-1.5807,-1.6304,-1.7393,-1.6887,-1.663,-1.6775,-1.6018,-1.5544,-1.5411,-1.5288,-1.5075,-1.481,-1.4631,-1.4433,-1.4124,-1.3592,-1.322,-1.3035,-1.2848,-1.3046,-1.3747,-1.3954,-1.3608,-1.254,-1.1841,-1.2075,-1.3416,-1.4329,-1.5085,-1.5735,-1.6305,-1.67,-1.6872,-1.7171,-1.7328,-1.7337,-1.7345,-1.7408,-1.7549,-1.7701,-1.7791,-1.7803,-1.7927,-1.7957,-1.7833,-1.7797,-1.805,-1.8694,-1.9055,-1.9225,-1.9184,-1.9221,-1.928,-1.9295,-1.9295,-1.9295,-1.9295,-1.9295,-1.9295,-1.9295,-1.9295,-1.9295,-1.9295,-1.9295,-1.938,-1.9569,-1.971,-1.9811,-1.9922,-2.0126,-2.0022,-1.9698,-1.9329,-1.8544,-1.9196,-1.9158,-1.875,-1.8499,-1.8373,-1.8254,-1.852,-1.8898,-1.8408,-1.8305,-1.8413,-1.807,-1.8194,-1.8754,-1.9293,-1.97,-1.9893,-1.9914,-1.9839,-1.9697,-1.9697,-1.9697,-1.9697,-1.9697,-2.0112,-2.0764,-2.0862,-2.1181,-2.1705,-2.1252,-2.0934,-2.0756,-2.0077,-1.9697,-1.9682,-1.9603,-1.9095,-1.8278,-1.7255,-1.6642,-1.6497,-1.689,-1.7678,-1.8725,-1.8178,-1.7953,-1.8188,-1.7041,-1.6348,-1.6331,-1.5976,-1.5786,-1.5795,-1.5602,-1.5476,-1.5446,-1.524,-1.504,-1.501,-1.5262,-1.5712,-1.637,-1.6538,-1.6747,-1.7089,-1.5996,-1.5312,-1.5746,-1.6217,-1.6723,-1.7107,-1.7317,-1.7576,-1.796,-1.7887,-1.7952,-1.8219,-1.8175,-1.8065,-1.8079,-1.8443,-1.8551,-1.8151,-1.8439,-1.878,-1.8582,-1.8416,-1.8736,-1.9442,-1.9908,-1.9942,-1.9687,-1.9583,-1.95,-1.9378,-1.9295,-1.9295,-1.9295,-1.9295,-1.9295,-1.9295,-1.9295,-1.9295,-1.9295,-1.9295,-1.94,-1.96,-1.9723,-1.9867,-2.0041,-2.0225,-2.0275,-2.0198,-1.9767,-1.8775,-1.9723,-1.9723,-1.9641,-1.9378,-1.8913,-1.8436,-1.8559,-1.8904,-1.8439,-1.8806,-1.9699,-1.9706,-1.9992,-2.0683,-2.1123,-2.1102,-2.064,-2.061,-2.0288,-1.975,-1.9697,-1.9697,-1.9697,-1.9697,-1.9929,-2.034,-2.0424,-2.0475,-2.0667,-2.0862,-2.0764,-2.0356,-1.9902,-1.9697,-1.9654,-1.9244,-1.893,-1.881,-1.8229,-1.7632,-1.7074,-1.742,-1.8022,-1.8863,-1.9195,-1.9441,-1.974,-1.9037,-1.8581,-1.853,-1.7924,-1.7572,-1.7563,-1.7533,-1.7524,-1.7519,-1.7479,-1.7363,-1.7082,-1.7344,-1.7404,-1.7239,-1.7521,-1.796,-1.8579,-1.8523,-1.8027,-1.7451,-1.7469,-1.7677,-1.7726,-1.7777,-1.8055,-1.8684,-1.8293,-1.831,-1.9351,-1.9215,-1.88,-1.88,-1.9573,-1.9784,-1.8732,-1.957,-2.0449,-2.0055,-1.9975,-2.007,-2.0396,-2.0883,-2.1201,-2.1042,-2.0768,-2.0163,-1.9656,-1.9332,-1.9479,-1.9415,-1.9332,-1.9335,-1.9335,-1.9295,-1.9295,-1.9295,-1.9295,-1.9405,-1.9663,-1.9809,-1.9909,-2.0153,-2.0269,-2.0302,-2.0302,-2.0169,-1.9427,-1.9798,-1.9798,-1.9798,-1.9685,-1.9453,-1.9233,-1.9288,-1.9423,-1.9245,-1.9823,-2.0873,-2.0971,-2.0955,-2.0961,-2.1465,-2.1545,-2.1276,-2.0894,-2.0572,-2.0258,-1.9884,-1.9697,-1.9697,-1.9697,-2.0042,-2.0616,-2.0457,-2.0583,-2.0927,-2.0748,-2.0364,-1.9965,-1.9782,-1.9697,-1.9682,-1.9479,-1.9207,-1.8885,-1.9006,-1.8763,-1.8318,-1.884,-1.9593,-2.0402,-2.0503,-2.0555,-2.0601,-1.9959,-1.9562,-1.9545,-1.9241,-1.9106,-1.9089,-1.8691,-1.8657,-1.903,-1.9089,-1.9032,-1.8893,-1.9032,-1.8934,-1.8515,-1.9058,-1.9435,-1.9439,-1.9696,-1.9638,-1.9231,-1.8769,-1.8606,-1.8978,-1.8724,-1.8758,-1.9334,-1.9258,-1.9351,-1.9875,-1.9748,-1.9562,-1.9603,-2.0229,-2.049,-1.9878,-2.0375,-2.0903,-2.0811,-2.0798,-2.0991,-2.1352,-2.184,-2.207,-2.2064,-2.1981,-2.1658,-2.0904,-2.0792,-2.0547,-2.017,-2.0014,-1.9932,-1.9418,-1.9305,-1.9295,-1.9305,-1.9311,-1.9439,-1.974,-1.9811,-1.9889,-2.0171,-2.0302,-2.0302,-2.0302,-2.0302,-1.9888,-1.9798,-1.9798,-1.9798,-1.9798,-1.9798,-1.9798,-1.9798,-1.985,-2.0003,-2.0577,-2.1438,-2.1805,-2.1773,-2.1513,-2.1957,-2.2136,-2.1919,-2.147,-2.1148,-2.0932,-2.0281,-1.9966,-1.9959,-1.9886,-2.0208,-2.0657,-2.0491,-2.0567,-2.0975,-2.0483,-1.9972,-1.9754,-1.9697,-1.9697,-1.9682,-1.9559,-1.9361,-1.9162,-1.9398,-1.9398,-1.9376,-2.0005,-2.075,-2.1381,-2.1485,-2.1498,-2.1473,-2.0744,-2.0313,-2.0331,-2.012,-1.9993,-1.9968,-1.9469,-1.9459,-1.9916,-1.9993,-1.9959,-1.9807,-1.9909,-1.9972,-1.9923,-2.0315,-2.0507,-2.0506,-2.0745,-2.0967,-2.1023,-2.0211,-1.9845,-1.9841,-1.9528,-1.9562,-2.0179,-2.0162,-2.012,-2.0584,-2.0491,-2.0348,-2.0399,-2.1008,-2.1405,-2.1356,-2.1397,-2.1377,-2.175,-2.1828,-2.1869,-2.2414,-2.2824,-2.3022,-2.2982,-2.3177,-2.2841,-2.2033,-2.1674,-2.1437,-2.1161,-2.0849,-2.0574,-1.9858,-1.9711,-1.9479,-1.9607,-1.9463,-1.9499,-1.9792,-1.988,-1.9932,-2.018,-2.0302,-2.0302,-2.0302,-2.0302,-2.0302,-1.9798,-1.9798,-1.9798,-1.9798,-1.9798,-1.9798,-1.9798,-1.9907,-2.0446,-2.0802,-2.1077,-2.2074,-2.2606,-2.2588,-2.3119,-2.3161,-2.2724,-2.2525,-2.2214,-2.162,-2.0969,-2.067,-2.0617,-2.0391,-2.0311,-2.0467,-2.0396,-2.0177,-1.9882,-1.979,-1.9718,-1.9733,-1.9697,-1.9697,-1.9646,-1.9251,-1.9207,-1.9559,-1.9244,-1.9361,-2.0128,-2.069,-2.0951,-2.111,-2.1799,-2.22,-2.2139,-2.1524,-2.113,-2.1135,-2.05,-2.0069,-2.0044,-2.001,-2.0018,-2.0033,-2.0052,-1.9858,-1.9597,-1.9909,-2.0448,-2.1066,-2.0932,-2.0957,-2.1789,-2.1981,-2.2168,-2.2529,-2.1835,-2.1083,-2.0288,-2.0077,-2.0306,-2.0966,-2.0492,-2.0779,-2.1953,-2.1456,-2.1212,-2.1264,-2.191,-2.2569,-2.3271,-2.2589,-2.2562,-2.312,-2.3503,-2.3512,-2.3509,-2.3839,-2.3976,-2.3995,-2.3923,-2.3593,-2.2208,-2.2162,-2.2069,-2.1749,-2.1648,-2.1437,-2.0987,-2.0554,-2.0215,-1.994,-1.9866,-1.9873,-1.9958,-2.0031,-2.0097,-2.0223,-2.0285,-2.0302,-2.0302,-2.0302,-2.0302,-1.9798,-1.9798,-1.9798,-1.9798,-1.9798,-1.9798,-2.0042,-2.0396,-2.0245,-2.0627,-2.1335,-2.1859,-2.2307,-2.2754,-2.3326,-2.3483,-2.3243,-2.2911,-2.254,-2.2296,-2.165,-2.1343,-2.1313,-2.1235,-2.1072,-2.0905,-2.0691,-2.0261,-1.9756,-1.9697,-1.9697,-1.9697,-1.9697,-1.9697,-1.9646,-1.9522,-1.9522,-1.9682,-1.9486,-1.9595,-1.9937,-2.064,-2.0999,-2.1039,-2.1848,-2.2319,-2.2319,-2.2032,-2.1888,-2.1904,-2.1598,-2.1454,-2.1454,-2.1454,-2.1237,-2.0866,-2.1222,-2.1412,-2.1275,-2.1387,-2.172,-2.2256,-2.2303,-2.2274,-2.2643,-2.2941,-2.3191,-2.3221,-2.2914,-2.2212,-2.1477,-2.0976,-2.1067,-2.1693,-2.1659,-2.1627,-2.2099,-2.2057,-2.1896,-2.1976,-2.2408,-2.2963,-2.3392,-2.3336,-2.3352,-2.3864,-2.4016,-2.3996,-2.4016,-2.4151,-2.4199,-2.4199,-2.419,-2.4015,-2.3547,-2.3355,-2.3244,-2.2786,-2.2483,-2.2116,-2.1703,-2.125,-2.0889,-2.069,-2.0535,-2.0467,-2.0593,-2.0172,-2.0244,-2.0241,-2.0294,-2.0302,-2.0302,-2.0302,-2.0302,-1.9798,-1.9798,-1.9798,-1.9798,-1.985,-2.0048,-2.0403,-2.0746,-2.0527,-2.0812,-2.1376,-2.1609,-2.1946,-2.2445,-2.2995,-2.3428,-2.3557,-2.3161,-2.2974,-2.2914,-2.2308,-2.2016,-2.2012,-2.1928,-2.1797,-2.1547,-2.1104,-2.0572,-2.0034,-1.9787,-1.9697,-1.9697,-1.9697,-1.9697,-1.9697,-1.9697,-1.9697,-1.9697,-1.9697,-1.9697,-1.9833,-2.0548,-2.0999,-2.1126,-2.184,-2.2319,-2.2319,-2.2319,-2.2319,-2.2319,-2.2319,-2.2319,-2.2319,-2.2319,-2.2093,-2.1688,-2.2008,-2.2319,-2.2319,-2.2319,-2.2407,-2.2678,-2.2996,-2.3187,-2.3246,-2.3617,-2.3771,-2.3665,-2.3244,-2.27,-2.2071,-2.1427,-2.1301,-2.1773,-2.2039,-2.2176,-2.2219,-2.2345,-2.2373,-2.2315,-2.2419,-2.2807,-2.3253,-2.3337,-2.3548,-2.3967,-2.4016,-2.4074,-2.417,-2.4199,-2.4199,-2.4199,-2.4199,-2.419,-2.396,-2.3869,-2.3869,-2.3492,-2.3281,-2.2896,-2.2518,-2.2047,-2.171,-2.1502,-2.1333,-2.1256,-2.0966,-2.0494,-2.0307,-2.0294,-2.0302,-2.0302,-2.0302,-2.0302,-2.0302,-1.9798,-1.9798,-1.9798,-1.9798,-1.9907,-2.0446,-2.0746,-2.0901,-2.1287,-2.1197,-2.1022,-2.1424,-2.1744,-2.1899,-2.2582,-2.3113,-2.3493,-2.3512,-2.3497,-2.3445,-2.2944,-2.2682,-2.2686,-2.2466,-2.2325,-2.2217,-2.1592,-2.1088,-2.0692,-2.0124,-1.9794,-1.975,-1.9727,-1.9697,-1.9697,-1.9697,-1.9697,-1.9697,-1.9697,-1.9697,-1.9833,-2.054,-2.0999,-2.1095,-2.1848,-2.2319,-2.2338,-2.2319,-2.2319,-2.2319,-2.2319,-2.2319,-2.2319,-2.2319,-2.2302,-2.2234,-2.2293,-2.2319,-2.2319,-2.2319,-2.231,-2.2443,-2.2857,-2.3342,-2.3605,-2.3932,-2.4054,-2.3726,-2.3061,-2.2395,-2.1985,-2.1291,-2.0868,-2.0886,-2.1548,-2.1896,-2.2183,-2.2438,-2.2608,-2.2369,-2.2358,-2.2426,-2.2643,-2.2873,-2.315,-2.3619,-2.3807,-2.3908,-2.4142,-2.4199,-2.4199,-2.4199,-2.4199,-2.4199,-2.4199,-2.419,-2.4181,-2.4116,-2.3997,-2.3758,-2.3474,-2.3067,-2.2865,-2.2623,-2.2034,-2.1895,-2.1244,-2.0776,-2.0353,-2.0302,-2.0302,-2.0304,-2.0302,-2.0302,-2.0302,-1.9798,-1.9798,-1.9798,-1.9798,-1.9901,-2.0503,-2.0809,-2.0809,-2.1028,-2.0986,-2.0937,-2.1424,-2.1697,-2.1986,-2.2808,-2.3421,-2.3595,-2.3595,-2.3595,-2.3557,-2.3385,-2.3281,-2.3286,-2.3247,-2.2979,-2.2536,-2.1901,-2.1521,-2.13,-2.0722,-2.0393,-2.0326,-1.9914,-1.9712,-1.9697,-1.9697,-1.9697,-1.9697,-1.9697,-1.9697,-1.979,-2.054,-2.0999,-2.1103,-2.1857,-2.2388,-2.2528,-2.2407,-2.2319,-2.2319,-2.2319,-2.2319,-2.2319,-2.2319,-2.2319,-2.2319,-2.2319,-2.2319,-2.2319,-2.2319,-2.2319,-2.2405,-2.2866,-2.3323,-2.3662,-2.4016,-2.4151,-2.3972,-2.3313,-2.2599,-2.1888,-2.1089,-2.0746,-2.1082,-2.1176,-2.1724,-2.2674,-2.283,-2.2582,-2.2377,-2.2319,-2.2434,-2.2669,-2.2848,-2.3174,-2.3606,-2.3846,-2.4056,-2.417,-2.4199,-2.4199,-2.4199,-2.4199,-2.4162,-2.4181,-2.4116,-2.4043,-2.4135,-2.4181,-2.4181,-2.3999,-2.3991,-2.3824,-2.3551,-2.2955,-2.2324,-2.1669,-2.1177,-2.0821,-2.04,-2.0361,-2.0342,-2.0304,-2.0302,-2.0302,-1.9798,-1.9798,-1.9798,-1.9952,-2.0251,-2.0874,-2.1272,-2.141,-2.1217,-2.1265,-2.1506,-2.139,-2.167,-2.2146,-2.2957,-2.337,-2.3551,-2.3595,-2.3595,-2.3595,-2.3595,-2.3595,-2.3595,-2.3595,-2.3423,-2.2974,-2.236,-2.2069,-2.2024,-2.141,-2.0961,-2.0655,-2.0266,-1.9929,-1.9735,-1.9697,-1.9697,-1.9697,-1.9697,-1.9697,-1.9897,-2.0532,-2.0999,-2.1134,-2.1857,-2.24,-2.266,-2.2445,-2.2341,-2.2407,-2.236,-2.2319,-2.2319,-2.2319,-2.2319,-2.2319,-2.2319,-2.2319,-2.2319,-2.2319,-2.2319,-2.2405,-2.2857,-2.3268,-2.3544,-2.3896,-2.4199,-2.4098,-2.3162,-2.2345,-2.1758,-2.0703,-2.0299,-2.0508,-2.0646,-2.1395,-2.2733,-2.3108,-2.2972,-2.2756,-2.2563,-2.2563,-2.2712,-2.2839,-2.315,-2.3477,-2.3804,-2.4094,-2.4151,-2.4199,-2.4181,-2.4061,-2.3804,-2.3896,-2.4135,-2.4052,-2.3896,-2.4034,-2.419,-2.419,-2.4118,-2.4346,-2.4373,-2.423,-2.3794,-2.3025,-2.236,-2.1927,-2.1543,-2.1091,-2.0583,-2.0581,-2.0591,-2.035,-2.0302,-1.9798,-1.9798,-1.9798,-2.0156,-2.0789,-2.1397,-2.1913,-2.2399,-2.2007,-2.2,-2.2221,-2.1561,-2.165,-2.2505,-2.2882,-2.3194,-2.3516,-2.3595,-2.3595,-2.3595,-2.3595,-2.3595,-2.3595,-2.3595,-2.3557,-2.343,-2.2966,-2.2776,-2.2675,-2.2069,-2.1448,-2.1006,-2.0759,-2.04,-1.9929,-1.9757,-1.9697,-1.9697,-1.9697,-1.9697,-1.9754,-2.054,-2.0999,-2.1023,-2.1819,-2.2417,-2.2617,-2.2482,-2.2445,-2.2599,-2.2398,-2.2319,-2.231,-2.231,-2.2315,-2.2332,-2.233,-2.2302,-2.231,-2.2319,-2.2319,-2.2366,-2.2781,-2.3189,-2.33,-2.3765,-2.4142,-2.4107,-2.2923,-2.1951,-2.1574,-2.051,-1.9671,-1.943,-1.9981,-2.0916,-2.215,-2.2929,-2.303,-2.2947,-2.2844,-2.2712,-2.2745,-2.2814,-2.3021,-2.3277,-2.3628,-2.3946,-2.4113,-2.4181,-2.4153,-2.3887,-2.3501,-2.3621,-2.3859,-2.4034,-2.3905,-2.4061,-2.4209,-2.4238,-2.4312,-2.4572,-2.4846,-2.4732,-2.4418,-2.3688,-2.3109,-2.2629,-2.2052,-2.1446,-2.1139,-2.1023,-2.0821,-2.06,-2.0312,-1.9798,-1.9798,-1.9798,-2.0201,-2.0838,-2.1431,-2.1798,-2.2007,-2.2346,-2.2246,-2.2053,-2.2161,-2.2314,-2.274,-2.3201,-2.3472,-2.3559,-2.3595,-2.3595,-2.3595,-2.3595,-2.3595,-2.3595,-2.3595,-2.3595,-2.3557,-2.34,-2.3355,-2.331,-2.2753,-2.2301,-2.2169,-2.1208,-2.0685,-2.0408,-1.9959,-1.9712,-1.9697,-1.9697,-1.9726,-1.9861,-2.054,-2.0999,-2.1063,-2.1848,-2.2417,-2.2652,-2.2643,-2.25,-2.2398,-2.2341,-2.2319,-2.2321,-2.2325,-2.2426,-2.253,-2.2426,-2.231,-2.2296,-2.2319,-2.2319,-2.233,-2.2634,-2.2956,-2.3198,-2.3566,-2.3917,-2.3948,-2.3235,-2.2409,-2.1776,-2.0822,-2.0005,-1.9418,-1.962,-2.0063,-2.077,-2.1425,-2.201,-2.2229,-2.2274,-2.25,-2.2944,-2.3236,-2.3405,-2.3566,-2.3816,-2.4074,-2.417,-2.4162,-2.4116,-2.3593,-2.3272,-2.34,-2.3584,-2.3823,-2.3979,-2.4116,-2.4238,-2.4303,-2.4452,-2.4708,-2.4978,-2.5109,-2.4668,-2.4014,-2.3639,-2.3216,-2.2552,-2.2014,-2.1793,-2.1696,-2.1216,-2.0889,-2.0475,-1.9798,-1.9798,-1.9798,-2.0333,-2.1161,-2.1575,-2.1986,-2.2469,-2.2589,-2.2673,-2.2522,-2.2596,-2.2837,-2.3091,-2.3472,-2.3602,-2.3595,-2.3595,-2.3595,-2.3595,-2.3595,-2.3595,-2.3595,-2.3595,-2.3595,-2.3595,-2.3595,-2.3587,-2.3542,-2.3221,-2.2966,-2.2577,-2.1926,-2.1433,-2.1081,-2.0475,-2.0124,-2.0071,-1.9913,-1.9747,-2.0,-2.0632,-2.1055,-2.1314,-2.1945,-2.2388,-2.2519,-2.2643,-2.2452,-2.2046,-2.2116,-2.2349,-2.2463,-2.2539,-2.2668,-2.2864,-2.2819,-2.2686,-2.2381,-2.2379,-2.2407,-2.2388,-2.2555,-2.2848,-2.3165,-2.3491,-2.3837,-2.405,-2.3446,-2.2841,-2.2272,-2.1345,-2.0308,-1.9546,-1.9675,-2.0023,-2.0281,-2.108,-2.174,-2.2188,-2.2337,-2.2513,-2.3276,-2.357,-2.3662,-2.3753,-2.3976,-2.4122,-2.419,-2.4135,-2.385,-2.3226,-2.284,-2.2841,-2.2951,-2.3171,-2.3795,-2.4015,-2.4266,-2.433,-2.4476,-2.4737,-2.4956,-2.5055,-2.4764,-2.4466,-2.4091,-2.3793,-2.3514,-2.3062,-2.2706,-2.2225,-2.1764,-2.1187,-2.0773,-1.9798,-1.9798,-1.9798,-2.0564,-2.1554,-2.1697,-2.237,-2.3319,-2.3054,-2.3106,-2.3326,-2.3002,-2.3106,-2.3595,-2.3559,-2.3595,-2.3595,-2.3595,-2.3595,-2.3595,-2.3595,-2.3595,-2.3595,-2.3595,-2.3595,-2.3595,-2.3595,-2.3595,-2.358,-2.3557,-2.3381,-2.3009,-2.2799,-2.2412,-2.1821,-2.1121,-2.073,-2.0513,-1.9981,-1.9889,-2.0219,-2.0723,-2.115,-2.1552,-2.2011,-2.2282,-2.2396,-2.2475,-2.2288,-2.1398,-2.1955,-2.2383,-2.266,-2.2816,-2.3035,-2.3206,-2.3298,-2.3093,-2.257,-2.2616,-2.2555,-2.2407,-2.2527,-2.2831,-2.315,-2.3468,-2.3765,-2.417,-2.3547,-2.3189,-2.2749,-2.1758,-2.0794,-2.0079,-2.0473,-2.0657,-2.0803,-2.118,-2.1868,-2.2712,-2.255,-2.287,-2.3446,-2.3744,-2.3774,-2.3896,-2.4074,-2.4151,-2.407,-2.3896,-2.3373,-2.262,-2.2336,-2.218,-2.2308,-2.2464,-2.3263,-2.3869,-2.4192,-2.4357,-2.4417,-2.4642,-2.4854,-2.4915,-2.4907,-2.4774,-2.4495,-2.4284,-2.4207,-2.3985,-2.3562,-2.2937,-2.2312,-2.1648,-2.1129,-1.9798,-1.9798,-1.9798,-2.0514,-2.1602,-2.1697,-2.2416,-2.3551,-2.3465,-2.3465,-2.3551,-2.3406,-2.3457,-2.3595,-2.3595,-2.3595,-2.3595,-2.3595,-2.3595,-2.3595,-2.3595,-2.3595,-2.3595,-2.3595,-2.3595,-2.3595,-2.3595,-2.3595,-2.3595,-2.3666,-2.3776,-2.3871,-2.313,-2.2838,-2.2799,-2.159,-2.0715,-2.0602,-2.0071,-1.9955,-2.0322,-2.0756,-2.1213,-2.162,-2.2069,-2.2291,-2.231,-2.2377,-2.2284,-2.2169,-2.2211,-2.2436,-2.2747,-2.3137,-2.3401,-2.3549,-2.3521,-2.3356,-2.3045,-2.2815,-2.2573,-2.2388,-2.2415,-2.2607,-2.3141,-2.3268,-2.3619,-2.4027,-2.4015,-2.3612,-2.3015,-2.2171,-2.1545,-2.1187,-2.0895,-2.096,-2.1189,-2.0547,-2.0739,-2.1713,-2.2154,-2.2502,-2.3836,-2.4037,-2.4065,-2.4094,-2.4122,-2.419,-2.3951,-2.3648,-2.2887,-2.2079,-2.2069,-2.1969,-2.2171,-2.2464,-2.3235,-2.3758,-2.4045,-2.4204,-2.4262,-2.4611,-2.4854,-2.5063,-2.5225,-2.5034,-2.4803,-2.4909,-2.4841,-2.4611,-2.4351,-2.3802,-2.3148,-2.2341,-2.1495,-1.9798,-1.985,-2.015,-2.0812,-2.1656,-2.2046,-2.2718,-2.3457,-2.3595,-2.3595,-2.3595,-2.3595,-2.3595,-2.3595,-2.3595,-2.3595,-2.3595,-2.3595,-2.3595,-2.3595,-2.3595,-2.3595,-2.3595,-2.3595,-2.3595,-2.363,-2.3872,-2.3887,-2.3731,-2.3887,-2.4108,-2.4307,-2.3523,-2.3459,-2.3634,-2.2349,-2.1569,-2.1119,-2.0513,-2.0322,-2.0654,-2.0862,-2.1354,-2.1802,-2.2172,-2.2319,-2.2319,-2.2319,-2.2319,-2.233,-2.2426,-2.2643,-2.294,-2.3357,-2.3669,-2.3876,-2.3871,-2.3702,-2.3437,-2.3117,-2.2806,-2.25,-2.2388,-2.2669,-2.3014,-2.3189,-2.3504,-2.4007,-2.4116,-2.3869,-2.3144,-2.3162,-2.2703,-2.195,-2.1758,-2.174,-2.1574,-2.0657,-2.051,-2.1868,-2.2456,-2.3043,-2.3722,-2.4107,-2.419,-2.4142,-2.4133,-2.4135,-2.3529,-2.3144,-2.2327,-2.174,-2.1793,-2.1876,-2.2097,-2.2584,-2.3373,-2.3722,-2.386,-2.3889,-2.3871,-2.4365,-2.4894,-2.5072,-2.5222,-2.5293,-2.5149,-2.5303,-2.5303,-2.5072,-2.4784,-2.4514,-2.3946,-2.2937,-2.2081,-1.9798,-1.985,-2.0503,-2.1161,-2.1758,-2.2399,-2.3002,-2.3551,-2.3595,-2.3595,-2.3595,-2.3595,-2.3595,-2.3595,-2.3595,-2.3595,-2.3595,-2.3595,-2.3595,-2.3595,-2.3595,-2.3595,-2.3595,-2.3595,-2.3673,-2.3752,-2.4116,-2.4124,-2.3998,-2.4233,-2.4624,-2.4544,-2.4025,-2.4043,-2.4155,-2.3276,-2.2315,-2.1814,-2.1144,-2.0919,-2.1091,-2.1175,-2.1515,-2.2086,-2.2282,-2.2319,-2.2319,-2.2319,-2.2319,-2.2302,-2.2608,-2.2906,-2.3189,-2.3513,-2.3855,-2.4142,-2.4075,-2.3887,-2.364,-2.3369,-2.3054,-2.2772,-2.2607,-2.2738,-2.3135,-2.3346,-2.3619,-2.3937,-2.4144,-2.3969,-2.3336,-2.3602,-2.3355,-2.2685,-2.2767,-2.2666,-2.2217,-2.1418,-2.1759,-2.251,-2.2859,-2.3244,-2.3777,-2.4199,-2.4199,-2.419,-2.4181,-2.4006,-2.3428,-2.274,-2.2015,-2.1428,-2.1428,-2.1996,-2.2308,-2.296,-2.3722,-2.3694,-2.3786,-2.3708,-2.3633,-2.395,-2.4462,-2.4965,-2.5147,-2.5233,-2.5303,-2.5303,-2.5303,-2.5303,-2.5188,-2.4899,-2.4245,-2.3447,-2.2649,-1.9798,-1.985,-2.0503,-2.1161,-2.1758,-2.2399,-2.3054,-2.3551,-2.3595,-2.3595,-2.3595,-2.3595,-2.3595,-2.3595,-2.3595,-2.3595,-2.3595,-2.3595,-2.3595,-2.3595,-2.3595,-2.3595,-2.3595,-2.3595,-2.3837,-2.4199,-2.4438,-2.4389,-2.443,-2.4784,-2.5221,-2.5411,-2.4664,-2.4504,-2.4412,-2.3592,-2.2716,-2.244,-2.1782,-2.1568,-2.1813,-2.1767,-2.1746,-2.2288,-2.2319,-2.2319,-2.2319,-2.2319,-2.2319,-2.2366,-2.2849,-2.3093,-2.3268,-2.3544,-2.3846,-2.4025,-2.3974,-2.385,-2.3628,-2.3427,-2.3221,-2.3117,-2.3014,-2.3168,-2.3477,-2.3628,-2.3774,-2.4045,-2.4199,-2.4116,-2.4025,-2.4107,-2.4098,-2.3685,-2.3327,-2.3254,-2.3391,-2.3061,-2.2584,-2.3107,-2.3199,-2.329,-2.3832,-2.4199,-2.4199,-2.4199,-2.419,-2.4043,-2.3639,-2.285,-2.2015,-2.1492,-2.1079,-2.185,-2.2602,-2.3391,-2.4052,-2.3786,-2.3741,-2.3639,-2.3601,-2.3618,-2.3973,-2.4588,-2.5056,-2.5264,-2.5303,-2.5303,-2.5303,-2.5303,-2.5264,-2.5235,-2.4582,-2.3851,-2.3043,-1.9798,-1.9907,-2.0868,-2.1431,-2.1838,-2.2756,-2.3326,-2.3551,-2.3595,-2.3595,-2.3595,-2.3595,-2.3595,-2.3595,-2.3595,-2.3595,-2.3595,-2.3595,-2.3595,-2.3595,-2.3595,-2.3595,-2.3595,-2.3595,-2.3906,-2.4348,-2.4657,-2.4824,-2.4871,-2.5343,-2.5734,-2.566,-2.4942,-2.4672,-2.4831,-2.3889,-2.3228,-2.2955,-2.2655,-2.2568,-2.2898,-2.2675,-2.2559,-2.2293,-2.2319,-2.2319,-2.2319,-2.2319,-2.2369,-2.2554,-2.294,-2.3245,-2.3437,-2.361,-2.3765,-2.3915,-2.3913,-2.3766,-2.3607,-2.3519,-2.3596,-2.3224,-2.3212,-2.3369,-2.3597,-2.3723,-2.3867,-2.4094,-2.4199,-2.4199,-2.4162,-2.4199,-2.4199,-2.4135,-2.3813,-2.3823,-2.3969,-2.3777,-2.3639,-2.3538,-2.3667,-2.3813,-2.396,-2.4199,-2.4199,-2.4199,-2.4199,-2.4015,-2.3786,-2.3061,-2.2208,-2.1914,-2.162,-2.2272,-2.296,-2.3474,-2.3777,-2.3548,-2.3565,-2.3471,-2.3601,-2.3653,-2.3928,-2.4406,-2.4803,-2.5264,-2.5303,-2.5303,-2.5303,-2.5303,-2.5293,-2.5178,-2.4822,-2.4245,-2.337,-1.9798,-1.9901,-2.1176,-2.1697,-2.1885,-2.3024,-2.3595,-2.3595,-2.3595,-2.3595,-2.3595,-2.3595,-2.3595,-2.3595,-2.3595,-2.3595,-2.3595,-2.3595,-2.3595,-2.3595,-2.3595,-2.3595,-2.3595,-2.3794,-2.4067,-2.4657,-2.5136,-2.5343,-2.5457,-2.588,-2.6041,-2.5807,-2.5012,-2.4664,-2.4713,-2.4156,-2.3744,-2.3667,-2.3684,-2.3779,-2.372,-2.3516,-2.3054,-2.2395,-2.2319,-2.2319,-2.2319,-2.2388,-2.2517,-2.2747,-2.3069,-2.3423,-2.3662,-2.3774,-2.3744,-2.3646,-2.3804,-2.3607,-2.3584,-2.3575,-2.3667,-2.3518,-2.3432,-2.3575,-2.3723,-2.3876,-2.3937,-2.4142,-2.4199,-2.4199,-2.4199,-2.4199,-2.4199,-2.419,-2.4181,-2.419,-2.4171,-2.4098,-2.407,-2.407,-2.4199,-2.4199,-2.4199,-2.4199,-2.4199,-2.4199,-2.419,-2.4098,-2.3832,-2.3327,-2.2685,-2.2464,-2.2455,-2.296,-2.3345,-2.34,-2.3318,-2.2776,-2.2981,-2.3105,-2.3407,-2.3704,-2.406,-2.4427,-2.4899,-2.5293,-2.5293,-2.5303,-2.5303,-2.5303,-2.5303,-2.5207,-2.4986,-2.436,-2.3485,-1.9798,-1.9895,-2.119,-2.1697,-2.1885,-2.3024,-2.3551,-2.3559,-2.3551,-2.3595,-2.3501,-2.3595,-2.3595,-2.3595,-2.3595,-2.3595,-2.3595,-2.3595,-2.3595,-2.3595,-2.3595,-2.3595,-2.3673,-2.4108,-2.4504,-2.502,-2.5577,-2.586,-2.5997,-2.6358,-2.6332,-2.5916,-2.5373,-2.495,-2.4544,-2.4348,-2.431,-2.431,-2.4513,-2.4322,-2.3726,-2.3574,-2.3148,-2.2649,-2.2462,-2.2462,-2.2499,-2.2609,-2.2764,-2.278,-2.3323,-2.3628,-2.3753,-2.3987,-2.3774,-2.3369,-2.3087,-2.308,-2.3396,-2.348,-2.3602,-2.3762,-2.3946,-2.4083,-2.4074,-2.4074,-2.4113,-2.417,-2.4199,-2.4199,-2.4199,-2.4199,-2.4199,-2.4199,-2.4199,-2.4199,-2.4199,-2.4199,-2.4199,-2.4199,-2.4199,-2.4199,-2.4199,-2.4199,-2.4199,-2.4199,-2.4171,-2.408,-2.3942,-2.3511,-2.3263,-2.307,-2.2712,-2.3116,-2.3116,-2.3263,-2.2904,-2.2197,-2.2453,-2.2789,-2.3158,-2.3571,-2.4167,-2.4577,-2.4974,-2.5245,-2.5293,-2.5303,-2.5303,-2.5303,-2.5303,-2.5303,-2.5274,-2.4485,-2.36,-2.015,-1.9895,-2.0812,-2.1383,-2.1751,-2.2317,-2.2749,-2.3054,-2.3098,-2.3106,-2.3143,-2.3465,-2.3595,-2.3595,-2.3595,-2.3595,-2.3595,-2.3595,-2.3595,-2.3595,-2.3595,-2.3595,-2.3716,-2.415,-2.4664,-2.5221,-2.5726,-2.6139,-2.6358,-2.6505,-2.6444,-2.5997,-2.5449,-2.491,-2.4511,-2.4438,-2.4592,-2.4908,-2.5398,-2.5438,-2.4861,-2.4577,-2.4264,-2.3562,-2.3494,-2.3274,-2.3073,-2.3198,-2.3206,-2.3154,-2.3459,-2.3786,-2.3887,-2.3937,-2.3744,-2.3544,-2.2979,-2.2815,-2.2901,-2.3182,-2.3463,-2.368,-2.3946,-2.417,-2.4199,-2.4199,-2.4199,-2.4199,-2.4199,-2.4199,-2.4199,-2.4199,-2.4199,-2.4199,-2.4199,-2.4199,-2.4199,-2.4199,-2.4199,-2.4199,-2.4199,-2.4199,-2.4199,-2.4199,-2.4199,-2.4199,-2.4199,-2.4153,-2.4116,-2.3969,-2.3813,-2.3749,-2.3318,-2.3043,-2.2832,-2.2731,-2.2465,-2.2013,-2.2189,-2.2529,-2.2924,-2.3385,-2.4008,-2.43,-2.4438,-2.4755,-2.513,-2.5245,-2.5188,-2.5236,-2.5303,-2.5303,-2.5245,-2.4611,-2.3658,-2.0497,-2.015,-2.0924,-2.1438,-2.1697,-2.1859,-2.2246,-2.2701,-2.2709,-2.2701,-2.2889,-2.3326,-2.3595,-2.3595,-2.3595,-2.3595,-2.3595,-2.3595,-2.3595,-2.3595,-2.3595,-2.3595,-2.3837,-2.4233,-2.4824,-2.5229,-2.5952,-2.6324,-2.6547,-2.6666,-2.6479,-2.5997,-2.5465,-2.5028,-2.4752,-2.4712,-2.4942,-2.564,-2.6222,-2.6159,-2.5625,-2.5507,-2.5059,-2.4653,-2.4447,-2.4261,-2.3808,-2.3721,-2.3624,-2.3636,-2.3571,-2.3846,-2.4074,-2.4007,-2.3837,-2.364,-2.3236,-2.2931,-2.2934,-2.3093,-2.3327,-2.3544,-2.3765,-2.4199,-2.4199,-2.4199,-2.4199,-2.4199,-2.4199,-2.4199,-2.4199,-2.4199,-2.4199,-2.4199,-2.4199,-2.4199,-2.4199,-2.4199,-2.4199,-2.4199,-2.4199,-2.4199,-2.4199,-2.4199,-2.4199,-2.4199,-2.4199,-2.4199,-2.42,-2.4209,-2.4127,-2.398,-2.35,-2.2948,-2.2372,-2.2131,-2.1858,-2.1744,-2.1905,-2.2316,-2.2713,-2.3253,-2.3861,-2.4015,-2.4004,-2.438,-2.4832,-2.4947,-2.5072,-2.5197,-2.5303,-2.5303,-2.5111,-2.4534,-2.3985,-2.0802,-2.0845,-2.2028,-2.22,-2.1798,-2.2346,-2.2603,-2.2709,-2.2709,-2.2747,-2.2889,-2.329,-2.3595,-2.3595,-2.3595,-2.3595,-2.3595,-2.3595,-2.3595,-2.3595,-2.3595,-2.3595,-2.3921,-2.4471,-2.5136,-2.5357,-2.6052,-2.6547,-2.6683,-2.67,-2.641,-2.5997,-2.5606,-2.5297,-2.5144,-2.5144,-2.559,-2.6202,-2.6657,-2.6378,-2.5913,-2.5668,-2.5355,-2.4814,-2.4591,-2.4464,-2.4396,-2.4262,-2.4059,-2.4122,-2.3965,-2.3891,-2.4139,-2.4122,-2.3967,-2.3786,-2.3619,-2.3332,-2.3248,-2.32,-2.3387,-2.368,-2.3976,-2.4199,-2.4199,-2.4199,-2.4199,-2.4199,-2.4199,-2.4199,-2.4199,-2.4199,-2.4199,-2.4199,-2.4199,-2.4199,-2.4199,-2.4199,-2.4199,-2.4199,-2.4209,-2.4238,-2.4238,-2.4256,-2.4228,-2.4209,-2.4199,-2.4199,-2.4275,-2.4266,-2.4201,-2.3998,-2.3526,-2.2843,-2.19,-2.1496,-2.1118,-2.1109,-2.1283,-2.1895,-2.253,-2.3093,-2.3331,-2.3639,-2.363,-2.4082,-2.4447,-2.4534,-2.4716,-2.512,-2.5303,-2.5303,-2.5197,-2.4793,-2.4399,-2.0859,-2.0986,-2.2575,-2.2898,-2.23,-2.2146,-2.23,-2.2656,-2.2709,-2.292,-2.3246,-2.3501,-2.3595,-2.3595,-2.3595,-2.3595,-2.3595,-2.3595,-2.3595,-2.3595,-2.3595,-2.3595,-2.3956,-2.4552,-2.5221,-2.5403,-2.6167,-2.67,-2.67,-2.67,-2.6615,-2.6315,-2.59,-2.5494,-2.5381,-2.5577,-2.6096,-2.647,-2.67,-2.6497,-2.642,-2.6277,-2.6133,-2.5913,-2.5837,-2.5558,-2.5283,-2.5283,-2.4894,-2.4512,-2.4375,-2.4311,-2.4241,-2.4254,-2.4113,-2.3958,-2.3846,-2.3671,-2.3566,-2.3504,-2.3662,-2.3917,-2.4122,-2.4199,-2.4199,-2.4199,-2.4199,-2.4199,-2.4199,-2.4199,-2.4199,-2.4199,-2.4199,-2.4199,-2.4199,-2.4199,-2.4199,-2.4199,-2.4199,-2.4199,-2.4284,-2.4348,-2.433,-2.4312,-2.4266,-2.4219,-2.4209,-2.4228,-2.4303,-2.4291,-2.4223,-2.381,-2.3303,-2.251,-2.158,-2.0942,-2.0366,-2.0558,-2.077,-2.1421,-2.2096,-2.2029,-2.2293,-2.2726,-2.3341,-2.3812,-2.41,-2.412,-2.4447,-2.5072,-2.5293,-2.5303,-2.5149,-2.4976,-2.4707,-2.096,-2.1287,-2.2898,-2.3231,-2.2649,-2.22,-2.2253,-2.2656,-2.2709,-2.3016,-2.3595,-2.3595,-2.3595,-2.3595,-2.3595,-2.3595,-2.3595,-2.3595,-2.3595,-2.3595,-2.3595,-2.3595,-2.3948,-2.4544,-2.5229,-2.5449,-2.6131,-2.67,-2.67,-2.67,-2.6657,-2.6547,-2.6367,-2.5988,-2.5908,-2.5997,-2.6375,-2.6624,-2.67,-2.67,-2.6683,-2.6666,-2.6649,-2.659,-2.6547,-2.637,-2.5946,-2.5803,-2.5605,-2.5147,-2.4848,-2.4644,-2.4497,-2.4364,-2.4226,-2.4122,-2.4005,-2.3855,-2.3816,-2.3765,-2.3867,-2.4103,-2.417,-2.4199,-2.4199,-2.4199,-2.4199,-2.4199,-2.4199,-2.4199,-2.4199,-2.4199,-2.4199,-2.4199,-2.4199,-2.4199,-2.4199,-2.4199,-2.4199,-2.4209,-2.4312,-2.4436,-2.4418,-2.4383,-2.4312,-2.4256,-2.4209,-2.4256,-2.4375,-2.4338,-2.4201,-2.3669,-2.2966,-2.2098,-2.1193,-2.0671,-2.0282,-2.0712,-2.0916,-2.1082,-2.1463,-2.1459,-2.1629,-2.2177,-2.2822,-2.3494,-2.3975,-2.4303,-2.4716,-2.5178,-2.5264,-2.5303,-2.5274,-2.513,-2.5005,-2.1144,-2.1817,-2.3047,-2.3253,-2.2792,-2.2694,-2.2694,-2.2799,-2.2792,-2.3061,-2.3551,-2.3595,-2.3595,-2.3595,-2.3595,-2.3595,-2.3595,-2.3595,-2.3595,-2.3595,-2.3716,-2.363,-2.3998,-2.456,-2.5229,-2.5441,-2.6052,-2.659,-2.67,-2.67,-2.67,-2.67,-2.659,-2.6547,-2.6607,-2.6657,-2.67,-2.67,-2.67,-2.67,-2.67,-2.67,-2.67,-2.67,-2.67,-2.6564,-2.656,-2.6105,-2.601,-2.6071,-2.5243,-2.4992,-2.5038,-2.4601,-2.4346,-2.419,-2.417,-2.4151,-2.4161,-2.3858,-2.3937,-2.4151,-2.4199,-2.4199,-2.4199,-2.4199,-2.4199,-2.4199,-2.4199,-2.4199,-2.4199,-2.4199,-2.4199,-2.4199,-2.4199,-2.4199,-2.4199,-2.4199,-2.4199,-2.4256,-2.4393,-2.4502,-2.4502,-2.4478,-2.4357,-2.4284,-2.4228,-2.4284,-2.4436,-2.4454,-2.4324,-2.3831,-2.3117,-2.2289,-2.1453,-2.0539,-2.0238,-2.0706,-2.0929,-2.0956,-2.1221,-2.1477,-2.1658,-2.1822,-2.2591,-2.3514,-2.413,-2.4659,-2.4995,-2.5264,-2.5274,-2.5303,-2.5303,-2.5274,-2.5149,-2.0307,-2.1268,-2.2475,-2.3135,-2.326,-2.3282,-2.3275,-2.3282,-2.3282,-2.3421,-2.3559,-2.3595,-2.3595,-2.3595,-2.3595,-2.3595,-2.3595,-2.3595,-2.3595,-2.3638,-2.3914,-2.3829,-2.4074,-2.4592,-2.519,-2.5373,-2.5916,-2.6479,-2.67,-2.67,-2.67,-2.67,-2.67,-2.67,-2.67,-2.67,-2.67,-2.67,-2.67,-2.67,-2.67,-2.67,-2.67,-2.67,-2.67,-2.6825,-2.6995,-2.6499,-2.6504,-2.675,-2.5871,-2.5647,-2.5352,-2.4789,-2.4704,-2.4364,-2.4199,-2.4199,-2.419,-2.4065,-2.4075,-2.4161,-2.4199,-2.4199,-2.4199,-2.4199,-2.4199,-2.4199,-2.4199,-2.4199,-2.4199,-2.4199,-2.4199,-2.4199,-2.4199,-2.4199,-2.4199,-2.4199,-2.4209,-2.4321,-2.4445,-2.4607,-2.466,-2.4575,-2.4461,-2.4312,-2.4247,-2.4348,-2.4478,-2.457,-2.4521,-2.4116,-2.3497,-2.2651,-2.179,-2.0823,-2.0222,-2.046,-2.0562,-2.051,-2.0842,-2.1312,-2.1254,-2.1196,-2.2399,-2.3581,-2.4101,-2.4611,-2.5053,-2.5303,-2.5303,-2.5303,-2.5303,-2.5303,-2.5264,-1.9807,-2.0993,-2.221,-2.3034,-2.3542,-2.3595,-2.3595,-2.3551,-2.3428,-2.337,-2.3508,-2.3421,-2.3421,-2.3508,-2.3595,-2.3595,-2.3595,-2.3595,-2.3787,-2.3879,-2.4191,-2.4142,-2.4259,-2.4697,-2.5105,-2.5343,-2.5734,-2.6235,-2.67,-2.67,-2.67,-2.67,-2.67,-2.67,-2.67,-2.67,-2.67,-2.67,-2.67,-2.67,-2.67,-2.67,-2.67,-2.67,-2.6758,-2.6873,-2.7083,-2.7083,-2.6954,-2.6992,-2.6801,-2.6363,-2.5645,-2.5221,-2.5023,-2.4456,-2.4199,-2.4199,-2.419,-2.419,-2.4161,-2.419,-2.4199,-2.4199,-2.4199,-2.4199,-2.4199,-2.4199,-2.4199,-2.4199,-2.4199,-2.4199,-2.4199,-2.4199,-2.4199,-2.4199,-2.4199,-2.4199,-2.4209,-2.4321,-2.447,-2.4639,-2.4795,-2.4676,-2.4559,-2.4401,-2.4266,-2.4393,-2.4536,-2.4625,-2.4655,-2.4288,-2.3687,-2.2777,-2.1922,-2.1058,-2.0569,-2.0333,-2.0302,-2.0302,-2.0552,-2.0985,-2.0773,-2.0898,-2.2437,-2.3649,-2.4062,-2.4514,-2.5005,-2.5264,-2.5303,-2.5303,-2.5303,-2.5303,-2.5303,-1.9773,-2.0941,-2.2151,-2.2929,-2.3497,-2.3522,-2.3508,-2.3508,-2.2965,-2.3016,-2.3501,-2.2972,-2.3106,-2.3508,-2.3595,-2.3595,-2.363,-2.363,-2.3864,-2.4259,-2.4544,-2.4422,-2.4496,-2.4894,-2.5221,-2.5419,-2.5734,-2.6235,-2.6666,-2.67,-2.67,-2.6733,-2.6791,-2.6758,-2.6767,-2.6849,-2.6825,-2.6758,-2.67,-2.67,-2.67,-2.67,-2.67,-2.67,-2.6725,-2.6922,-2.7144,-2.7243,-2.7442,-2.7534,-2.7459,-2.6799,-2.6184,-2.5655,-2.5001,-2.4456,-2.4208,-2.4199,-2.4199,-2.4199,-2.4199,-2.4199,-2.4199,-2.4199,-2.4199,-2.4199,-2.4199,-2.4199,-2.4199,-2.4199,-2.4199,-2.4199,-2.4199,-2.4199,-2.4199,-2.4199,-2.4199,-2.4199,-2.4199,-2.4303,-2.447,-2.4632,-2.4809,-2.4766,-2.4639,-2.4461,-2.4348,-2.4444,-2.4575,-2.4716,-2.4691,-2.4492,-2.3784,-2.2832,-2.2033,-2.1456,-2.0792,-2.0514,-2.0331,-2.0321,-2.0552,-2.0696,-2.0677,-2.1206,-2.2745,-2.3793,-2.4418,-2.4755,-2.5024,-2.5197,-2.5293,-2.5303,-2.5303,-2.5303,-2.5303,-1.8865,-1.9733,-2.0844,-2.1926,-2.2879,-2.2966,-2.2965,-2.2927,-2.274,-2.2837,-2.2934,-2.2799,-2.3009,-2.3551,-2.3595,-2.3595,-2.3752,-2.3906,-2.3906,-2.4259,-2.4942,-2.4592,-2.4664,-2.5051,-2.5365,-2.5486,-2.5726,-2.6227,-2.659,-2.67,-2.67,-2.6733,-2.6971,-2.6939,-2.7036,-2.7272,-2.706,-2.6882,-2.6758,-2.6725,-2.67,-2.67,-2.67,-2.67,-2.67,-2.693,-2.7229,-2.7341,-2.7568,-2.7776,-2.7995,-2.757,-2.6561,-2.6272,-2.5777,-2.4382,-2.4199,-2.4199,-2.4199,-2.4199,-2.4199,-2.4199,-2.4199,-2.4199,-2.4199,-2.4199,-2.4199,-2.4199,-2.4199,-2.4199,-2.4199,-2.4199,-2.4199,-2.4199,-2.4199,-2.4199,-2.4199,-2.4199,-2.4209,-2.4321,-2.4487,-2.4697,-2.4869,-2.4832,-2.4685,-2.4512,-2.4453,-2.4519,-2.4623,-2.4746,-2.4869,-2.4685,-2.4024,-2.312,-2.2687,-2.2158,-2.1331,-2.0696,-2.0475,-2.0302,-2.0389,-2.0504,-2.061,-2.1273,-2.2418,-2.3735,-2.4957,-2.5062,-2.4803,-2.5168,-2.5303,-2.5303,-2.5303,-2.5303,-2.5303,-1.8303,-1.9182,-2.0037,-2.1116,-2.2166,-2.2301,-2.2209,-2.1993,-2.1934,-2.2175,-2.2663,-2.2399,-2.2756,-2.3501,-2.3595,-2.3595,-2.3645,-2.4116,-2.4348,-2.4776,-2.5449,-2.5097,-2.5059,-2.5251,-2.5486,-2.5569,-2.5762,-2.6262,-2.659,-2.6725,-2.6725,-2.6963,-2.7241,-2.7241,-2.7365,-2.7568,-2.747,-2.717,-2.693,-2.6841,-2.6758,-2.67,-2.67,-2.67,-2.67,-2.6987,-2.7443,-2.75,-2.7734,-2.8094,-2.8411,-2.7974,-2.6925,-2.6447,-2.6185,-2.5023,-2.482,-2.487,-2.4835,-2.4383,-2.4291,-2.4199,-2.4199,-2.4199,-2.4199,-2.4199,-2.4199,-2.4199,-2.4199,-2.4199,-2.4199,-2.4199,-2.4199,-2.4199,-2.4199,-2.4199,-2.4199,-2.4199,-2.4275,-2.4366,-2.4559,-2.4795,-2.4887,-2.4837,-2.477,-2.4607,-2.4512,-2.4478,-2.4607,-2.4784,-2.4994,-2.5051,-2.4313,-2.3495,-2.3072,-2.2399,-2.1341,-2.0591,-2.0427,-2.0302,-2.0302,-2.0504,-2.0783,-2.1216,-2.1793,-2.3312,-2.4947,-2.4582,-2.4389,-2.4861,-2.5303,-2.5303,-2.5303,-2.5303,-2.5313,-1.7928,-1.8955,-1.9596,-2.0491,-2.1499,-2.1541,-2.1271,-2.0759,-2.091,-2.1458,-2.236,-2.2046,-2.2553,-2.3457,-2.3595,-2.3595,-2.3837,-2.4266,-2.4552,-2.5144,-2.5807,-2.5606,-2.5251,-2.5689,-2.5799,-2.5681,-2.5799,-2.6367,-2.659,-2.6733,-2.6841,-2.7224,-2.7286,-2.7286,-2.7439,-2.7842,-2.7689,-2.7138,-2.7138,-2.717,-2.6816,-2.67,-2.67,-2.6716,-2.6824,-2.7057,-2.764,-2.7937,-2.8084,-2.8411,-2.8524,-2.816,-2.7193,-2.6416,-2.6128,-2.5909,-2.5576,-2.5505,-2.5344,-2.4891,-2.442,-2.4272,-2.4199,-2.4199,-2.4199,-2.4199,-2.4199,-2.4199,-2.4199,-2.4199,-2.4199,-2.4199,-2.4199,-2.4199,-2.4199,-2.4199,-2.4199,-2.4256,-2.4383,-2.4502,-2.4693,-2.4907,-2.5005,-2.4975,-2.4813,-2.47,-2.4519,-2.4426,-2.4617,-2.4799,-2.5006,-2.5224,-2.4466,-2.362,-2.2831,-2.2072,-2.1023,-2.0419,-2.0323,-2.0533,-2.0696,-2.086,-2.1023,-2.1879,-2.2822,-2.3581,-2.4591,-2.4332,-2.4408,-2.4976,-2.5303,-2.5303,-2.5303,-2.5303,-2.5331,-1.7461,-1.784,-1.8858,-1.9721,-2.0276,-2.0378,-2.0375,-2.0237,-2.0631,-2.1245,-2.1906,-2.2339,-2.286,-2.3501,-2.3595,-2.3595,-2.3752,-2.4422,-2.4479,-2.4934,-2.5672,-2.5754,-2.5158,-2.59,-2.6104,-2.6104,-2.6245,-2.6547,-2.6666,-2.6733,-2.6733,-2.6906,-2.7115,-2.7317,-2.7339,-2.7796,-2.7853,-2.7238,-2.7461,-2.7378,-2.6906,-2.6767,-2.67,-2.6815,-2.6944,-2.7212,-2.7668,-2.8057,-2.8233,-2.8467,-2.8797,-2.8255,-2.7182,-2.6764,-2.6371,-2.6102,-2.6208,-2.6128,-2.5915,-2.5398,-2.4705,-2.4318,-2.4199,-2.4199,-2.4199,-2.4199,-2.4199,-2.4199,-2.4199,-2.4199,-2.4199,-2.4199,-2.4199,-2.4199,-2.4199,-2.4199,-2.4209,-2.4339,-2.4486,-2.4657,-2.4831,-2.4971,-2.5086,-2.5037,-2.4874,-2.4648,-2.4383,-2.4321,-2.4617,-2.4828,-2.5006,-2.5067,-2.4486,-2.3678,-2.2822,-2.1831,-2.0831,-2.04,-2.0304,-2.0629,-2.11,-2.1706,-2.2283,-2.3235,-2.4139,-2.4457,-2.4495,-2.437,-2.4572,-2.5111,-2.5303,-2.5303,-2.5303,-2.5303,-2.5339,-1.7076,-1.7434,-1.8262,-1.8823,-1.91,-1.9184,-1.9496,-2.0039,-2.061,-2.1362,-2.2086,-2.2543,-2.3054,-2.3551,-2.3595,-2.3595,-2.3794,-2.4697,-2.4624,-2.4776,-2.5425,-2.5627,-2.5819,-2.6043,-2.6104,-2.6218,-2.6479,-2.67,-2.67,-2.6725,-2.6758,-2.6939,-2.721,-2.7339,-2.7383,-2.8048,-2.8103,-2.7554,-2.7927,-2.7707,-2.7147,-2.6971,-2.6873,-2.6961,-2.7158,-2.7417,-2.7838,-2.824,-2.8447,-2.8469,-2.8583,-2.8287,-2.762,-2.7351,-2.7139,-2.6889,-2.6804,-2.6762,-2.6583,-2.5847,-2.4871,-2.4393,-2.4218,-2.4218,-2.4199,-2.4199,-2.4199,-2.4199,-2.4199,-2.4199,-2.4199,-2.4199,-2.4199,-2.4199,-2.4199,-2.4199,-2.4256,-2.4357,-2.4536,-2.4736,-2.4891,-2.5044,-2.5099,-2.5077,-2.4913,-2.477,-2.4478,-2.4418,-2.4679,-2.4851,-2.5031,-2.4941,-2.438,-2.3716,-2.287,-2.1822,-2.0706,-2.0427,-2.0302,-2.1207,-2.1985,-2.2822,-2.363,-2.4235,-2.4534,-2.4428,-2.4428,-2.4476,-2.4687,-2.5149,-2.5264,-2.5303,-2.5303,-2.5313,-2.5364,-1.6873,-1.7429,-1.7834,-1.8085,-1.8213,-1.8209,-1.8783,-1.9728,-2.0468,-2.144,-2.2374,-2.2611,-2.3054,-2.3406,-2.3595,-2.3595,-2.3914,-2.4784,-2.4744,-2.4768,-2.5955,-2.5774,-2.5819,-2.6123,-2.6254,-2.6367,-2.6547,-2.6657,-2.67,-2.6725,-2.6841,-2.7178,-2.7348,-2.7533,-2.8075,-2.8307,-2.8112,-2.8075,-2.8175,-2.8165,-2.7727,-2.7264,-2.7232,-2.7295,-2.7461,-2.7767,-2.8183,-2.8496,-2.8682,-2.8549,-2.8369,-2.8058,-2.7903,-2.7722,-2.7539,-2.733,-2.7105,-2.7416,-2.7457,-2.5933,-2.4994,-2.4349,-2.4284,-2.4247,-2.4247,-2.4209,-2.4209,-2.4199,-2.4199,-2.4199,-2.4199,-2.4199,-2.4199,-2.4199,-2.4199,-2.4199,-2.4294,-2.4393,-2.4617,-2.4813,-2.4962,-2.5099,-2.5131,-2.5088,-2.4968,-2.4823,-2.4755,-2.4755,-2.479,-2.4887,-2.5027,-2.4788,-2.4313,-2.361,-2.2889,-2.1908,-2.0792,-2.0408,-2.0467,-2.1717,-2.2851,-2.3658,-2.4322,-2.4774,-2.4937,-2.4764,-2.4716,-2.4774,-2.5024,-2.5216,-2.5255,-2.5303,-2.5303,-2.5322,-2.5387,-1.7076,-1.794,-1.7585,-1.7713,-1.8072,-1.8162,-1.8361,-1.868,-1.9703,-2.0786,-2.1867,-2.2538,-2.3044,-2.3587,-2.3595,-2.3595,-2.3802,-2.4712,-2.443,-2.4142,-2.5811,-2.5774,-2.5774,-2.6245,-2.6547,-2.6624,-2.6624,-2.6666,-2.67,-2.6691,-2.6725,-2.6849,-2.6849,-2.7083,-2.7491,-2.7756,-2.8011,-2.8066,-2.8228,-2.821,-2.8029,-2.7745,-2.7745,-2.7851,-2.8066,-2.8228,-2.8446,-2.8716,-2.8896,-2.8767,-2.8289,-2.7912,-2.772,-2.7605,-2.7334,-2.7073,-2.6886,-2.7135,-2.6744,-2.5837,-2.4949,-2.4667,-2.4584,-2.441,-2.4357,-2.4238,-2.4238,-2.419,-2.4199,-2.4199,-2.4199,-2.4199,-2.4199,-2.4199,-2.4199,-2.4199,-2.4247,-2.4478,-2.4706,-2.4865,-2.5022,-2.5139,-2.5244,-2.5152,-2.5001,-2.4894,-2.4842,-2.4818,-2.4854,-2.4937,-2.5032,-2.4721,-2.436,-2.3629,-2.2928,-2.2062,-2.111,-2.0658,-2.0562,-2.1573,-2.2822,-2.4389,-2.5005,-2.4947,-2.513,-2.5139,-2.512,-2.5024,-2.513,-2.5264,-2.5274,-2.5303,-2.5303,-2.5322,-2.5379]},{"header":{"parameterUnit":"m.s-1","parameterCategory":1,"la1":31.0,"la2":29.5877,"lo1":-88.7671,"lo2":-86.6584,"dy":0.0162,"dx":0.0185,"nx":115,"ny":88,"refTime":"2025-12-10T00:00:00:Z","depth":0,"parameterNumber":3,"parameterNumberName":"V-component_of_WINDS"},"data":[0.0,0.0,0.0,0.0,0.0,0.0,0.0,0.0,0.0,0.0,0.0,0.0,0.0,0.0,0.0,0.0,0.0,0.0,0.0,0.0,0.0,0.0,0.0,0.0,0.0,0.0,0.0,0.0,0.0,0.0,0.0,0.0,0.0,0.0,0.0,0.0,0.0,0.0,0.0,0.0,0.0,0.0,0.0,0.0,0.0,0.0,0.0,0.0,0.0,0.0,0.0,0.0,0.0,0.0,0.0,0.0,0.0,0.0,0.0,0.0,0.0,0.0,0.0,0.0,0.0,0.0,0.0,0.0,0.0,0.0,0.0,0.0,0.0,0.0,0.0,0.0,0.0,0.0,0.0,0.0,0.0,0.0,0.0,0.0,0.0,0.0,0.0,0.0,0.0,0.0,0.0,0.0,0.0,0.0,0.0,0.0,0.0,0.0,0.0,0.0,0.0,0.0,0.0,0.0,0.0,0.0,0.0,0.0,0.0,0.0,0.0,0.0,0.0,0.0,0.0,0.0,0.0,0.0,0.0,0.0,0.0,0.0,0.0,0.0,0.0,0.0,0.0,0.0,0.0,0.0,0.0,0.0,0.0,0.0,0.0,0.0,0.0,0.0,0.0,0.0,0.0,0.0,0.0,0.0,0.0,0.0,0.0,0.0,0.0,0.0,0.0,0.0,0.0,0.0,0.0,0.0,0.0,0.0,0.0,0.0,0.0,0.0,0.0,0.0,0.0,0.0,0.0,0.0,0.0,0.0,0.0,0.0,0.0,0.0,0.0,0.0,0.0,0.0,0.0,0.0,0.0,0.0,0.0,0.0,0.0,0.0,0.0,0.0,0.0,0.0,0.0,0.0,0.0,0.0,0.0,0.0,0.0,0.0,0.0,0.0,0.0,0.0,0.0,0.0,0.0,0.0,0.0,0.0,0.0,0.0,0.0,0.0,0.0,0.0,0.0,0.0,0.0,0.0,0.0,0.0,0.0,0.0,0.0,0.0,0.0,0.0,0.0,0.0,0.0,0.0,0.0,0.0,0.0,0.0,0.0,0.0,0.0,0.0,0.0,0.0,0.0,0.0,0.0,0.0,0.0,0.0,0.0,0.0,0.0,0.0,0.0,0.0,0.0,0.0,0.0,0.0,0.0,0.0,0.0,0.0,0.0,0.0,0.0,0.0,0.0,0.0,0.0,0.0,0.0,0.0,0.0,0.0,0.0,0.0,0.0,0.0,0.0,0.0,0.0,0.0,0.0,0.0,0.0,0.0,0.0,0.0,0.0,0.0,0.0,0.0,0.0,0.0,0.0,0.0,0.0,0.0,0.0,0.0,0.0,0.0,0.0,0.0,0.0,0.0,0.0,0.0,0.0,0.0,0.0,0.0,0.0,0.0,0.0,0.0,0.0,0.0,0.0,0.0,0.0,0.0,0.0,0.0,0.0,0.0,0.0,0.0,0.0,0.0,0.0,0.0,0.0,0.0,0.0,0.0,0.0,0.0,0.0,0.0,0.0,0.0,0.0,0.0,0.0,0.0,0.0,0.0,0.0,0.0,0.0,0.0,0.0,0.0,0.0,0.0,0.0,0.0,0.0,0.0,0.0,0.0,0.0,0.0,0.0,0.0,0.0,0.0,0.0,0.0,0.0,0.0,0.0,0.0,0.0,0.0,0.0,0.0,0.0,0.0,0.0,0.0,0.0,0.0,0.0,0.0,0.0,0.0,0.0,0.0,0.0,0.0,0.0,0.0,0.0,0.0,0.0,0.0,0.0,0.0,0.0,0.0,0.0,0.0,0.0,0.0,0.0,0.0,0.0,0.0,0.0,0.0,0.0,0.0,0.0,0.0,0.0,0.0,0.0,0.0,0.0,0.0,0.0,0.0,0.0,0.0,0.0,0.0,0.0,0.0,0.0,0.0,0.0,0.0,0.0,0.0,0.0,0.0,0.0,0.0,0.0,0.0,0.0,0.0,0.0,0.0,0.0,0.0,0.0,0.0,0.0,0.0,0.0,0.0,0.0,0.0,0.0,0.0,0.0,0.0,0.0,0.0,0.0,0.0,0.0,0.0,0.0,0.0,0.0,0.0,0.0,0.0,0.0,0.0,0.0,0.0,0.0,0.0,0.0,0.0,0.0,0.0,0.0,0.0,0.0,0.0,0.0,0.0,0.0,0.0,0.0,0.0,0.0,0.0,0.0,0.0,0.0,0.0,0.0,0.0,0.0,0.0,0.0,0.0,0.0,0.0,0.0,0.0,0.0,0.0,0.0,0.0,0.0,0.0,0.0,0.0,0.0,0.0,0.0,0.0,0.0,0.0,0.0,0.0,0.0,0.0,0.0,0.0,0.0,0.0,0.0,0.0,0.0,0.0,0.0,0.0,0.0,0.0,0.0,0.0,0.0,0.0,0.0,0.0,0.0,0.0,0.0,0.0,0.0,0.0,0.0,0.0,0.0,0.0,0.0,0.0,0.0,0.0,0.0,0.0,0.0,0.0,0.0,0.0,0.0,0.0,0.0,0.0,0.0,0.0,0.0,0.0,0.0,0.0,0.0,0.0,0.0,0.0,0.0,0.0,0.0,0.0,0.0,0.0,0.0,0.0,0.0,0.0,0.0,0.0,0.0,0.0,0.0,0.0,0.0,0.0,0.0,0.0,0.0,0.0,0.0,0.0,0.0,0.0,0.0,0.0,0.0,0.0,0.0,0.0,0.0,0.0,0.0,0.0,0.0,0.0,0.0,0.0,0.0,0.0,0.0,0.0,0.0,0.0,0.0,0.0,0.0,0.0,0.0,0.0,0.0,0.0,0.0,0.0,0.0,0.0,0.0,0.0,0.0,0.0,0.0,0.0,0.0,0.0,0.0,0.0,0.0,0.0,0.0,0.0,0.0,0.0,0.0,0.0,0.0,0.0,0.0,0.0,0.0,0.0,0.0,0.0,0.0,0.0,0.0,0.0,0.0,0.0,0.0,0.0,0.0,0.0,0.0,0.0,0.0,0.0,0.0,0.0,0.0,0.0,0.0,0.0,0.0,0.0,0.0,0.0,0.0,0.0,0.0,0.0,0.0,0.0,0.0,0.0,0.0,0.0,0.0,0.0,0.0,0.0,0.0,0.0,0.0,0.0,0.0,0.0,0.0,0.0,0.0,0.0,0.0,0.0,0.0,0.0,0.0,0.0,0.0,0.0,0.0,0.0,0.0,0.0,0.0,0.0,0.0,0.0,0.0,0.0,0.0,0.0,0.0,0.0,0.0,0.0,0.0,0.0,0.0,0.0,0.0,0.0,0.0,0.0,0.0,0.0,0.0,0.0,0.0,0.0,0.0,0.0,0.0,0.0,0.0,0.0,0.0,0.0,0.0,0.0,0.0,0.0,0.0,0.0,0.0,0.0,0.0,0.0,0.0,0.0,0.0,0.0,0.0,0.0,0.0,0.0,0.0,0.0,0.0,0.0,0.0,0.0,0.0,0.0,0.0,0.0,0.0,0.0,0.0,0.0,0.0,0.0,0.0,0.0,0.0,0.0,0.0,0.0,0.0,0.0,0.0,0.0,0.0,0.0,0.0,0.0,0.0,0.0,0.0,0.0,0.0,0.0,0.0,0.0,0.0,0.0,0.0,0.0,0.0,0.0,0.0,0.0,0.0,0.0,0.0,0.0,0.0,0.0,0.0,0.0,0.0,0.0,0.0,0.0,0.0,0.0,0.0,0.0,0.0,0.0,0.0,0.0,0.0,0.0,0.0,0.0,0.0,0.0,0.0,0.0,0.0,0.0,0.0,0.0,0.0,0.0,0.0,0.0,0.0,0.0,0.0,0.0,0.0,0.0,0.0,0.0,0.0,0.0,0.0,0.0,0.0,0.0,0.0,0.0,0.0,0.0,0.0,0.0,0.0,0.0,0.0,0.0,0.0,0.0,0.0,0.0,0.0,0.0,0.0,0.0,0.0,0.0,0.0,0.0,0.0,0.0,0.0,0.0,0.0,0.0,0.0,0.0,0.0,0.0,0.0,0.0,0.0,0.0,0.0,0.0,0.0,0.0,0.0,0.0,0.0,0.0,0.0,0.0,0.0,0.0,0.0,0.0,0.0,0.0,0.0,0.0,0.0,0.0,0.0,0.0,0.0,0.0,0.0,0.0,0.0,0.0,0.0,0.0,0.0,0.0,0.0,0.0,0.0,0.0,0.0,0.0,0.0,0.0,0.0,0.0,0.0,0.0,0.0,0.0,0.0,0.0,0.0,0.0,0.0,0.0,0.0,0.0,0.0,0.0,0.0,0.0,0.0,0.0,0.0,0.0,0.4029,0.0,0.0,0.0,0.0,0.0,0.0,0.0,0.0,0.0,0.0,0.0,0.0,0.0,0.0,0.0,0.0,0.0,0.0,0.0,0.0,0.0,0.0,0.0,0.0,0.0,0.0,0.0,0.0,0.0,0.0,0.0,0.0,0.0,0.0,0.0,0.0,0.0,0.0,0.0,0.0,0.0,0.0,0.0,0.0,0.0,0.0,0.0,0.0,0.0,0.0,0.0,0.0,0.0,0.0,0.0,0.0,0.0,0.0,0.0,0.0,0.0,0.0,0.0,0.0,0.0,0.0,0.0,0.0,0.0,0.0,0.0,0.0,0.0,0.0,0.0,0.0,0.0,0.0,0.0,0.0,0.0,0.0,0.0,0.0,0.0,0.0,0.0,0.0,0.0,0.0,0.0,0.0,0.0,0.0,0.0,0.0,0.0,0.0,0.0,0.0,0.0,0.0,0.0,0.0,0.0,0.0,0.0,0.0,0.0,0.0,-0.0096,0.2062,0.2456,0.3107,0.4041,0.0,0.0,0.0,0.0,0.0,0.0,0.0,0.0,0.0,0.0,0.0,0.0,0.0,0.0,0.0,0.0,0.0,0.0,0.0,0.0,0.0,0.0,0.0,0.0,0.0,0.0,0.0,0.0,0.0,0.0,0.0,0.0,0.0,0.0,0.0,0.0,0.0,0.0,0.0,0.0,0.0,0.0,0.0,0.0,0.0,0.0,0.0,0.0,0.0,0.0,0.0,0.0,0.0,0.0,0.0,0.0,0.0,0.0,0.0,0.0,0.0,0.0,0.0,0.0,0.0,0.0,0.0,0.0,0.0,0.0,0.0,0.0,0.0,0.0,0.0,0.0,0.0,0.0,0.0,0.0,0.0,0.0,0.0,0.0,0.0,0.0,0.0,0.0,0.0,0.0,0.0,0.0,0.0,0.0,0.0,0.0,0.0,0.0,0.0,0.0,0.0,0.0,0.0,0.0,0.0,0.0,0.0,0.0,0.0,0.0,0.0,0.0,0.2906,0.3539,0.4314,0.0,0.0,0.0,0.0,0.0,0.0,0.0,0.0,0.0,0.0,0.0,0.0,0.0,0.0,0.0,0.0,0.0,0.0,0.0,0.0,0.0,0.0,0.0,0.0,0.0,0.0,0.0,0.0,0.0,0.0,0.0,0.0,0.0,0.0,0.0,0.0,0.0,0.0,0.0,0.0,0.0,0.0,0.0,0.0,0.0,0.0,0.0,0.0,0.0,0.0,0.0,0.0,0.0,0.0,0.0,0.0,0.0,0.0,0.0,0.0,0.0,0.0,0.0,0.0,0.0,0.0,0.0,0.0,0.0,0.0,0.0,0.0,0.0,0.0,0.0,0.0,0.0,0.0,0.0,0.0,0.0,0.0,0.0,0.0,0.0,0.0,0.0,0.0,0.0,0.0,0.0,0.0,0.0,0.0,0.0,0.0,0.0,0.0,0.0,0.0,0.0,0.0,0.0,0.0,0.0,0.0,0.0,0.0,0.0,0.0,0.0879,0.2027,0.4123,0.0,0.5419,0.0,0.0,0.0,0.0,0.0,0.0,0.0,0.0,0.0,0.0,0.0,0.0,0.0,0.0,0.0,0.0,0.0,0.0,0.0,0.0,0.0,0.0,0.0,0.0,0.0,0.0,0.0,0.0,0.0,0.0,0.0,0.0,0.0,0.0,0.0,0.0,0.0,0.0,0.0,0.0,0.0,0.0,0.0,0.0,0.0,0.0,0.0,0.0,0.0,0.0,0.0,0.0,0.0,0.0,0.0,0.0,0.0,0.0,0.0,0.0,0.0,0.0,0.0,0.0,0.0,0.0,0.0,0.0,0.0,0.0,0.0,0.0,0.0,0.0,0.0,0.0,0.0,0.0,0.0,0.0,0.0,0.0,0.0,0.0,0.0,0.0,0.0,0.0,0.0,0.0,0.0,0.0,0.0,0.0,0.0,0.0,0.0,0.0,0.0,0.0,0.0,0.0,0.0,0.0,0.0,0.0,0.0,0.0,0.0,0.0,0.1719,0.3785,0.5036,0.5803,0.0,0.0,0.0,0.0,0.0,0.0,0.0,0.0,0.0,0.0,0.0,0.0,0.0,0.0,0.0,0.0,0.0,0.0,0.0,0.0,0.0,0.0,0.0,0.0,0.0,0.0,0.0,0.0,0.0,0.0,0.0,0.0,0.0,0.0,0.0,0.0,0.0,0.0,0.0,0.0,0.0,0.0,0.0,0.0,0.0,0.0,0.0,0.0,0.0,0.0,0.0,0.0,0.0,0.0,0.0,0.0,0.0,0.0,0.0,0.0,0.0,0.0,0.0,0.0,0.0,0.0,0.0,0.0,0.0,0.0,0.0,0.0,0.0,0.0,0.0,0.0,0.0,0.0,0.0,0.0,0.0,0.0,0.0,0.0,0.0,0.0,0.0,0.0,0.0,0.0,0.0,0.0,0.0,0.0,0.0,0.0,0.0,0.0,0.0,0.0,0.0,0.0,0.0,0.0,0.0,0.0,0.0,0.0,0.0,0.0,0.0548,0.2556,0.5491,0.5983,0.6177,0.6238,0.0,0.0,0.0,0.0,0.0,0.0,0.0,0.0,0.0,0.0,0.0,0.0,0.0,0.0,0.0,0.0,0.0,0.0,0.0,0.0,0.0,0.0,0.0,0.0,0.0,0.0,0.0,0.0,0.0,0.0,0.0,0.0,0.0,0.0,0.0,0.0,0.0,0.0,0.0,0.0,0.0,0.0,0.0,0.0,0.0,0.0,0.0,0.0,0.0,0.0,0.0,0.0,0.0,0.0,0.0,0.0,0.0,0.0,0.0,0.0,0.0,0.0,0.0,0.0,0.0,0.0,0.0,0.0,0.0,0.0,0.0,0.0,0.0,0.0,0.0,0.0,0.0,0.0,0.0,0.0,0.0,0.0,0.0,0.0,0.0,0.0,0.0,0.0,0.0,0.0,0.0,0.0,0.0,0.0,0.0,0.0,0.0,0.0,0.0,0.0,0.0,0.0,0.0,0.0,0.0,0.0,0.0,0.0,0.0291,0.1194,0.335,0.6976,0.7063,0.6661,0.0,0.0,0.0,0.0,0.0,0.0,0.0,0.0,0.0,0.0,0.0,0.0,0.0,0.0,0.0,0.0,0.0,0.0,0.0,0.0,0.0,0.0,0.0,0.0,0.0,0.0,0.0,0.0,0.0,0.0,0.0,0.0,0.0,0.0,0.0,0.0,0.0,0.0,0.0,0.0,0.0,0.0,0.0,0.0,0.0,0.0,0.0,0.0,0.0,0.0,0.0,0.0,0.0,0.0,0.0,0.0,0.0,0.0,0.0,0.0,0.0,0.0,0.0,0.0,0.0,0.0,0.0,0.0,0.0,0.0,0.0,0.0,0.0,0.0,0.0,0.0,0.0,0.0,0.0,0.0,0.0,0.0,0.0,0.0,0.0,0.0,0.0,0.0,0.0,0.0,0.0,0.0,0.0,0.0,0.0,0.0,0.0,0.0,0.0,0.0,0.0,0.0,0.0,0.0,0.0,0.0,0.0,0.0,0.0,-0.0433,0.2402,0.5306,0.8112,0.7187,0.667,0.0,0.0,0.0,0.0,0.0,0.0,0.0,0.0,0.0,0.0,0.0,0.0,0.0,0.0,0.0,0.0,0.0,0.0,0.0,0.0,0.0,0.0,0.0,0.0,0.0,0.0,0.0,0.0,0.0,0.0,0.0,0.0,0.0,0.0,0.0,0.0,0.0,0.0,0.0,0.0,0.0,0.0,0.0,0.0,0.0,0.0,0.0,0.0,0.0,0.0,0.0,0.0,0.0,0.0,0.0,0.0,0.0,0.0,0.0,0.0,0.0,0.0,0.0,0.0,0.0,0.0,0.0,0.0,0.0,0.0,0.0,0.0,0.0,0.0,0.0,0.0,0.0,0.0,0.0,0.0,0.0,0.0,0.0,0.0,0.0,0.0,0.0,0.0,0.0,0.0,0.0,0.0,0.0,0.0,0.0,0.0,0.0,0.0,0.0,0.0,0.0,0.0,0.0,0.0,0.0,0.0,0.0,0.0,0.0,0.0343,0.0,0.6172,0.8169,0.7235,0.6646,0.0,0.0,0.0,0.0,0.0,0.0,0.0,0.0,0.0,0.0,0.0,0.0,0.0,0.0,0.0,0.0,0.0,0.0,0.0,0.0,0.0,0.0,0.0,0.0,0.0,0.0,0.0,0.0,0.0,0.0,0.0,0.0,0.0,0.0,0.0,0.0,0.0,0.0,0.0,0.0,0.0,0.0,0.0,0.0,0.0,0.0,0.0,0.0,0.0,0.0,0.0,0.0,0.0,0.0,0.0,0.0,0.0,0.0,0.0,0.0,0.0,0.0,0.0,0.0,0.0,0.0,0.0,0.0,0.0,0.0,0.0,0.0,0.0,0.0,0.0,0.0,0.0,0.0,0.0,0.0,0.0,0.0,0.0,0.0,0.0,0.0,0.0,0.0,0.0,0.0,0.0,0.0,0.0,0.0,0.0,0.0,0.0,0.0,0.0,0.0,0.0,0.0,0.0,0.0,0.0,0.0,0.0,0.0,-0.1721,0.2837,0.4286,0.5676,0.7062,0.7285,0.661,0.0,0.0,0.0,0.0,0.0,0.0,0.0,0.0,0.0,0.0,0.0,0.0,0.0,0.0,0.0,0.0,0.0,0.0,0.0,0.0,0.0,0.0,0.0,0.0,0.0,0.0,0.0,0.0,0.0,0.0,0.0,0.0,0.0,0.0,0.0,0.0,0.0,0.0,0.0,0.0,0.0,0.0,0.0,0.0,0.0,0.0,0.0,0.0,0.0,0.0,0.0,0.0,0.0,0.0,0.0,0.0,0.0,0.0,0.0,0.0,0.0,0.0,0.0,0.0,0.0,0.0,0.0,0.0,0.0,0.0,0.0,0.0,0.0,0.0,0.0,0.0,0.0,0.0,0.0,0.0,0.0,0.0,0.0,0.0,0.0,0.0,0.0,0.0,0.0,0.0,0.0,0.0,0.0,0.0,0.0,0.0,0.0,0.0,0.0,0.0,0.0,0.0,0.0,0.0,0.0,0.0,0.0,0.0,0.0,0.1956,0.2499,0.4495,0.8092,0.7231,0.663,0.0,0.0,0.0,0.0,0.0,0.0,0.0,0.0,0.0,0.0,0.0,0.0,0.0,0.0,0.0,0.0,0.0,0.0,0.0,0.0,0.0,0.0,0.0,0.0,0.0,0.0,0.0,0.0,0.0,0.0,0.0,0.0,0.0,0.0,0.0,0.0,0.0,0.0,0.0,0.0,0.0,0.0,0.0,0.0,0.0,0.0,0.0,0.0,0.0,0.0,0.0,0.0,0.0,0.0,0.0,0.0,0.0,0.0,0.0,0.0,0.0,0.0,0.0,0.0,0.0,0.0,0.0,0.0,0.0,0.0,0.0,0.0,0.0,0.0,0.0,0.0,0.0,0.0,0.0,0.0,0.0,0.0,0.0,0.0,0.0,0.0,0.0,0.0,0.0,0.0,0.0,0.0,0.0,0.0,0.0,0.0,0.0,0.0,0.0,0.0,0.0,0.0,0.0,0.0,0.0,0.0,0.0,0.0,0.0,-0.0154,0.0975,0.3444,0.7617,0.7244,0.7099,0.7291,0.0,0.0,0.0,0.0,0.0,0.0,0.0,0.0,0.0,0.0,0.0,0.0,0.0,0.0,0.0,0.0,0.0,0.0,0.0,0.0,0.0,0.0,0.0,0.0,0.0,0.0,0.0,0.0,0.0,0.0,0.0,0.0,0.0,0.0,0.0,0.0,0.0,0.0,0.0,0.0,0.0,0.0,0.0,0.0,0.0,0.0,0.0,0.0,0.0,0.0,0.0,0.0,0.0,0.0,0.0,0.0,0.0,0.0,0.0,0.0,0.0,0.0,0.0,0.0,0.0,0.0,0.0,0.0,0.0,0.0,0.0,0.0,0.0,0.0,0.0,0.0,0.0,0.0,0.0,0.0,0.0,0.0,0.0,0.0,0.0,0.0,0.0,0.0,0.0,0.0,0.0,0.0,0.0,0.0,0.0,0.0,0.0,0.0,0.0,0.0,0.0,0.0,0.0,0.0,0.0,0.0,0.0,0.0,-0.2913,-0.0332,0.249,0.5633,0.73,0.788,0.0,0.0,0.0,0.0,0.0,0.0,0.0,0.0,0.0,0.0,0.0,0.0,0.0,0.0,0.0,0.0,0.0,0.0,0.0,0.0,0.0,0.0,0.0,0.0,0.0,0.0,0.0,0.0,0.0,0.0,0.0,0.0,0.0,0.0,0.0,0.0,0.0,0.0,0.0,0.0,0.0,0.0,0.0,0.0,0.0,0.0,0.0,0.0,0.0,0.0,0.0,0.0,0.0,0.0,0.0,0.0,0.0,0.0,0.0,0.0,0.0,0.0,0.0,0.0,0.0,0.0,0.0,0.0,0.0,0.0,0.0,0.0,0.0,0.0,0.0,0.0,0.0,0.0,0.0,0.0,0.0,0.0,0.0,0.0,0.0,0.0,0.0,0.0,0.0,0.0,0.0,0.0,0.0,0.0,0.0,0.0,0.0,0.0,0.0,0.0,0.0,0.0,0.0,0.0,0.0,0.0,0.0,0.0,0.0,-0.4762,-0.2575,0.0767,0.5299,0.7064,0.7964,0.0,0.0,0.0,0.0,0.0,0.0,0.0,0.0,0.0,0.0,0.0,0.0,0.0,0.0,0.0,0.0,0.0,0.0,0.0,0.0,0.0,0.0,0.0,0.0,0.0,0.0,0.0,0.0,0.0,0.0,0.0,0.0,0.0,0.0,0.0,0.0,0.0,0.0,0.0,0.0,0.0,0.0,0.0,0.0,0.0,0.0,0.0,0.0,0.0,0.0,0.0,0.0,0.0,0.0,0.0,0.0,0.0,0.0,0.0,0.0,0.0,0.0,0.0,0.0,0.0,0.0,0.0,0.0,0.0,0.0,0.0,0.0,0.0,0.0,0.0,0.0,0.0,0.0,0.0,0.0,0.0,0.0,0.0,0.0,0.0,0.0,0.0,0.0,0.0,0.0,0.0,0.0,0.0,0.0,0.0,0.0,0.0,0.0,0.0,0.0,0.0,0.0,0.0,0.0,0.0,0.0,0.0,0.0,-0.8345,-0.6514,-0.4143,-0.1097,0.2656,0.5745,0.7838,0.0,0.0,0.0,0.0,0.0,0.0,0.0,0.0,0.0,0.0,0.0,0.0,0.0,0.0,0.0,0.0,0.0,0.0,0.0,0.0,0.0,0.0,0.0,0.0,0.0,0.0,0.0,0.0,0.0,0.0,0.0,0.0,0.0,0.0,0.0,0.0,0.0,0.0,0.0,0.0,0.0,0.0,0.0,0.0,0.0,0.0,0.0,0.0,0.0,0.0,0.0,0.0,0.0,0.0,0.0,0.0,0.0,0.0,0.0,0.0,0.0,0.0,0.0,0.0,0.0,0.0,0.0,0.0,0.0,0.0,0.0,0.0,0.0,0.0,0.0,0.0,0.0,0.0,0.0,0.0,0.0,0.0,0.0,0.0,0.0,0.0,0.0,0.0,0.0,0.0,0.0,0.0,0.0,0.0,0.0,0.0,0.0,0.0,0.0,0.0,0.0,0.0,0.0,0.0,0.0,0.0,0.0,0.0,-0.8929,-0.7991,-0.5229,-0.2826,-0.0815,0.396,0.7454,0.0,0.0,0.0,0.0,0.0,0.0,0.0,0.0,0.0,0.0,0.0,0.0,0.0,0.0,0.0,0.0,0.0,0.0,0.0,0.0,0.0,0.0,0.0,0.0,0.0,0.0,0.0,0.0,0.0,0.0,0.0,0.0,0.0,0.0,0.0,0.0,0.0,0.0,0.0,0.0,0.0,0.0,0.0,0.0,0.0,0.0,0.0,0.0,0.0,0.0,0.0,0.0,0.0,0.0,0.0,0.0,0.0,0.0,0.0,0.0,0.0,0.0,0.0,0.0,0.0,0.0,0.0,0.0,0.0,0.0,0.0,0.0,0.0,0.0,0.0,0.0,0.0,0.0,0.0,0.0,0.0,0.0,0.0,0.0,0.0,0.0,0.0,0.0,0.0,0.0,0.0,0.0,0.0,0.0,0.0,0.0,0.0,0.0,0.0,0.0,0.0,0.0,0.0,0.0,0.0,0.0,0.0,0.0,-0.8699,-0.792,-0.5862,-0.3428,-0.0646,0.3437,0.6414,0.0,0.0,0.0,0.0,0.0,0.0,0.0,0.0,0.0,0.0,0.0,0.0,0.0,0.0,0.0,0.0,0.0,0.0,0.0,0.0,0.0,0.0,0.0,0.0,0.0,0.0,0.0,0.0,0.0,0.0,0.0,0.0,0.0,0.0,0.0,0.0,0.0,0.0,0.0,0.0,0.0,0.0,0.0,0.0,0.0,0.0,0.0,0.0,0.3657,0.0,0.0,0.0,0.0,0.0,0.0,0.0,0.0,0.0,0.0,0.0,0.0,0.0,0.0,0.0,0.0,0.0,0.0,0.0,0.0,0.0,0.0,0.0,0.0,0.0,0.0,0.0,0.0,0.0,0.0,0.0,0.0,0.0,0.0,0.0,0.0,0.0,0.0,0.0,0.0,0.0,0.0,0.0,0.0,0.0,0.0,0.0,0.0,0.0,0.0,0.0,0.0,0.0,0.0,0.0,0.0,0.0,0.0,0.0,-0.9135,-0.8301,-0.6571,-0.4304,-0.1443,0.2004,0.5073,0.0,0.0,0.0,0.0,0.0,0.0,0.0,0.0,0.0,0.0,0.0,0.0,0.0,0.0,0.0,0.0,0.0,0.0,0.0,0.0,0.0,0.0,0.0,0.0,0.0,0.0,0.0,0.0,0.0,0.0,0.0,0.0,0.0,0.0,0.0,0.0,0.0,0.0,0.0,0.0,0.0,0.0,0.0,0.0,0.0,0.0,0.0,0.0,0.0,0.0,0.0,0.0,0.0,0.0,0.0,0.0,0.0,0.0,0.0,0.0,0.0,0.0,0.0,0.0,0.0,0.0,0.0,0.0,0.0,0.0,0.0,0.0,0.0,0.0,0.0,0.0,0.0,0.0,0.0,0.0,0.0,0.0,0.0,0.0,0.0,0.0,0.0,0.0,0.0,0.0,0.0,0.0,0.0,0.0,0.0,0.0,0.0,0.0,0.0,0.0,0.0,0.0,0.0,0.0,0.0,0.0,0.0,-0.9798,-0.9645,-0.8793,-0.7158,-0.512,-0.2604,0.0538,0.3857,0.7254,0.0,0.0,0.0,0.0,0.0,0.0,0.0,0.0,0.0,0.0,0.0,0.0,0.0,0.0,0.0,0.0,0.0,0.0,0.0,0.0,0.0,0.0,0.0,0.0,0.0,0.0,0.0,0.0,0.0,0.0,0.0,0.0,0.0,0.0,0.0,0.0,0.0,0.0,0.2051,0.3396,0.0,0.0,0.0,0.0,0.0,0.0,0.0,0.0,0.5,0.0,0.0,0.0,0.0,0.0,0.0,0.0,0.0,0.0,0.0,0.0,0.0,0.0,0.0,0.0,0.0,0.0,0.0,0.0,0.0,0.0,0.0,0.0,0.0,0.0,0.0,0.0,0.0,0.0,0.0,0.0,0.0,0.0,0.0,0.0,0.0,0.0,0.0,0.0,0.0,0.0,0.0,0.0,0.0,0.0,0.0,0.0,0.0,0.0,0.0,0.0,0.0,0.0,0.0,0.0,0.0,-0.9302,-0.9666,-0.954,-0.8877,-0.7191,-0.5345,-0.3301,0.0314,0.3485,0.5949,0.0,0.0,0.0,0.0,0.0,0.0,0.0,0.0,0.0,0.0,0.0,0.0,0.0,0.0,0.0,0.0,0.0,0.0,0.0,0.0,0.0,0.0,0.0,0.0,0.0,0.0,0.0,0.0,0.0,0.0,0.0,0.0,0.0,0.0,0.0,0.0,0.0,0.0,0.0,0.3954,0.4758,0.0,0.0,0.0,0.0,0.0,0.0,0.0,0.0,0.4555,0.0,0.0,0.0,0.0,0.0,0.0,0.0,0.0,0.0,0.0,0.0,0.0,0.0,0.0,0.0,0.0,0.0,0.0,0.0,0.0,0.0,0.0,0.0,0.0,0.0,0.0,0.0,0.0,0.0,0.0,0.0,0.0,0.0,0.0,0.0,0.0,0.0,0.0,0.0,0.0,0.0,0.0,0.0,0.0,0.0,0.0,0.0,0.0,0.0,0.0,0.0,0.0,0.0,0.0,0.0,-0.9874,-1.0161,-1.0109,-0.9681,-0.7829,-0.5698,-0.3359,0.0492,0.372,0.0,0.0,0.0,0.0,0.0,0.0,0.0,0.0,0.0,0.0,0.0,0.0,0.0,0.0,0.0,0.0,0.0,0.0,0.0,0.0,0.0,0.0,0.0,0.0,0.0,0.0,0.0,0.0,0.0,0.0,0.0,0.0,0.0,0.0,0.0,0.0,0.0,0.0,0.0,0.0,0.3463,0.4179,0.4757,0.0,0.0,0.0,0.0,0.0,0.0,0.5662,0.5755,0.0,0.0,0.0,0.0,0.0,0.0,0.0,0.0,0.0,0.0,0.0,0.0,0.0,0.0,0.0,0.0,0.0,0.0,0.0,0.0,0.0,0.0,0.0,0.0,0.0,0.0,0.0,0.0,0.0,0.0,0.0,0.0,0.0,0.0,0.0,0.0,0.0,0.0,0.0,0.0,0.0,0.0,0.0,0.0,0.0,0.0,0.0,0.0,0.0,0.0,0.0,0.0,0.0,0.0,0.0,-1.0372,-1.06,-1.0589,-1.0351,-0.8379,-0.6018,-0.3321,0.0677,0.3995,0.0,0.0,0.0,0.0,0.0,0.0,0.0,0.0,0.0,0.0,0.0,0.0,0.0,0.0,0.0,0.0,0.0,0.0,0.0,0.0,0.0,0.0,0.0,0.0,0.0,0.0,0.0,0.0,0.0,0.0,0.0,0.0,0.0,0.0,0.0,0.0,0.0,0.0,0.0,0.0,0.0,0.3733,0.4384,0.5073,0.0,0.0,0.0,0.0,0.6108,0.6641,0.0,0.0,0.0,0.0,0.0,0.0,0.0,0.0,0.0,0.0,0.0,0.0,0.0,0.0,0.0,0.0,0.0,0.0,0.0,0.0,0.0,0.0,0.0,0.0,0.0,0.0,0.0,0.0,0.0,0.0,0.0,0.0,0.0,0.0,0.0,0.0,0.0,0.0,0.0,0.0,0.0,0.0,0.0,0.0,0.0,0.0,0.0,0.0,0.0,0.0,0.0,0.0,0.0,0.0,0.0,0.0,-1.0133,-1.0462,-1.0469,-1.008,-0.8293,-0.6101,-0.3573,0.0647,0.3924,0.0,0.0,0.0,0.0,0.0,0.0,0.0,0.0,0.0,0.0,0.0,0.0,0.0,0.0,0.0,0.0,0.0,0.0,0.0,0.0,0.0,0.0,0.0,0.0,0.0,0.0,0.0,0.0,0.0,0.0,0.0,0.0,0.0,0.0,0.0,0.0,0.0,0.0,0.0,0.0,0.0,0.4333,0.4919,0.5589,0.6157,0.0,0.0,0.6308,0.7142,0.6809,0.0,0.0,0.0,0.0,0.0,0.0,0.0,0.0,0.0,0.0,0.0,0.0,0.0,0.0,0.0,0.0,0.0,0.0,0.0,0.0,0.0,0.0,0.0,0.0,0.0,0.0,0.0,0.0,0.0,0.0,0.0,0.0,0.0,0.0,0.0,0.0,0.0,0.0,0.0,0.0,0.0,0.0,0.0,0.0,0.0,0.0,0.0,0.0,0.0,0.0,0.0,0.0,0.0,0.0,0.0,-0.9657,-1.0783,-1.0611,-1.0594,-1.0691,-0.8507,-0.6053,-0.3433,0.0963,0.4222,0.0,0.0,0.0,0.0,0.0,0.0,0.0,0.0,0.0,0.0,0.0,0.0,0.0,0.0,0.0,0.0,0.0,0.0,0.0,0.0,0.0,0.0,0.0,0.0,0.0,0.0,0.0,0.0,0.0,0.0,0.0,0.0,0.0,0.0,0.0,0.0,0.0,0.0,0.0,0.0,0.0,0.0,0.4219,0.518,0.0,0.0,0.0,0.7446,0.7636,0.0,0.0,0.0,0.0,0.0,0.0,0.0,0.0,0.0,0.0,0.0,0.0,0.0,0.0,0.0,0.0,0.0,0.0,0.0,0.0,0.0,0.0,0.0,0.0,0.0,0.0,0.0,0.0,0.0,0.0,0.0,0.0,0.0,0.0,0.0,0.0,0.0,0.0,0.0,0.0,0.0,0.0,0.0,0.0,0.0,0.0,0.0,0.0,0.0,0.0,0.0,0.0,0.0,0.0,0.0,0.0,0.0,-1.1241,-1.0905,-1.0841,-1.1112,-0.8748,-0.6057,-0.3144,0.1084,0.0,0.0,0.0,0.0,0.0,0.0,0.0,0.0,0.0,0.0,0.0,0.0,0.0,0.0,0.0,0.0,0.0,0.0,0.0,0.0,0.0,0.0,0.0,0.0,0.0,0.0,0.0,0.0048,0.0,0.0,0.0,0.0,0.0,0.0,0.0,0.0,0.0,0.0,0.0,0.0,0.0,0.0,0.2941,0.3668,0.4932,0.5925,0.0,0.0,0.8416,0.7936,0.8739,0.937,0.0,0.0,0.0,0.0,0.0,0.0,0.0,0.0,0.0,0.0,0.0,0.0,0.0,0.0,0.0,0.0,0.0,0.0,0.0,0.0,0.0,0.0,0.0,0.0,0.0,0.0,0.0,0.0,0.0,0.0,0.0,0.0,0.0,0.0,0.0,0.0,0.0,0.0,0.0,0.0,0.0,0.0,0.0,0.0,0.0,0.0,0.0,0.0,0.0,0.0,0.0,0.0,0.0,0.0,0.0,-1.1004,-1.1292,-1.1249,-1.0902,-0.8913,-0.6229,-0.2905,0.0667,0.3956,0.0,0.0,0.0,0.0,0.0,0.0,0.0,0.0,0.0,0.0,0.0,0.0,0.0,0.0,0.0,0.0,0.0,0.0,0.0,0.0,0.0,0.0,0.0,0.0,0.0,0.0,0.0,0.0,0.0,0.0,0.0,0.0,0.0,0.0,0.0,0.0,0.0,0.0,0.0,0.0,0.0,0.3145,0.3885,0.5323,0.6472,0.0,0.0,0.8609,0.8066,0.8888,0.9486,0.9166,0.0,0.0,0.0,0.0,0.0,0.0,0.0,0.0,0.0,0.0,0.0,0.0,0.0,0.0,0.0,0.0,0.0,0.0,0.0,0.0,0.0,0.0,0.0,0.0,0.0,0.0,0.0,0.0,0.0,0.0,0.0,0.0,0.0,0.0,0.0,0.0,0.0,0.0,0.0,0.0,0.0,0.0,0.0,0.0,0.0,0.0,0.0,0.0,0.0,0.0,0.0,0.0,0.0,-1.034,-1.0991,-1.1341,-1.131,-1.0855,-0.8951,-0.6432,-0.3428,0.0278,0.3542,0.0,0.0,0.0,0.0,0.0,0.0,0.0,0.0,0.0,0.0,0.0,0.0,0.0,0.0,0.0,0.0,0.0,0.0,0.0,0.0,0.0,0.0,0.0,0.0,0.0,0.0,0.0,0.0,0.0887,0.1058,0.1462,0.0,0.0,0.0,0.0,0.0,0.0,0.0,0.0,0.0,0.0,0.2107,0.3814,0.4977,0.0,0.0,0.7744,0.8536,0.8493,0.9284,0.9866,0.9735,0.9278,0.0,0.0,0.0,0.0,0.0,0.0,0.0,0.0,0.0,0.0,0.0,0.0,0.0,0.0,0.0,0.0,0.0,0.0,0.0,0.0,0.0,0.0,0.0,0.0,0.0,0.0,0.0,0.0,0.0,0.0,0.0,0.0,0.0,0.0,0.0,0.0,0.0,0.0,0.0,0.0,0.0,0.0,0.0,0.0,0.0,0.0,0.0,0.0,0.0,0.0,0.0,0.0,-1.0557,-1.0997,-1.154,-1.152,-1.0913,-0.9173,-0.6939,-0.414,-0.0599,0.266,0.0,0.0,0.0,0.0,0.0,0.0,0.0,0.0,0.0,0.0,0.0,0.0,0.0,0.0,0.0,0.0,0.0,0.0,0.0,0.0,0.0,0.0,0.0,0.0,0.0,0.0,0.0,0.0,0.0797,0.0973,0.1173,0.0,0.0,0.0,0.0,0.0,0.0,0.0,0.0,0.0,0.0,-0.0,0.2739,0.3843,0.4992,0.6845,0.8026,0.8695,0.8681,0.976,1.034,0.9659,0.0,0.0,0.0,0.0,0.0,0.0,0.0,0.0,0.0,0.0,0.0,0.0,0.0,0.0,0.0,0.0,0.0,0.0,0.0,0.0,0.0,0.0,0.0,0.0,0.0,0.0,0.0,-0.7344,0.0,0.0,-0.7376,0.0,0.0,0.0,0.0,0.0,0.0,0.0,0.0,0.0,0.0,0.0,0.0,0.0,0.0,0.0,0.0,0.0,0.0,0.0,0.0,0.0,0.0,-1.1055,-1.1015,-1.2017,-1.2025,-1.0913,-0.9786,-0.7827,-0.5047,-0.2092,0.114,0.4736,0.0,0.0,0.0,0.0,0.0,0.0,0.0,0.0,0.0,0.0,0.0,0.0,0.0,0.0,0.0,0.0,0.0,0.0,0.0,0.0,0.0,0.0,0.0,0.0,0.0,0.0,0.01,0.0552,0.0898,0.0,0.0,0.0,0.0,0.0,0.0,0.0,0.0,0.0,0.0,-0.5248,-0.3336,0.0372,0.1696,0.3579,0.7722,0.8842,0.9039,0.8401,1.0106,1.0914,0.0,0.0,0.0,0.0,0.0,0.0,0.0,0.0,0.0,0.0,0.0,0.0,0.0,0.0,0.0,0.0,0.0,0.0,0.0,0.0,0.0,0.0,0.0,0.0,0.0,0.0,0.0,-0.8516,-0.7945,0.0,0.0,0.0,0.0,0.0,0.0,0.0,0.0,0.0,0.0,0.0,-1.031,-1.0049,0.0,0.0,0.0,0.0,0.0,0.0,0.0,0.0,0.0,0.0,0.0,0.0,-1.1248,-1.1052,-1.205,-1.2025,-1.0913,-1.0018,-0.8492,-0.6296,-0.3832,-0.0111,0.4957,0.0,0.0,0.0,0.0,0.0,0.0,0.0,0.0,0.0,0.0,0.0,0.0,0.0,0.0,0.0,0.0,0.0,0.0,0.0,0.0,0.0,0.0,0.0,0.0,0.0,-0.0167,0.0,0.0,0.0,0.0,0.0,0.0,0.0,0.0,0.0,0.0,0.0,-0.5924,-0.6128,-0.7832,-0.7709,-0.4067,-0.3823,-0.24,0.0,0.0,0.0,0.0,0.0,0.0,0.0,0.0,0.0,0.0,0.0,0.0,0.0,0.0,0.517,0.6215,0.6296,0.6106,0.5804,0.0,0.0,0.0,0.0,0.0,0.0,0.0,0.0,0.0,0.0,0.0,0.0,0.0,0.0,-1.0523,0.0,-1.0575,0.0,0.0,0.0,0.0,0.0,0.0,0.0,0.0,-1.1388,-1.1437,-1.1281,-1.0957,-1.0542,0.0,-1.0072,-0.9428,0.0,0.0,0.0,0.0,0.0,0.0,0.0,0.0,-1.126,-1.1313,-1.2063,-1.1936,-1.093,-1.0254,-0.9085,-0.7376,-0.4441,-0.0674,0.3971,0.6076,0.7676,0.0,0.0,0.0,0.0,0.0,0.0,0.0,0.0,0.0,0.0,0.0,0.0,0.0,0.0,0.0,0.0,0.0,0.0,0.0,0.0,0.0,0.0,0.0,-0.0356,0.0,0.0,0.0,0.0,0.0,0.0,0.0,0.0,0.0,-0.4921,-0.6503,-0.7807,-0.8188,-1.0105,-1.0672,-0.8533,0.0,0.0,0.0,0.0,0.0,0.0,0.0,0.3253,0.3111,0.3717,0.394,0.3198,0.2787,0.2651,0.2927,0.0,0.0,0.4966,0.5166,0.4968,0.4654,0.442,0.417,0.3803,0.3223,0.2661,0.0,0.0,0.0,0.0,0.0,0.0,0.0,0.0,-1.3276,-1.3313,0.0,-1.3161,0.0,0.0,0.0,0.0,0.0,-1.2151,0.0,0.0,-1.3468,-1.3544,-1.2511,-1.2842,-1.2418,-1.1288,-1.1436,-1.0856,-0.9507,-0.9262,0.0,0.0,0.0,0.0,0.0,0.0,-1.1178,-1.1796,-1.2136,-1.1857,-1.1027,-1.0577,-0.967,-0.8142,-0.4056,-0.0679,0.176,0.4918,0.6586,0.6478,0.7749,0.0,0.0,0.0,0.0,0.0,0.0,0.0,0.0,0.0,0.0,0.0,0.0,0.0,0.0,0.0,0.0,0.0,0.0,0.0,0.0,0.0473,0.0,0.0,0.0,0.0,0.0,0.0,0.0,0.0,0.0,0.0,-0.901,-0.8839,-0.9357,-1.1635,0.0,0.0,0.0,0.0,-0.5466,-0.2581,-0.0362,0.0846,0.0817,0.221,0.2763,0.1221,0.0,0.0,0.2891,0.2236,0.1779,0.1938,0.1519,0.1812,0.2949,0.34,0.3621,0.355,0.3486,0.3523,0.3407,0.2558,0.1785,-1.5792,0.0,0.0,0.0,0.0,-1.5351,-1.5644,-1.6399,-1.5158,-1.4486,-1.4247,-1.3671,0.0,0.0,0.0,0.0,0.0,0.0,-1.2941,-1.3171,-1.3451,-1.3433,-1.3175,-1.2919,-1.2437,-1.1784,-1.1666,-1.1402,-1.0968,-1.0688,-0.998,-0.8916,0.0,0.0,0.0,0.0,-1.2223,-1.2289,-1.3159,-1.3157,-1.2201,-1.1695,-1.0398,-0.8234,-0.5242,-0.2499,-0.0095,0.3427,0.5933,0.72,0.7822,0.0,0.0,0.0,0.0,0.0,0.0,0.0,0.0,0.0,0.0,0.0,0.0,0.0,0.0,0.0,0.0,0.0,0.0,0.0,-0.0398,-0.0502,-0.0743,0.0,0.0,0.0,0.0,0.0,0.0,0.0,0.0,0.0,-1.1455,-1.1104,-1.0991,0.0,0.0,-1.2808,-1.2285,-1.108,-0.9235,-0.6439,-0.5882,0.0,-0.3011,-0.2727,-0.2831,-0.312,-0.2811,-0.2565,-0.265,-0.2834,-0.2937,-0.2547,-0.2464,-0.2253,-0.1793,0.0406,0.2033,0.216,0.1707,0.1131,0.0612,-0.0386,-0.1269,-1.8323,-1.7126,-1.66,-1.6855,-1.7543,-1.6908,-1.7166,-1.7945,-1.6734,-1.6169,-1.6117,-1.5479,-1.4784,-1.413,-1.3916,0.0,0.0,0.0,-1.4517,-1.4971,-1.465,-1.4537,-1.4571,-1.4039,-1.3468,-1.2852,-1.2685,-1.2335,-1.1914,-1.1719,-1.1004,-0.9876,0.0,0.0,-1.1124,-1.2313,-1.2981,-1.3131,-1.3729,-1.3605,-1.2713,-1.1743,-1.0352,-0.8561,-0.6505,-0.4238,-0.1693,0.1621,0.4396,0.6513,0.7693,0.812,0.0,0.0,0.0,0.0,0.0,0.0,0.0,0.0,0.0,0.0,0.0,0.1106,0.0622,0.0,0.0,0.0,0.0012,-0.0337,-0.097,-0.11,0.0,0.0,0.0,0.0,0.0,0.0,0.0,-0.8443,-1.0105,-1.1561,-1.2621,-1.2736,-1.2713,-1.2705,-1.304,-1.2991,-1.2195,0.0,-1.0695,-0.8584,-0.821,-0.7522,-0.5569,-0.5468,-0.5588,-0.5451,-0.5627,-0.5705,-0.5475,-0.549,-0.5356,-0.4972,-0.4835,-0.4706,-0.4241,-0.2258,-0.0681,-0.0399,-0.0624,-0.1018,-0.1431,-0.2136,-0.2671,-2.0306,-2.0131,-1.8227,-1.7876,-1.8463,-1.8059,-1.8284,-1.8853,-1.8076,-1.814,-1.8722,-1.7948,-1.7215,-1.6545,-1.589,0.0,-1.563,-1.6291,-1.6739,-1.7068,-1.6551,-1.6281,-1.6212,-1.5711,-1.5038,-1.4142,-1.4148,-1.359,-1.2589,-1.2534,-1.2114,-1.1281,-1.1489,-1.1973,-1.2726,-1.3,-1.3512,-1.4236,-1.4023,-1.3551,-1.2824,-1.1226,-0.9951,-0.9101,-0.7773,-0.5797,-0.3145,-0.0379,0.2282,0.48,0.7186,0.8059,0.7179,0.0,0.0,0.0,0.0,0.0,0.0,0.0,0.0,0.0,0.0,0.0,0.0,0.0,0.0,0.0,-0.0598,0.0,-0.1316,-0.1639,0.0,0.0,0.0,-0.6887,-0.8214,-0.8978,-0.9766,-1.0646,0.0,0.0,-1.3097,-1.3803,-1.4192,-1.3849,-1.335,-1.2817,-1.225,-1.1352,-1.0357,-0.9201,-0.8271,-0.7476,-0.6781,-0.6436,-0.6263,-0.6238,-0.6266,-0.6256,-0.6256,-0.6202,-0.6044,-0.5661,-0.5943,-0.5807,-0.4668,-0.4304,-0.4207,-0.3384,-0.2944,-0.2639,-0.26,-0.2639,-0.2679,-2.0306,-2.026,-1.978,-1.9862,-2.0347,-2.0255,-2.0115,-1.9871,-1.9272,-1.8879,-1.867,-1.7978,-1.7567,-1.7409,-1.7234,-1.7159,-1.7166,-1.7317,-1.7232,-1.6943,-1.6802,-1.6362,-1.5701,-1.5553,-1.5232,-1.4721,-1.4708,-1.431,-1.366,-1.3673,-1.3332,-1.2679,-1.3103,-1.2967,-1.2387,-1.3047,-1.383,-1.4649,-1.4736,-1.4508,-1.3884,-1.2471,-1.1168,-1.0002,-0.8338,-0.6579,-0.4677,-0.1997,0.0602,0.3029,0.5364,0.7049,0.7945,0.7824,0.0,0.0,0.0,0.0,0.0,0.0,0.0,0.0,0.0,-0.0615,-0.0954,0.0,-0.2523,0.0,-0.2215,-0.2619,-0.2645,-0.3879,0.0,0.0,-0.9005,-1.0083,-0.9691,-1.008,-1.1027,-1.2744,-1.3135,-1.3604,-1.4521,-1.4023,-1.3433,-1.3097,-1.2683,-1.2248,-1.1837,-1.0614,-0.9636,-0.9169,-0.8384,-0.7635,-0.7074,-0.6854,-0.68,-0.681,-0.6807,-0.6817,-0.6817,-0.663,-0.6451,-0.635,-0.6262,-0.5921,-0.5219,-0.4827,-0.4507,-0.4248,-0.3462,-0.2679,-0.2679,-0.2684,-0.2681,-2.0027,-2.0035,-2.0027,-2.0158,-2.0421,-2.0413,-2.0269,-1.9997,-1.9653,-1.9379,-1.9121,-1.8755,-1.8597,-1.8583,-1.8597,-1.859,-1.8563,-1.8335,-1.8069,-1.7777,-1.7283,-1.6803,-1.6316,-1.6061,-1.5701,-1.5241,-1.499,-1.458,-1.4026,-1.3751,-1.3575,-1.3503,-1.3816,-1.3738,-1.3361,-1.3737,-1.4283,-1.4927,-1.5044,-1.4871,-1.4366,-1.3197,-1.1876,-1.0427,-0.9168,-0.762,-0.5819,-0.3431,-0.0871,0.1816,0.428,0.6298,0.7774,0.8239,0.7143,0.0,0.0,0.0,0.0,0.0,0.0,0.0,0.0,0.0,0.0,0.0,-0.4315,-0.4005,-0.4397,-0.4877,-0.5376,-0.6302,-0.7364,-0.8591,-1.0257,-1.1258,-1.1223,-1.1924,-1.2825,-1.3921,-1.3783,-1.37,-1.3958,-1.3279,-1.2531,-1.1952,-1.177,-1.17,-1.1629,-1.0436,-0.9165,-0.8326,-0.8021,-0.7697,-0.7105,-0.6975,-0.6975,-0.6975,-0.6975,-0.6975,-0.6972,-0.6894,-0.678,-0.6774,-0.665,-0.6298,-0.5606,-0.5142,-0.4796,-0.4475,-0.3683,-0.3066,-0.3231,-0.3035,-0.2783,-1.9697,-1.9697,-1.9697,-1.9697,-1.9697,-1.9697,-1.9697,-1.9697,-1.9697,-1.9697,-1.9697,-1.9697,-1.9697,-1.9682,-1.9654,-1.961,-1.9559,-1.9043,-1.8772,-1.865,-1.774,-1.7271,-1.7188,-1.671,-1.6222,-1.5664,-1.5157,-1.4582,-1.3941,-1.3467,-1.3474,-1.397,-1.4061,-1.4346,-1.4703,-1.4601,-1.4717,-1.5013,-1.5066,-1.4937,-1.4582,-1.3605,-1.2307,-1.0657,-0.9899,-0.861,-0.6635,-0.472,-0.2429,0.035,0.2766,0.4698,0.6062,0.7364,0.5984,0.0,0.0983,0.0,0.0,0.0,0.0,0.0,0.0,0.0,0.0,-0.5435,-0.6123,-0.6653,-0.6711,-0.716,-0.8217,-0.8495,-0.8819,-0.9348,-1.0521,-1.1692,-1.2703,-1.3765,-1.443,-1.4457,-1.4115,-1.3534,-1.2754,-1.2258,-1.1708,-1.1028,-1.0896,-1.1079,-1.1361,-1.0282,-0.8844,-0.7311,-0.7489,-0.7527,-0.7105,-0.6975,-0.6975,-0.6975,-0.6975,-0.6975,-0.6975,-0.6969,-0.6965,-0.6965,-0.6987,-0.6706,-0.5917,-0.5424,-0.5067,-0.4907,-0.4004,-0.3356,-0.3746,-0.3388,-0.2917,-1.9697,-1.9697,-1.9697,-1.9697,-1.9697,-1.9697,-1.9697,-1.9697,-1.9697,-1.9697,-1.9697,-1.9697,-1.9697,-1.9682,-1.9251,-1.9043,-1.9006,-1.8503,-1.802,-1.7585,-1.7388,-1.707,-1.668,-1.6565,-1.6188,-1.5626,-1.5495,-1.4906,-1.3874,-1.4249,-1.4263,-1.3953,-1.4464,-1.4782,-1.4866,0.0,0.0,0.0,-1.4937,-1.5066,-1.4961,-1.4058,-1.2757,-1.1052,-0.9752,0.0,-0.7042,-0.5913,-0.472,-0.3382,-0.2088,0.0,0.0,0.0,0.0,0.0,0.0,0.0,0.0,0.0,0.0,0.0,-0.9342,-0.8826,-0.87,-0.8664,-0.8673,-0.8718,-0.8271,-0.8075,-0.8359,-0.9526,-1.0396,-1.0817,-1.2356,-1.3547,-1.3868,-1.3909,-1.3996,-1.414,-1.3699,-1.3198,-1.2801,-1.2223,-1.1582,-1.0978,-1.0659,-1.05,-1.0582,-0.9632,-0.8622,-0.8005,-0.7516,-0.7147,-0.7017,-0.6975,-0.6975,-0.6975,-0.6975,-0.6975,-0.6975,-0.6975,-0.6975,-0.6975,-0.6975,-0.6797,-0.6193,-0.5676,-0.5381,-0.5817,-0.4588,-0.3584,-0.3912,-0.3415,-0.2912,-2.0198,0.0,-1.9832,-1.9697,0.0,-1.9697,-1.9697,-1.9682,-1.9406,-1.9325,-1.9325,-1.9603,-1.9559,-1.9288,-1.9006,-1.8727,-1.8503,-1.794,-1.7544,-1.7271,-1.7028,-1.6752,-1.6528,-1.6528,-1.6194,-1.5594,-1.532,-1.4692,-1.3852,-1.4135,-1.4289,-1.4334,-1.494,-1.5239,-1.5279,-1.5041,-1.492,-1.4892,-1.5032,-1.5006,-1.4807,-1.4321,-1.3127,-1.1169,-1.0207,0.0,0.0,0.0,0.0,0.0,0.0,0.0,0.0,0.0,0.0,-0.4142,-0.5871,-0.7391,-0.8569,-0.9244,-1.0032,-1.1099,-1.1609,-1.1354,-1.0114,-1.0184,-1.0342,-1.0474,-1.0569,-1.0716,-1.0819,-1.1386,-1.1718,-1.1732,-1.2736,-1.342,-1.3354,-1.3502,-1.3523,-1.3239,-1.2801,-1.2344,-1.2007,-1.1423,-1.096,-1.0682,-1.0428,-1.0322,-1.0201,-0.9359,-0.8464,-0.7716,-0.7266,-0.7017,-0.6975,-0.6975,-0.6975,-0.6975,-0.6975,-0.6975,-0.6975,-0.6975,-0.6975,-0.6975,-0.6975,-0.681,-0.631,-0.5698,-0.5392,-0.5526,-0.4622,-0.3798,-0.4057,-0.3555,-0.299,-2.0894,-2.0842,-2.0273,-1.9974,-1.9869,-1.9862,-1.9707,-1.9406,0.0,0.0,0.0,-1.9361,-1.9325,-1.8893,-1.8688,-1.8373,-1.794,-1.7388,-1.7153,-1.716,-1.6716,-1.6528,-1.6528,-1.6528,-1.6145,-1.5454,-1.492,-1.437,-1.3821,-1.3774,-1.4138,-1.4824,-1.5371,-1.569,-1.579,-1.5291,-1.522,-1.5572,-1.5286,-1.4983,-1.4685,-1.4556,-1.3409,-1.1138,-1.0786,-0.9788,-0.8099,-0.7423,-0.6338,-0.4705,-0.4368,-0.3663,-0.2456,-0.4277,-0.5698,-0.6447,-0.8969,-1.058,-1.0732,-1.1359,-1.1791,-1.1938,-1.2677,-1.2499,-1.0965,-1.1275,-1.1625,-1.1857,-1.2421,-1.2741,-1.2807,-1.2607,-1.2314,-1.1929,-1.2366,-1.2602,-1.238,-1.2793,-1.2906,-1.226,-1.1843,-1.1424,-1.096,-1.0572,-1.0322,-1.0322,-1.0322,-1.0235,-1.0044,-0.9319,-0.83,-0.7308,-0.7017,-0.6975,-0.6975,-0.6975,-0.6975,-0.6975,-0.6975,-0.6975,-0.6975,-0.6975,-0.6975,-0.6975,-0.6975,-0.6768,-0.631,-0.5701,-0.5351,-0.5308,-0.4403,-0.3741,-0.4158,-0.3699,-0.3125,-2.1552,-2.1545,-2.1455,-2.1089,-2.0572,-2.0565,-1.9702,-1.8419,-1.9214,-1.9339,-1.8885,-1.8975,-1.8968,-1.8848,-1.794,-1.7463,-1.7388,-1.6831,-1.6637,-1.6595,-1.6515,-1.6528,-1.6528,-1.6528,-1.592,-1.4886,-1.4749,-1.4381,-1.3862,-1.3774,-1.437,-1.5365,-1.5588,-1.5872,-1.6316,-1.585,-1.5983,-1.6783,-1.5806,-1.5301,-1.536,-1.4796,-1.3396,-1.1257,-1.1041,-1.0323,-0.8887,-0.8713,-0.8691,-0.8751,-0.8709,-0.8826,-0.9172,-0.9399,-0.9967,-1.0505,-1.1253,-1.1761,-1.2007,-1.2667,-1.2997,-1.2895,-1.2637,-1.2698,-1.3397,-1.3065,-1.2726,-1.2501,-1.1928,-1.131,-1.1064,-1.114,-1.1223,-1.1131,-1.1583,-1.1923,-1.187,-1.1939,-1.1852,-1.1292,-1.1159,-1.0938,-1.05,-1.0312,-1.0283,-1.0322,-1.0322,-1.0166,-0.9718,-0.9079,-0.8259,-0.7308,-0.6975,-0.6975,-0.6975,-0.6975,-0.6975,-0.6975,-0.6975,-0.6975,-0.6975,-0.6975,-0.6975,-0.6975,-0.6975,-0.681,-0.6307,-0.5698,-0.5348,-0.5216,-0.4316,-0.376,-0.4114,-0.3676,-0.3219,-2.2226,-2.2188,-2.1852,-2.1523,-2.1253,-2.1246,-2.0646,-1.9696,-2.0438,-1.9903,-1.8549,-1.8772,-1.8727,-1.8412,-1.7666,-1.7146,-1.6873,-1.6595,-1.6528,-1.6528,-1.6528,-1.6528,-1.6528,-1.6528,-1.5876,-1.4749,-1.4703,-1.4242,-1.342,-1.3967,-1.4549,-1.5147,-1.5732,-1.6232,-1.6454,-1.6264,-1.6652,-1.7573,-1.6461,-1.5854,-1.5917,-1.5332,-1.4111,-1.2292,-1.1498,-1.0646,-0.9734,-0.9248,-0.9111,-0.926,-0.9461,-0.9743,-1.0037,-1.0245,-1.0438,-1.0692,-1.1007,-1.1241,-1.1381,-1.2139,-1.2653,-1.2708,-1.2509,-1.2469,-1.276,-1.2753,-1.2504,-1.2027,-1.1865,-1.1575,-1.0916,-1.0894,-1.0845,-1.0594,-1.0834,-1.0986,-1.0992,-1.0997,-1.0878,-1.0649,-1.0375,-1.022,-1.0278,-1.004,-1.0005,-1.0244,-1.0327,-1.016,-0.9835,-0.9294,-0.856,-0.7654,-0.7234,-0.7017,-0.6975,-0.6975,-0.6975,-0.6975,-0.6975,-0.6975,-0.6975,-0.6975,-0.6975,-0.6975,-0.6975,-0.6768,-0.6264,-0.5698,-0.5262,-0.4783,-0.4186,-0.3756,-0.3784,-0.3582,-0.3312,-2.2877,-2.2832,-2.2345,-2.2046,-2.1897,-2.1754,-2.1399,-2.0988,-2.1458,-2.0509,-1.8737,-1.8959,-1.884,-1.8269,-1.7757,-1.72,-1.6766,-1.671,-1.6647,-1.6528,-1.6528,-1.6528,-1.6528,-1.6528,-1.5926,-1.5017,-1.488,-1.4422,-1.3695,-1.4335,-1.4795,-1.5011,-1.597,-1.6528,-1.6515,-1.6595,-1.7118,-1.7806,-1.7105,-1.6642,-1.6497,-1.5681,-1.4573,-1.3234,-1.1975,-1.1056,-1.0607,-0.9839,-0.9438,-0.9429,-0.9647,-0.9769,-0.9774,-0.9988,-1.0147,-1.0175,-1.0377,-1.058,-1.0707,-1.1242,-1.1733,-1.2058,-1.1961,-1.1836,-1.1635,-1.1891,-1.1856,-1.144,-1.1621,-1.1547,-1.0951,-1.0821,-1.0718,-1.0474,-1.0327,-1.0469,-1.0572,-1.0493,-1.043,-1.0385,-1.0014,-0.9916,-0.9958,-0.9753,-0.9776,-1.0247,-1.0366,-1.0332,-1.0175,-0.9549,-0.8775,-0.8205,-0.7517,-0.7098,-0.7005,-0.6975,-0.6975,-0.6975,-0.6975,-0.6975,-0.6975,-0.6975,-0.6975,-0.6975,-0.6975,-0.668,-0.6133,-0.5655,-0.5046,-0.4397,-0.384,-0.3621,-0.3607,-0.3575,-0.3353,-2.3505,-2.3505,-2.3408,-2.3093,-2.254,-2.1971,-2.1444,-2.1087,-2.1495,-2.0978,-1.9785,-1.9792,-1.9475,-1.887,-1.8362,-1.7785,-1.7319,-1.7294,-1.7024,-1.6572,-1.6528,-1.6528,-1.6528,-1.6528,-1.6139,-1.5537,-1.546,-1.5359,-1.5084,-1.488,-1.5017,-1.5549,-1.6188,-1.6528,-1.6565,-1.6951,-1.7271,-1.7388,-1.7758,-1.7709,-1.7149,-1.5548,-1.4208,-1.3208,-1.2525,-1.1972,-1.1454,-1.0991,-1.0728,-1.0698,-1.04,-1.0248,-1.0243,-1.0276,-1.0271,-1.0319,-1.0348,-1.0485,-1.0882,-1.0629,-1.0718,-1.1035,-1.0789,-1.0685,-1.0944,-1.102,-1.1047,-1.1011,-1.0705,-1.0569,-1.039,-1.0419,-1.0582,-1.0842,-1.0561,-1.0571,-1.1229,-1.1094,-1.0854,-1.0854,-1.0572,-1.0299,-0.9803,-0.9598,-0.9754,-1.0329,-1.0398,-1.0448,-1.0392,-0.9517,-0.8836,-0.8555,-0.7972,-0.7389,-0.7154,-0.6989,-0.7042,-0.7018,-0.6989,-0.7037,-0.7037,-0.6975,-0.6975,-0.6975,-0.6975,-0.6634,-0.5825,-0.5308,-0.4918,-0.4054,-0.3711,-0.358,-0.358,-0.3602,-0.3425,-2.3595,-2.3595,-2.3595,-2.346,-2.3183,-2.2921,-2.2683,-2.2542,-2.2733,-2.2113,-2.1056,-2.0971,-2.0236,-1.8957,-1.8414,-1.8078,-1.7852,-1.7532,-1.7262,-1.6999,-1.6685,-1.6528,-1.6528,-1.6528,-1.6014,-1.5186,-1.5416,-1.5231,-1.4721,-1.5005,-1.5555,-1.6095,-1.638,-1.6528,-1.6515,-1.671,-1.6993,-1.7305,-1.7188,-1.7193,-1.7157,-1.5879,-1.4631,-1.3568,-1.2688,-1.2168,-1.1954,-1.1523,-1.1294,-1.1284,-1.1165,-1.1087,-1.1077,-1.0791,-1.0771,-1.1042,-1.1077,-1.1155,-1.1352,-1.1155,-1.0877,-1.0528,-1.0456,-1.0334,-0.9904,-1.0363,-1.0718,-1.077,-1.0673,-1.0742,-1.0957,-1.0811,-1.083,-1.1219,-1.1175,-1.1229,-1.1533,-1.1459,-1.1294,-1.1261,-1.0587,-1.016,-1.0074,-0.9773,-0.9637,-0.9926,-0.9976,-1.0069,-1.0242,-0.9553,-0.9085,-0.8971,-0.8493,-0.7936,-0.7609,-0.7516,-0.7478,-0.7341,-0.7285,-0.7255,-0.7068,-0.6979,-0.6975,-0.6979,-0.6933,-0.6504,-0.5521,-0.5262,-0.4959,-0.4012,-0.358,-0.358,-0.358,-0.358,-0.3507,-2.3595,-2.3595,-2.3595,-2.3595,-2.3595,-2.3595,-2.3595,-2.3551,-2.3421,-2.2853,-2.2007,-2.1615,-2.0752,-1.9541,-1.892,-1.8574,-1.8392,-1.8016,-1.7746,-1.7564,-1.7018,-1.6754,-1.6748,-1.6393,-1.5788,-1.5147,-1.5371,-1.5219,-1.4687,-1.5365,-1.6101,-1.6429,-1.6528,-1.6528,-1.6515,-1.6631,-1.6831,-1.7028,-1.6788,-1.6788,-1.6695,-1.5841,-1.4869,-1.4018,-1.2973,-1.2412,-1.2397,-1.2097,-1.1906,-1.1797,-1.1675,-1.1601,-1.1587,-1.1297,-1.1178,-1.1441,-1.1543,-1.1582,-1.1609,-1.161,-1.1185,-1.0371,-1.0463,-1.028,-0.9726,-1.0062,-1.0626,-1.0944,-1.0974,-1.1171,-1.1455,-1.1274,-1.1294,-1.1709,-1.1699,-1.1675,-1.1944,-1.189,-1.1748,-1.1659,-1.0994,-1.0267,-1.0301,-1.0034,-0.9798,-0.9684,-0.9605,-0.968,-0.9921,-0.9512,-0.9127,-0.9227,-0.8781,-0.837,-0.8019,-0.7835,-0.7802,-0.7702,-0.7589,-0.7488,-0.7228,-0.7174,-0.6898,-0.6799,-0.6797,-0.6289,-0.5257,-0.4957,-0.4785,-0.3968,-0.358,-0.358,-0.358,-0.358,-0.358,-2.3595,-2.3595,-2.3595,-2.3595,-2.3595,-2.3595,-2.3595,-2.3516,-2.3009,-2.2701,-2.2406,-2.141,-2.0805,-2.0608,-1.9921,-1.9434,-1.8983,-1.8901,-1.8557,-1.8141,-1.7595,-1.7344,-1.73,-1.6219,-1.5656,-1.5564,-1.5721,-1.5907,-1.6244,-1.6386,-1.6472,-1.6485,-1.6528,-1.6528,-1.6558,-1.6957,-1.6993,-1.6631,-1.6951,-1.6756,-1.5796,-1.5101,-1.4738,-1.4509,-1.3489,-1.2817,-1.2846,-1.2869,-1.2634,-1.2202,-1.1836,-1.1645,-1.1631,-1.1611,-1.1499,-1.1276,-1.146,-1.1639,-1.1659,-1.1669,-1.1334,-1.0733,-1.0608,-1.0449,-0.993,-1.0075,-1.0574,-1.1603,-1.1246,-1.1269,-1.1479,-1.1533,-1.1724,-1.2104,-1.1831,-1.2057,-1.2738,-1.2388,-1.2185,-1.2153,-1.1773,-1.1068,-1.0058,-1.0176,-1.0045,-0.9814,-0.9735,-0.9739,-0.9618,-0.9211,-0.8905,-0.8852,-0.8766,-0.8587,-0.8083,-0.8066,-0.7978,-0.7916,-0.7879,-0.7802,-0.7639,-0.743,-0.701,-0.6575,-0.6359,-0.5839,-0.4884,-0.4349,-0.418,-0.3794,-0.3622,-0.358,-0.358,-0.358,-0.358,-2.3595,-2.3595,-2.3595,-2.3595,-2.3595,-2.3595,-2.3363,-2.3054,-2.3187,-2.2808,-2.2093,-2.1575,-2.1168,-2.0759,-2.0099,-1.9704,-1.9503,-1.9139,-1.8913,-1.8626,-1.8166,-1.7909,-1.7884,-1.7427,-1.6837,-1.626,-1.6532,-1.6628,-1.6504,-1.6528,-1.6528,-1.6528,-1.6528,-1.6528,-1.6558,-1.6674,-1.6674,-1.6515,-1.6716,-1.6588,-1.6145,-1.5203,-1.4703,-1.4663,-1.352,-1.2886,-1.2886,-1.2913,-1.2829,-1.2646,-1.2532,-1.2449,-1.2449,-1.2449,-1.22,-1.1806,-1.2129,-1.2425,-1.2407,-1.241,-1.204,-1.1279,-1.0878,-1.0209,-0.9437,-0.9561,-1.0144,-1.046,-1.0868,-1.0954,-1.1002,-1.1508,-1.2163,-1.2524,-1.2505,-1.2424,-1.2759,-1.2734,-1.2642,-1.256,-1.2167,-1.1262,-1.0293,-0.9906,-0.9792,-0.928,-0.9159,-0.9211,-0.9159,-0.891,-0.8808,-0.8808,-0.8804,-0.8741,-0.8571,-0.85,-0.846,-0.8293,-0.8183,-0.8049,-0.7899,-0.763,-0.7244,-0.6573,-0.618,-0.5532,-0.466,-0.4058,-0.3843,-0.3751,-0.3624,-0.358,-0.358,-0.358,-0.358,-2.3595,-2.3595,-2.3595,-2.3595,-2.3551,-2.337,-2.3061,-2.274,-2.2898,-2.2613,-2.2039,-2.1798,-2.1472,-2.1022,-2.0434,-2.001,-1.9767,-1.9434,-1.9277,-1.9227,-1.8719,-1.8474,-1.8388,-1.8076,-1.7494,-1.6834,-1.6938,-1.6958,-1.681,-1.6603,-1.6528,-1.6528,-1.6528,-1.6528,-1.6528,-1.6528,-1.6528,-1.6528,-1.6528,-1.6528,-1.6349,-1.5344,-1.4703,-1.452,-1.3515,-1.2886,-1.2886,-1.2886,-1.2886,-1.2886,-1.2886,-1.2886,-1.2886,-1.2886,-1.2691,-1.2396,-1.2642,-1.2886,-1.2886,-1.2886,-1.2613,-1.1994,-1.1216,-1.0202,-0.904,-0.9243,-0.9544,-0.9803,-1.0047,-1.0285,-1.0527,-1.1035,-1.1565,-1.1883,-1.2028,-1.2103,-1.2127,-1.2322,-1.2594,-1.2754,-1.2491,-1.1683,-1.072,-1.0513,-1.0056,-0.926,-0.9159,-0.9061,-0.8857,-0.8808,-0.8808,-0.8808,-0.8808,-0.8804,-0.8721,-0.8687,-0.8687,-0.855,-0.8474,-0.8333,-0.8085,-0.7807,-0.7317,-0.6625,-0.5916,-0.525,-0.46,-0.3937,-0.3718,-0.3624,-0.358,-0.358,-0.358,-0.358,-0.358,-2.3595,-2.3595,-2.3595,-2.3595,-2.3516,-2.3009,-2.274,-2.261,-2.2139,-2.2239,-2.2445,-2.1993,-2.1649,-2.152,-2.0874,-2.0359,-1.9888,-1.9729,-1.9717,-1.9673,-1.9252,-1.9032,-1.8952,-1.8112,-1.7599,-1.7358,-1.6793,-1.6849,-1.7363,-1.6886,-1.6609,-1.6572,-1.6553,-1.6528,-1.6528,-1.6528,-1.6528,-1.6528,-1.6528,-1.6528,-1.6349,-1.5338,-1.4703,-1.4566,-1.352,-1.2886,-1.2832,-1.2886,-1.2886,-1.2886,-1.2886,-1.2886,-1.2886,-1.2886,-1.2876,-1.2837,-1.2871,-1.2886,-1.2886,-1.2886,-1.2881,-1.2569,-1.1584,-1.0454,-0.9717,-0.9187,-0.9113,-0.9526,-0.9552,-0.9622,-1.0019,-0.9985,-1.001,-1.0018,-1.051,-1.062,-1.07,-1.131,-1.2084,-1.272,-1.2779,-1.2559,-1.1976,-1.1466,-1.0918,-0.9965,-0.9558,-0.9357,-0.8906,-0.8808,-0.8808,-0.8808,-0.8808,-0.8808,-0.8808,-0.8804,-0.8801,-0.8778,-0.8734,-0.8647,-0.8313,-0.7999,-0.7209,-0.6487,-0.5188,-0.4504,-0.4322,-0.3757,-0.3681,-0.358,-0.358,-0.3626,-0.358,-0.358,-0.358,-2.3595,-2.3595,-2.3595,-2.3595,-2.3508,-2.2972,-2.2709,-2.2709,-2.2452,-2.2505,-2.2551,-2.1993,-2.1697,-2.1417,-2.0627,-2.0003,-1.9798,-1.9798,-1.9798,-1.9767,-1.9623,-1.9535,-1.9453,-1.9163,-1.8858,-1.8413,-1.7894,-1.7741,-1.7793,-1.7388,-1.7112,-1.7055,-1.671,-1.654,-1.6528,-1.6528,-1.6528,-1.6528,-1.6528,-1.6528,-1.6386,-1.5338,-1.4703,-1.4571,-1.3525,-1.2666,-1.2232,-1.2613,-1.2886,-1.2886,-1.2886,-1.2886,-1.2886,-1.2886,-1.2886,-1.2886,-1.2886,-1.2886,-1.2886,-1.2886,-1.2886,-1.2676,-1.1588,-1.0568,-0.9862,-0.9159,-0.891,-0.9082,-0.8891,-0.8788,-0.8622,-0.8414,-0.886,-1.0396,-1.0271,-1.0072,-1.0273,-1.1135,-1.207,-1.2725,-1.2886,-1.2564,-1.1927,-1.1516,-1.0868,-1.002,-0.9514,-0.9054,-0.8857,-0.8808,-0.8808,-0.8808,-0.8808,-0.8794,-0.8801,-0.8778,-0.8751,-0.8784,-0.8801,-0.8801,-0.8498,-0.7853,-0.7114,-0.6091,-0.4827,-0.4087,-0.387,-0.3734,-0.3671,-0.3643,-0.3636,-0.3633,-0.3626,-0.358,-0.358,-2.3595,-2.3595,-2.3595,-2.3465,-2.3194,-2.2582,-2.2221,-2.2074,-2.226,-2.2214,-2.1981,-2.2053,-2.1765,-2.1293,-2.049,-2.0048,-1.985,-1.9798,-1.9798,-1.9798,-1.9798,-1.9798,-1.9798,-1.9798,-1.9654,-1.9277,-1.8763,-1.8518,-1.848,-1.7965,-1.7589,-1.7331,-1.7005,-1.6722,-1.6559,-1.6528,-1.6528,-1.6528,-1.6528,-1.6528,-1.6256,-1.5332,-1.4703,-1.4525,-1.3525,-1.2545,-1.1922,-1.2505,-1.2769,-1.2613,-1.2715,-1.2886,-1.2886,-1.2886,-1.2886,-1.2886,-1.2886,-1.2886,-1.2886,-1.2886,-1.2886,-1.2676,-1.1584,-1.0665,-1.0115,-0.9413,-0.8808,-0.8771,-0.8487,-0.8133,-0.7919,-0.7535,-0.8047,-0.9184,-0.9138,-0.9303,-0.9826,-1.0592,-1.1266,-1.1846,-1.225,-1.2187,-1.1823,-1.1512,-1.0918,-1.0269,-0.9618,-0.9008,-0.891,-0.8808,-0.8801,-0.8758,-0.8664,-0.8697,-0.8784,-0.8754,-0.8697,-0.8748,-0.8804,-0.8804,-0.8659,-0.7676,-0.6759,-0.5705,-0.4464,-0.4164,-0.3943,-0.3866,-0.3799,-0.3719,-0.3676,-0.3629,-0.3631,-0.3588,-0.358,-2.3595,-2.3595,-2.3595,-2.329,-2.2687,-2.206,-2.1534,-2.1071,-2.1438,-2.1431,-2.1272,-2.1941,-2.184,-2.0986,-2.0603,-2.0251,-1.9907,-1.9798,-1.9798,-1.9798,-1.9798,-1.9798,-1.9798,-1.9798,-1.9767,-1.966,-1.9271,-1.9027,-1.9026,-1.8518,-1.7997,-1.7626,-1.7419,-1.7118,-1.6722,-1.6578,-1.6528,-1.6528,-1.6528,-1.6528,-1.6429,-1.5338,-1.4703,-1.4652,-1.3568,-1.2554,-1.2026,-1.2398,-1.2505,-1.208,-1.2608,-1.2886,-1.2881,-1.2881,-1.2754,-1.2764,-1.2827,-1.2876,-1.2881,-1.2886,-1.2886,-1.2783,-1.1733,-1.0813,-1.0618,-0.9662,-0.8906,-0.8774,-0.8343,-0.7989,-0.7852,-0.7465,-0.7257,-0.712,-0.757,-0.8186,-0.9175,-0.9615,-1.0194,-1.0822,-1.1327,-1.1697,-1.1589,-1.1562,-1.1166,-1.0669,-0.9969,-0.9312,-0.8956,-0.8801,-0.8791,-0.8694,-0.8554,-0.8597,-0.8684,-0.8748,-0.8701,-0.8758,-0.8752,-0.8643,-0.8371,-0.7337,-0.631,-0.5201,-0.4526,-0.423,-0.4023,-0.399,-0.3888,-0.3782,-0.3727,-0.3707,-0.3671,-0.3632,-0.3581,-2.3595,-2.3595,-2.3595,-2.3238,-2.2642,-2.2,-2.1609,-2.1438,-2.1113,-2.1203,-2.139,-2.1307,-2.1175,-2.0746,-2.0258,-1.9959,-1.9856,-1.9798,-1.9798,-1.9798,-1.9798,-1.9798,-1.9798,-1.9798,-1.9798,-1.9767,-1.9635,-1.9597,-1.956,-1.9008,-1.8712,-1.852,-1.7796,-1.7356,-1.7124,-1.6748,-1.654,-1.6528,-1.6528,-1.6479,-1.63,-1.5338,-1.4703,-1.4612,-1.352,-1.2554,-1.1918,-1.1976,-1.2344,-1.2608,-1.2769,-1.2886,-1.2822,-1.2439,-1.2113,-1.2106,-1.2113,-1.2366,-1.2808,-1.2886,-1.2886,-1.2827,-1.2035,-1.1321,-1.0817,-1.0064,-0.9361,-0.8894,-0.8457,-0.8156,-0.7926,-0.7579,-0.7281,-0.7068,-0.7141,-0.7601,-0.8497,-0.8984,-0.9456,-1.0306,-1.0624,-1.0853,-1.0944,-1.0712,-1.036,-1.0064,-0.9562,-0.9061,-0.8857,-0.8794,-0.8778,-0.8587,-0.847,-0.8517,-0.8584,-0.8671,-0.8728,-0.8778,-0.8643,-0.8427,-0.7827,-0.6794,-0.5767,-0.471,-0.4461,-0.4234,-0.4115,-0.4094,-0.3977,-0.3882,-0.3843,-0.3826,-0.3741,-0.3683,-0.361,-2.3595,-2.3595,-2.3595,-2.3084,-2.23,-2.1859,-2.1417,-2.0953,-2.0881,-2.0776,-2.091,-2.0888,-2.0653,-2.0339,-1.9959,-1.9805,-1.9798,-1.9798,-1.9798,-1.9798,-1.9798,-1.9798,-1.9798,-1.9798,-1.9798,-1.9798,-1.9798,-1.9792,-1.9754,-1.9484,-1.9271,-1.8945,-1.8398,-1.7984,-1.7689,-1.7181,-1.6886,-1.6842,-1.6635,-1.6423,-1.6051,-1.5197,-1.4606,-1.4242,-1.3382,-1.2666,-1.229,-1.1976,-1.2064,-1.2537,-1.2769,-1.2774,-1.2452,-1.2047,-1.1675,-1.1462,-1.1377,-1.181,-1.2598,-1.2662,-1.2613,-1.2666,-1.2183,-1.1516,-1.0864,-1.0214,-0.951,-0.8873,-0.8534,-0.8313,-0.8106,-0.7769,-0.7391,-0.7114,-0.7161,-0.7486,-0.804,-0.8304,-0.8783,-0.9361,-0.9829,-1.0082,-1.0363,-1.0005,-0.9862,-0.9718,-0.9263,-0.8959,-0.8804,-0.8784,-0.8681,-0.8454,-0.8257,-0.8313,-0.8353,-0.8434,-0.8661,-0.8741,-0.8533,-0.8318,-0.7717,-0.6686,-0.5819,-0.5041,-0.459,-0.4314,-0.4248,-0.4195,-0.4146,-0.4066,-0.4004,-0.3919,-0.3838,-0.3736,-0.3663,-2.3595,-2.3595,-2.3595,-2.2839,-2.1838,-2.1697,-2.1044,-2.0093,-2.0396,-2.0352,-2.0099,-2.044,-2.0352,-1.9798,-1.9856,-1.9798,-1.9798,-1.9798,-1.9798,-1.9798,-1.9798,-1.9798,-1.9798,-1.9798,-1.9798,-1.9798,-1.9798,-1.9798,-1.9786,-1.9767,-1.9445,-1.9052,-1.8877,-1.864,-1.8068,-1.7566,-1.7394,-1.7212,-1.6766,-1.625,-1.5726,-1.5056,-1.4468,-1.3862,-1.3291,-1.2929,-1.2671,-1.233,-1.2101,-1.2292,-1.2676,-1.2535,-1.1985,-1.1814,-1.136,-1.0821,-1.074,-1.1263,-1.2318,-1.2089,-1.2183,-1.2613,-1.2295,-1.157,-1.0918,-1.0265,-0.9662,-0.8857,-0.8571,-0.844,-0.828,-0.7919,-0.7569,-0.7308,-0.7452,-0.7518,-0.7572,-0.7709,-0.7959,-0.8323,-0.894,-0.9298,-0.9592,-0.9714,-0.9666,-0.9413,-0.9061,-0.891,-0.8761,-0.8697,-0.8507,-0.8233,-0.813,-0.8073,-0.812,-0.8176,-0.8467,-0.8629,-0.8448,-0.8209,-0.7934,-0.7066,-0.6197,-0.5467,-0.4729,-0.4368,-0.4319,-0.4282,-0.4268,-0.4229,-0.4155,-0.4044,-0.3934,-0.3817,-0.3726,-2.3595,-2.3595,-2.3595,-2.2883,-2.1791,-2.1697,-2.0995,-1.985,-1.9952,-1.9952,-1.985,-1.9991,-1.9946,-1.9798,-1.9798,-1.9798,-1.9798,-1.9798,-1.9798,-1.9798,-1.9798,-1.9798,-1.9798,-1.9798,-1.9798,-1.9798,-1.9798,-1.9798,-1.9798,-1.9683,-1.9426,-1.8903,-1.8982,-1.866,-1.8054,-1.7718,-1.7382,-1.7287,-1.6842,-1.6231,-1.5594,-1.5011,-1.4376,-1.3774,-1.3195,-1.2934,-1.2881,-1.2725,-1.2672,-1.2735,-1.2759,-1.2501,-1.1841,-1.1285,-1.0726,-1.0178,-1.0045,-1.0399,-1.1116,-1.1625,-1.2129,-1.2666,-1.2618,-1.2147,-1.0914,-1.0665,-0.9965,-0.9103,-0.8741,-0.8594,-0.8377,-0.807,-0.7789,-0.7659,-0.7605,-0.7629,-0.7712,-0.7478,-0.7548,-0.7957,-0.8228,-0.8413,-0.8971,-0.9047,-0.9057,-0.9008,-0.8959,-0.8804,-0.8717,-0.8607,-0.833,-0.8036,-0.7978,-0.7996,-0.807,-0.8176,-0.8457,-0.8647,-0.8456,-0.7864,-0.765,-0.7173,-0.6197,-0.5384,-0.4675,-0.447,-0.4373,-0.4392,-0.438,-0.4339,-0.4294,-0.4143,-0.403,-0.3939,-0.379,-2.3595,-2.3551,-2.3282,-2.2613,-2.1751,-2.1383,-2.0726,-1.9946,-1.9798,-1.9798,-1.9798,-1.9798,-1.9798,-1.9798,-1.9798,-1.9798,-1.9798,-1.9798,-1.9798,-1.9798,-1.9798,-1.9798,-1.9798,-1.9798,-1.9798,-1.9741,-1.9417,-1.943,-1.965,-1.943,-1.9091,-1.8821,-1.9134,-1.8996,-1.8382,-1.8179,-1.8019,-1.7721,-1.7212,-1.6383,-1.5283,-1.488,-1.4201,-1.3557,-1.306,-1.2886,-1.2886,-1.2886,-1.2886,-1.2827,-1.2559,-1.2039,-1.1375,-1.0706,-1.0047,-0.9465,-0.9343,-0.9636,-1.0312,-1.0965,-1.162,-1.2344,-1.2666,-1.2053,-1.1225,-1.0813,-1.0159,-0.9155,-0.8778,-0.8687,-0.8424,-0.843,-0.8207,-0.7935,-0.7919,-0.7913,-0.7852,-0.7518,-0.7465,-0.7959,-0.8229,-0.8444,-0.8634,-0.8774,-0.8804,-0.8906,-0.8903,-0.8784,-0.8564,-0.8424,-0.8126,-0.7913,-0.7878,-0.7908,-0.8043,-0.822,-0.8507,-0.8634,-0.8625,-0.782,-0.7127,-0.6643,-0.6034,-0.5386,-0.4846,-0.4517,-0.4434,-0.4462,-0.4462,-0.4421,-0.437,-0.4267,-0.4169,-0.4044,-0.3894,-2.3595,-2.3551,-2.2972,-2.23,-2.1663,-2.1071,-2.044,-1.985,-1.9798,-1.9798,-1.9798,-1.9798,-1.9798,-1.9798,-1.9798,-1.9798,-1.9798,-1.9798,-1.9798,-1.9798,-1.9798,-1.9798,-1.9798,-1.9798,-1.9689,-1.9579,-1.9097,-1.9103,-1.9261,-1.8933,-1.8388,-1.8495,-1.9196,-1.8954,-1.8619,-1.8849,-1.8725,-1.8304,-1.743,-1.6417,-1.5114,-1.469,-1.3972,-1.3205,-1.2929,-1.2886,-1.2886,-1.2886,-1.2886,-1.2876,-1.2084,-1.1421,-1.0813,-1.0163,-0.9517,-0.8906,-0.9001,-0.9409,-0.9913,-1.0466,-1.112,-1.1665,-1.2147,-1.19,-1.0973,-1.0517,-0.9965,-0.9309,-0.8788,-0.8724,-0.8494,-0.8591,-0.85,-0.8257,-0.8287,-0.825,-0.8086,-0.7796,-0.7973,-0.8193,-0.832,-0.846,-0.8654,-0.8808,-0.8808,-0.8804,-0.8801,-0.8738,-0.8527,-0.8277,-0.8013,-0.7799,-0.7799,-0.8006,-0.812,-0.8357,-0.8634,-0.8624,-0.8657,-0.7933,-0.7001,-0.653,-0.6156,-0.5649,-0.5173,-0.4791,-0.4462,-0.4462,-0.4462,-0.4462,-0.4441,-0.439,-0.4275,-0.4134,-0.3994,-2.3595,-2.3551,-2.2972,-2.23,-2.1663,-2.1071,-2.0396,-1.985,-1.9798,-1.9798,-1.9798,-1.9798,-1.9798,-1.9798,-1.9798,-1.9798,-1.9798,-1.9798,-1.9798,-1.9798,-1.9798,-1.9798,-1.9798,-1.9798,-1.9475,-1.8992,-1.8667,-1.8715,-1.8661,-1.8172,-1.7578,-1.7302,-1.8334,-1.8549,-1.8313,-1.8515,-1.8977,-1.8498,-1.7482,-1.6327,-1.5345,-1.4407,-1.3721,-1.2998,-1.2886,-1.2886,-1.2886,-1.2886,-1.2886,-1.2783,-1.1642,-1.1015,-1.0665,-1.0115,-0.9514,-0.9162,-0.9323,-0.9636,-0.9969,-1.0431,-1.0767,-1.0965,-1.1225,-1.0927,-1.0269,-0.9969,-0.9666,-0.911,-0.8808,-0.8778,-0.8744,-0.8774,-0.8771,-0.8621,-0.849,-0.8464,-0.8514,-0.8394,-0.822,-0.841,-0.8444,-0.8477,-0.8674,-0.8808,-0.8808,-0.8808,-0.8804,-0.8751,-0.8604,-0.8317,-0.8013,-0.7822,-0.7672,-0.7953,-0.8227,-0.8514,-0.8754,-0.8599,-0.8524,-0.8313,-0.7441,-0.6772,-0.6256,-0.5451,-0.4984,-0.4625,-0.4462,-0.4462,-0.4462,-0.4462,-0.4512,-0.4506,-0.4334,-0.4206,-0.4063,-2.3595,-2.3516,-2.2575,-2.2,-2.1554,-2.067,-2.0099,-1.985,-1.9798,-1.9798,-1.9798,-1.9798,-1.9798,-1.9798,-1.9798,-1.9798,-1.9798,-1.9798,-1.9798,-1.9798,-1.9798,-1.9798,-1.9798,-1.9798,-1.9359,-1.8768,-1.8328,-1.8118,-1.807,-1.7418,-1.6872,-1.6984,-1.7955,-1.834,-1.8041,-1.8833,-1.8893,-1.8423,-1.7541,-1.6472,-1.53,-1.4169,-1.3421,-1.3066,-1.2886,-1.2886,-1.2886,-1.2886,-1.272,-1.2246,-1.1375,-1.0716,-1.0312,-0.9961,-0.9662,-0.942,-0.9661,-0.9966,-1.0265,-1.0656,-1.0816,-1.083,-1.0762,-1.0466,-1.0016,-0.9766,-0.9462,-0.9008,-0.8808,-0.8808,-0.8794,-0.8808,-0.8808,-0.8784,-0.8667,-0.8671,-0.8724,-0.8654,-0.8604,-0.8567,-0.8614,-0.8667,-0.8721,-0.8808,-0.8808,-0.8808,-0.8808,-0.8741,-0.8657,-0.8394,-0.8083,-0.7976,-0.7869,-0.8106,-0.8357,-0.8544,-0.8654,-0.8512,-0.8229,-0.8024,-0.7441,-0.6504,-0.5579,-0.4744,-0.4429,-0.4512,-0.4462,-0.4462,-0.4462,-0.4462,-0.446,-0.4496,-0.4433,-0.4275,-0.4121,-2.3595,-2.3508,-2.2218,-2.1697,-2.1506,-2.037,-1.9798,-1.9798,-1.9798,-1.9798,-1.9798,-1.9798,-1.9798,-1.9798,-1.9798,-1.9798,-1.9798,-1.9798,-1.9798,-1.9798,-1.9798,-1.9798,-1.9798,-1.9527,-1.9143,-1.8328,-1.7682,-1.7418,-1.7252,-1.6647,-1.643,-1.6759,-1.7841,-1.8334,-1.8203,-1.8873,-1.8718,-1.8325,-1.7525,-1.6573,-1.4966,-1.3991,-1.3311,-1.293,-1.2886,-1.2886,-1.2886,-1.2666,-1.2353,-1.1778,-1.1065,-1.0368,-0.9862,-0.9666,-0.9714,-0.9976,-1.0104,-1.0387,-1.0439,-1.0744,-1.0661,-1.0226,-1.0372,-1.0068,-0.9766,-0.9465,-0.9309,-0.8906,-0.8808,-0.8808,-0.8808,-0.8808,-0.8808,-0.8804,-0.8801,-0.8804,-0.8798,-0.8771,-0.8761,-0.8761,-0.8808,-0.8808,-0.8808,-0.8808,-0.8808,-0.8808,-0.8804,-0.8771,-0.8674,-0.849,-0.8257,-0.8176,-0.8173,-0.8357,-0.8497,-0.8517,-0.8487,-0.829,-0.7857,-0.7452,-0.6767,-0.5965,-0.5169,-0.4582,-0.4446,-0.4517,-0.4517,-0.4462,-0.4462,-0.4462,-0.4462,-0.4445,-0.4406,-0.4295,-0.4088,-2.3595,-2.3501,-2.2232,-2.1697,-2.1506,-2.037,-1.985,-1.9856,-1.985,-1.9798,-1.9895,-1.9798,-1.9798,-1.9798,-1.9798,-1.9798,-1.9798,-1.9798,-1.9798,-1.9798,-1.9798,-1.9798,-1.9689,-1.9091,-1.8549,-1.7846,-1.709,-1.6714,-1.6482,-1.5916,-1.5979,-1.659,-1.7357,-1.7961,-1.8495,-1.8768,-1.8738,-1.8319,-1.7005,-1.5421,-1.4115,-1.3679,-1.3364,-1.3076,-1.2969,-1.2969,-1.2925,-1.2532,-1.1977,-1.167,-1.0568,-0.9969,-0.9718,-0.9208,-0.9666,-1.0466,-1.1074,-1.1133,-1.0478,-1.0577,-1.0447,-0.9721,-0.9312,-0.9064,-0.9061,-0.9061,-0.8956,-0.8857,-0.8808,-0.8808,-0.8808,-0.8808,-0.8808,-0.8808,-0.8808,-0.8808,-0.8808,-0.8808,-0.8808,-0.8808,-0.8808,-0.8808,-0.8808,-0.8808,-0.8808,-0.8808,-0.8798,-0.8764,-0.8714,-0.8557,-0.8467,-0.8397,-0.8267,-0.8414,-0.8414,-0.8467,-0.8167,-0.7969,-0.7404,-0.6859,-0.6205,-0.5605,-0.5413,-0.4889,-0.4685,-0.4508,-0.4517,-0.4462,-0.4462,-0.4462,-0.4462,-0.4462,-0.4457,-0.4317,-0.4108,-2.3282,-2.3501,-2.2613,-2.2046,-2.1656,-2.1086,-2.0663,-2.0396,-2.0346,-2.0352,-2.0295,-1.9952,-1.9798,-1.9798,-1.9798,-1.9798,-1.9798,-1.9798,-1.9798,-1.9798,-1.9798,-1.9798,-1.9637,-1.9038,-1.8334,-1.7578,-1.6866,-1.6255,-1.5916,-1.569,-1.5811,-1.6482,-1.7246,-1.8015,-1.8555,-1.8667,-1.8447,-1.7767,-1.6493,-1.521,-1.4498,-1.4189,-1.4009,-1.3603,-1.3564,-1.3437,-1.3121,-1.2595,-1.1824,-1.1293,-1.0261,-0.961,-0.9409,-0.9309,-0.9714,-1.0115,-1.1208,-1.1625,-1.1606,-1.1057,-1.0446,-0.9869,-0.9312,-0.8857,-0.8808,-0.8808,-0.8808,-0.8808,-0.8808,-0.8808,-0.8808,-0.8808,-0.8808,-0.8808,-0.8808,-0.8808,-0.8808,-0.8808,-0.8808,-0.8808,-0.8808,-0.8808,-0.8808,-0.8808,-0.8808,-0.8808,-0.8808,-0.8791,-0.8778,-0.8724,-0.8667,-0.8644,-0.8487,-0.8387,-0.831,-0.8273,-0.7735,-0.7366,-0.6784,-0.6248,-0.5663,-0.5238,-0.4994,-0.4779,-0.4474,-0.4365,-0.4431,-0.4451,-0.4441,-0.445,-0.4462,-0.4462,-0.4451,-0.4339,-0.4118,-2.2965,-2.3282,-2.2536,-2.2007,-2.1697,-2.1575,-2.1203,-2.0802,-2.0809,-2.0802,-2.061,-2.0099,-1.9798,-1.9798,-1.9798,-1.9798,-1.9798,-1.9798,-1.9798,-1.9798,-1.9798,-1.9798,-1.9475,-1.8933,-1.8118,-1.7584,-1.6533,-1.5974,-1.5637,-1.5473,-1.5753,-1.6482,-1.7257,-1.7852,-1.8232,-1.8286,-1.7955,-1.689,-1.599,-1.5179,-1.4795,-1.4727,-1.4468,-1.4233,-1.4043,-1.3936,-1.3607,-1.288,-1.1972,-1.1147,-1.0249,-0.9514,-0.9061,-0.9155,-0.951,-0.9913,-1.0712,-1.1371,-1.1497,-1.1263,-1.0816,-1.0237,-0.9662,-0.8808,-0.8808,-0.8808,-0.8808,-0.8808,-0.8808,-0.8808,-0.8808,-0.8808,-0.8808,-0.8808,-0.8808,-0.8808,-0.8808,-0.8808,-0.8808,-0.8808,-0.8808,-0.8808,-0.8808,-0.8808,-0.8808,-0.8808,-0.8808,-0.8808,-0.8748,-0.8692,-0.8603,-0.8551,-0.8149,-0.8014,-0.8088,-0.7891,-0.7367,-0.6804,-0.6229,-0.5719,-0.5244,-0.4784,-0.4476,-0.4288,-0.4179,-0.4299,-0.4379,-0.4399,-0.4421,-0.4443,-0.4462,-0.4462,-0.4428,-0.4326,-0.4175,-2.2701,-2.2649,-2.1458,-2.1252,-2.1609,-2.1113,-2.0894,-2.0809,-2.0809,-2.0752,-2.061,-2.0156,-1.9798,-1.9798,-1.9798,-1.9798,-1.9798,-1.9798,-1.9798,-1.9798,-1.9798,-1.9798,-1.9371,-1.8608,-1.7682,-1.7346,-1.6358,-1.5637,-1.5405,-1.5415,-1.5869,-1.6482,-1.7029,-1.7468,-1.7688,-1.7688,-1.7018,-1.6135,-1.5468,-1.5229,-1.4961,-1.4819,-1.4639,-1.4326,-1.4126,-1.4053,-1.4014,-1.3173,-1.2193,-1.1377,-1.042,-0.9532,-0.9025,-0.8959,-0.926,-0.961,-0.9965,-1.0572,-1.0779,-1.088,-1.0474,-0.9869,-0.9263,-0.8808,-0.8808,-0.8808,-0.8808,-0.8808,-0.8808,-0.8808,-0.8808,-0.8808,-0.8808,-0.8808,-0.8808,-0.8808,-0.8808,-0.8808,-0.8808,-0.8808,-0.8752,-0.8643,-0.8643,-0.859,-0.8699,-0.8752,-0.8808,-0.8808,-0.8537,-0.8474,-0.8392,-0.8204,-0.7644,-0.7532,-0.7755,-0.7402,-0.6709,-0.6203,-0.5653,-0.5307,-0.4943,-0.4489,-0.4061,-0.4115,-0.4167,-0.4246,-0.4311,-0.4326,-0.4358,-0.4429,-0.4462,-0.4462,-0.4443,-0.4372,-0.4247,-2.1981,-2.2505,-2.0868,-2.0527,-2.1161,-2.1293,-2.1161,-2.0852,-2.0809,-2.0547,-2.0207,-1.9895,-1.9798,-1.9798,-1.9798,-1.9798,-1.9798,-1.9798,-1.9798,-1.9798,-1.9798,-1.9798,-1.9313,-1.8501,-1.7578,-1.7296,-1.6192,-1.5415,-1.5415,-1.5415,-1.5522,-1.5968,-1.658,-1.7196,-1.7363,-1.709,-1.6306,-1.5748,-1.5415,-1.5298,-1.5254,-1.5171,-1.5088,-1.4961,-1.4917,-1.4756,-1.445,-1.3728,-1.2684,-1.1626,-1.0725,-0.9822,-0.9003,-0.8828,-0.8956,-0.9256,-0.9514,-0.9865,-1.0064,-1.0159,-0.9862,-0.9361,-0.8959,-0.8808,-0.8808,-0.8808,-0.8808,-0.8808,-0.8808,-0.8808,-0.8808,-0.8808,-0.8808,-0.8808,-0.8808,-0.8808,-0.8808,-0.8808,-0.8808,-0.8808,-0.848,-0.8265,-0.8318,-0.8371,-0.8533,-0.8695,-0.8752,-0.8699,-0.8427,-0.8128,-0.7929,-0.7622,-0.7014,-0.6668,-0.6804,-0.6453,-0.6033,-0.5605,-0.5179,-0.4847,-0.4546,-0.4232,-0.3931,-0.4007,-0.4116,-0.4199,-0.4195,-0.4199,-0.4311,-0.4421,-0.446,-0.4462,-0.4434,-0.4404,-0.4356,-2.1422,-2.2139,-2.0527,-2.0194,-2.0845,-2.1252,-2.121,-2.0852,-2.0809,-2.0453,-1.9798,-1.9798,-1.9798,-1.9798,-1.9798,-1.9798,-1.9798,-1.9798,-1.9798,-1.9798,-1.9798,-1.9798,-1.9307,-1.8495,-1.7584,-1.7246,-1.6249,-1.5415,-1.5415,-1.5415,-1.5468,-1.5637,-1.5921,-1.6477,-1.6585,-1.6482,-1.5926,-1.5526,-1.5415,-1.5415,-1.5405,-1.5395,-1.5386,-1.5352,-1.5327,-1.5225,-1.4904,-1.4303,-1.3329,-1.2197,-1.1128,-1.0145,-0.9404,-0.8868,-0.8818,-0.8959,-0.9215,-0.9517,-0.9562,-0.9662,-0.9462,-0.9012,-0.8857,-0.8808,-0.8808,-0.8808,-0.8808,-0.8808,-0.8808,-0.8808,-0.8808,-0.8808,-0.8808,-0.8808,-0.8808,-0.8808,-0.8808,-0.8808,-0.8808,-0.8752,-0.8371,-0.794,-0.7993,-0.8099,-0.8371,-0.859,-0.8752,-0.859,-0.8156,-0.7732,-0.7284,-0.6843,-0.6315,-0.5973,-0.5728,-0.5636,-0.5577,-0.5212,-0.4781,-0.4433,-0.4123,-0.388,-0.3814,-0.391,-0.4024,-0.409,-0.4174,-0.4285,-0.4358,-0.4496,-0.4512,-0.4462,-0.4457,-0.4431,-0.4409,-2.1144,-2.1533,-2.0301,-2.0124,-2.0703,-2.0795,-2.0795,-2.0709,-2.0703,-2.0403,-1.985,-1.9798,-1.9798,-1.9798,-1.9798,-1.9798,-1.9798,-1.9798,-1.9798,-1.9798,-1.9637,-1.9741,-1.9261,-1.8507,-1.7584,-1.7241,-1.6358,-1.5584,-1.5415,-1.5415,-1.5415,-1.5415,-1.5584,-1.5637,-1.5517,-1.5468,-1.5415,-1.5415,-1.5415,-1.5415,-1.5415,-1.5415,-1.5415,-1.5415,-1.5415,-1.5337,-1.495,-1.492,-1.3902,-1.2575,-1.1838,-1.0802,-0.9549,-0.9015,-0.8861,-0.8804,-0.8857,-0.891,-0.8854,-0.9458,-0.9309,-0.891,-0.8808,-0.8808,-0.8808,-0.8808,-0.8808,-0.8808,-0.8808,-0.8808,-0.8808,-0.8808,-0.8808,-0.8808,-0.8808,-0.8808,-0.8808,-0.8808,-0.8808,-0.859,-0.8103,-0.7667,-0.7667,-0.7777,-0.8209,-0.848,-0.8699,-0.848,-0.794,-0.736,-0.686,-0.6219,-0.5657,-0.53,-0.5101,-0.5216,-0.5093,-0.4733,-0.4449,-0.4121,-0.3933,-0.3835,-0.3819,-0.3848,-0.3983,-0.4146,-0.4255,-0.4348,-0.4407,-0.4512,-0.4513,-0.4462,-0.4462,-0.4457,-0.4434,-2.013,-2.0992,-1.9797,-1.9586,-2.0131,-2.015,-2.0144,-2.015,-2.015,-2.0003,-1.9856,-1.9798,-1.9798,-1.9798,-1.9798,-1.9798,-1.9798,-1.9798,-1.9798,-1.9747,-1.9365,-1.9469,-1.915,-1.8447,-1.7639,-1.7357,-1.659,-1.5753,-1.5415,-1.5415,-1.5415,-1.5415,-1.5415,-1.5415,-1.5415,-1.5415,-1.5415,-1.5415,-1.5415,-1.5415,-1.5415,-1.5415,-1.5415,-1.5415,-1.5415,-1.5177,-1.481,-1.484,-1.4241,-1.2831,-1.2201,-1.1352,-1.0114,-0.9516,-0.8991,-0.8868,-0.8808,-0.8808,-0.8804,-0.9057,-0.9001,-0.8854,-0.8808,-0.8808,-0.8808,-0.8808,-0.8808,-0.8808,-0.8808,-0.8808,-0.8808,-0.8808,-0.8808,-0.8808,-0.8808,-0.8808,-0.8808,-0.8808,-0.8752,-0.8374,-0.7943,-0.7289,-0.7071,-0.7396,-0.783,-0.8371,-0.8646,-0.8265,-0.7777,-0.7103,-0.6513,-0.5679,-0.5048,-0.466,-0.4433,-0.4569,-0.4529,-0.4209,-0.3997,-0.3801,-0.3722,-0.3758,-0.3748,-0.3737,-0.3949,-0.4158,-0.425,-0.4339,-0.4418,-0.4462,-0.4462,-0.4462,-0.4462,-0.4462,-0.4455,-1.9635,-2.063,-1.9478,-1.9328,-1.9754,-1.9798,-1.9798,-1.985,-2.001,-2.0048,-1.9901,-2.0003,-2.0003,-1.9901,-1.9798,-1.9798,-1.9798,-1.9798,-1.9521,-1.9423,-1.8986,-1.9032,-1.8868,-1.8274,-1.7743,-1.7418,-1.6872,-1.6156,-1.5415,-1.5415,-1.5415,-1.5415,-1.5415,-1.5415,-1.5415,-1.5415,-1.5415,-1.5415,-1.5415,-1.5415,-1.5415,-1.5415,-1.5415,-1.5415,-1.5294,-1.505,-1.4628,-1.44,-1.4332,-1.3092,-1.2285,-1.1737,-1.0688,-0.9808,-0.917,-0.8901,-0.8808,-0.8808,-0.8804,-0.8804,-0.8854,-0.8804,-0.8808,-0.8808,-0.8808,-0.8808,-0.8808,-0.8808,-0.8808,-0.8808,-0.8808,-0.8808,-0.8808,-0.8808,-0.8808,-0.8808,-0.8808,-0.8808,-0.8752,-0.8374,-0.7833,-0.7182,-0.6586,-0.7017,-0.745,-0.8046,-0.8593,-0.8103,-0.756,-0.6945,-0.6147,-0.5273,-0.4658,-0.4324,-0.4063,-0.395,-0.3859,-0.3631,-0.358,-0.358,-0.3624,-0.37,-0.3663,-0.3685,-0.3956,-0.417,-0.4243,-0.4323,-0.4409,-0.4455,-0.4462,-0.4462,-0.4462,-0.4462,-0.4462,-1.9601,-2.0489,-1.9426,-1.924,-1.9717,-1.9825,-1.9901,-1.9901,-2.0497,-2.0453,-1.9895,-2.0503,-2.0352,-1.9901,-1.9798,-1.9798,-1.9741,-1.9741,-1.9411,-1.8868,-1.8495,-1.8655,-1.8543,-1.8004,-1.7578,-1.7307,-1.6872,-1.6156,-1.5473,-1.5415,-1.5415,-1.5357,-1.5235,-1.5294,-1.5298,-1.5113,-1.5177,-1.5294,-1.5415,-1.5415,-1.5415,-1.5415,-1.5415,-1.5415,-1.5352,-1.4923,-1.4433,-1.4031,-1.3682,-1.2839,-1.2011,-1.1445,-1.0712,-0.9848,-0.9285,-0.8901,-0.8811,-0.8808,-0.8808,-0.8808,-0.8808,-0.8808,-0.8808,-0.8808,-0.8808,-0.8808,-0.8808,-0.8808,-0.8808,-0.8808,-0.8808,-0.8808,-0.8808,-0.8808,-0.8808,-0.8808,-0.8808,-0.8808,-0.8808,-0.8427,-0.7833,-0.7238,-0.6532,-0.6694,-0.7182,-0.783,-0.8265,-0.7883,-0.7396,-0.6912,-0.6042,-0.4816,-0.4301,-0.4077,-0.3885,-0.3783,-0.3666,-0.3617,-0.3585,-0.3583,-0.3624,-0.3649,-0.3646,-0.3739,-0.4011,-0.4195,-0.4306,-0.4421,-0.4412,-0.4443,-0.446,-0.4462,-0.4462,-0.4462,-0.4462,-1.8783,-1.9307,-1.828,-1.8398,-1.9283,-2.0141,-2.0497,-2.0553,-2.0746,-2.0653,-2.056,-2.0709,-2.0446,-1.985,-1.9798,-1.9798,-1.9579,-1.9359,-1.9359,-1.8868,-1.7955,-1.8447,-1.8334,-1.7786,-1.7352,-1.7191,-1.6866,-1.6151,-1.5584,-1.5415,-1.5415,-1.5357,-1.4874,-1.4932,-1.4756,-1.4273,-1.4692,-1.5055,-1.5294,-1.5352,-1.5415,-1.5415,-1.5415,-1.5415,-1.5415,-1.4928,-1.425,-1.3335,-1.2929,-1.2805,-1.21,-1.1703,-1.2035,-1.0548,-0.9382,-0.8874,-0.8808,-0.8808,-0.8808,-0.8808,-0.8808,-0.8808,-0.8808,-0.8808,-0.8808,-0.8808,-0.8808,-0.8808,-0.8808,-0.8808,-0.8808,-0.8808,-0.8808,-0.8808,-0.8808,-0.8808,-0.8808,-0.8808,-0.8752,-0.8374,-0.778,-0.6907,-0.6258,-0.648,-0.702,-0.767,-0.7886,-0.7613,-0.7235,-0.6804,-0.5971,-0.4742,-0.4236,-0.4077,-0.4,-0.3907,-0.3761,-0.3649,-0.361,-0.358,-0.3595,-0.3615,-0.3634,-0.3751,-0.3953,-0.4185,-0.4457,-0.4476,-0.4373,-0.4438,-0.4462,-0.4462,-0.4462,-0.4462,-0.4405,-1.8625,-1.8768,-1.8042,-1.8356,-1.9439,-2.0168,-2.0801,-2.1424,-2.1554,-2.1321,-2.0858,-2.1071,-2.067,-1.9895,-1.9798,-1.9798,-1.9753,-1.9097,-1.8768,-1.8167,-1.7246,-1.7737,-1.7792,-1.7517,-1.7191,-1.7085,-1.681,-1.6093,-1.5584,-1.5352,-1.5352,-1.4869,-1.4332,-1.4332,-1.4094,-1.367,-1.3846,-1.4446,-1.4928,-1.5108,-1.5294,-1.5415,-1.5415,-1.5415,-1.5415,-1.4805,-1.3833,-1.2751,-1.2639,-1.2435,-1.1768,-1.1802,-1.2129,-1.1022,-1.0183,-0.9668,-0.9157,-0.8991,-0.8856,-0.8815,-0.8781,-0.8808,-0.8808,-0.8808,-0.8808,-0.8808,-0.8808,-0.8808,-0.8808,-0.8808,-0.8808,-0.8808,-0.8808,-0.8808,-0.8808,-0.8808,-0.8808,-0.8808,-0.8537,-0.8212,-0.745,-0.647,-0.6147,-0.6423,-0.6753,-0.7289,-0.767,-0.7777,-0.7289,-0.6699,-0.5828,-0.47,-0.4342,-0.4143,-0.4068,-0.3949,-0.3763,-0.3631,-0.3602,-0.358,-0.358,-0.3615,-0.3665,-0.3741,-0.3843,-0.4111,-0.4455,-0.4334,-0.4246,-0.4384,-0.4462,-0.4462,-0.4462,-0.4462,-0.4349,-1.8892,-1.8872,-1.8434,-1.8777,-1.9787,-2.0087,-2.1086,-2.2555,-2.2522,-2.2028,-2.1126,-2.1383,-2.0848,-1.9946,-1.9798,-1.9798,-1.9475,-1.8874,-1.8501,-1.7688,-1.6759,-1.7029,-1.7517,-1.6922,-1.6754,-1.6917,-1.6754,-1.5921,-1.5584,-1.5357,-1.5108,-1.4323,-1.4204,-1.4204,-1.3906,-1.3057,-1.3356,-1.4506,-1.4506,-1.4446,-1.5172,-1.5415,-1.5415,-1.5347,-1.5099,-1.4615,-1.3481,-1.2805,-1.2504,-1.1768,-1.1308,-1.1377,-1.1543,-1.1761,-1.1226,-1.0534,-0.9754,-0.9157,-0.8913,-0.8875,-0.8828,-0.8834,-0.8808,-0.8808,-0.8808,-0.8808,-0.8808,-0.8808,-0.8808,-0.8808,-0.8808,-0.8808,-0.8808,-0.8808,-0.8808,-0.8808,-0.8808,-0.859,-0.8099,-0.7667,-0.6848,-0.598,-0.5601,-0.5823,-0.6591,-0.6966,-0.7613,-0.7937,-0.7292,-0.6645,-0.5773,-0.4732,-0.4424,-0.4165,-0.4026,-0.3892,-0.3707,-0.3646,-0.3629,-0.362,-0.3649,-0.3678,-0.3707,-0.3858,-0.4024,-0.4158,-0.4336,-0.429,-0.4249,-0.4404,-0.4462,-0.4462,-0.4462,-0.4462,-0.4182,-1.8889,-1.8882,-1.8776,-1.8715,-1.8908,-2.0556,-2.1471,-2.1988,-2.2514,-2.2193,-2.1527,-2.1106,-2.0584,-1.9895,-1.9798,-1.9798,-1.9579,-1.8655,-1.8614,-1.795,-1.6912,-1.6805,-1.7616,-1.658,-1.6312,-1.6312,-1.6083,-1.5637,-1.5473,-1.5357,-1.5357,-1.4991,-1.4569,-1.4145,-1.408,-1.3109,-1.2988,-1.4255,-1.3841,-1.4025,-1.4991,-1.5298,-1.5415,-1.5094,-1.4782,-1.4241,-1.3197,-1.2054,-1.1839,-1.1502,-1.0982,-1.1059,-1.1468,-1.1916,-1.1741,-1.1012,-1.0126,-0.9445,-0.9113,-0.8994,-0.8931,-0.8851,-0.8808,-0.8808,-0.8808,-0.8808,-0.8808,-0.8808,-0.8808,-0.8808,-0.8808,-0.8808,-0.8808,-0.8808,-0.8808,-0.8808,-0.8752,-0.8262,-0.772,-0.7012,-0.6249,-0.5708,-0.5275,-0.555,-0.6317,-0.7184,-0.8099,-0.8315,-0.7292,-0.6537,-0.5773,-0.4929,-0.4428,-0.4175,-0.4024,-0.3849,-0.3673,-0.3643,-0.3626,-0.3637,-0.3721,-0.3827,-0.3929,-0.4097,-0.4256,-0.4312,-0.4319,-0.4297,-0.4333,-0.4428,-0.4462,-0.4462,-0.4462,-0.4462,-0.407,-1.9132,-1.886,-1.8665,-1.8741,-1.9183,-2.0393,-2.1183,-2.1678,-2.1813,-2.1643,-2.1328,-2.093,-2.0396,-1.985,-1.9798,-1.9798,-1.9527,-1.8274,-1.8388,-1.8167,-1.723,-1.6962,-1.6687,-1.6353,-1.6312,-1.6145,-1.5753,-1.5415,-1.5415,-1.5352,-1.5294,-1.4932,-1.4392,-1.408,-1.3952,-1.2561,-1.2439,-1.3588,-1.2875,-1.3364,-1.451,-1.4874,-1.505,-1.4791,-1.4364,-1.3819,-1.2834,-1.1697,-1.1421,-1.1575,-1.1476,-1.1862,-1.2225,-1.2537,-1.2297,-1.1483,-1.0558,-0.9674,-0.9479,-0.9217,-0.893,-0.8758,-0.8755,-0.8755,-0.8808,-0.8808,-0.8808,-0.8808,-0.8808,-0.8808,-0.8808,-0.8808,-0.8808,-0.8808,-0.8808,-0.8808,-0.859,-0.8209,-0.756,-0.6802,-0.6091,-0.538,-0.5164,-0.5273,-0.6039,-0.6753,-0.7777,-0.7993,-0.7077,-0.6369,-0.5664,-0.4961,-0.4464,-0.4128,-0.4033,-0.3848,-0.3651,-0.3602,-0.358,-0.3787,-0.3877,-0.4024,-0.4167,-0.4273,-0.4326,-0.4307,-0.4307,-0.4261,-0.4353,-0.4491,-0.4512,-0.4462,-0.4462,-0.4406,-0.3847,-1.9325,-1.8772,-1.8387,-1.8728,-1.9616,-1.9872,-2.0498,-2.1248,-2.092,-2.0704,-2.0682,-2.0539,-2.0218,-1.9991,-1.9798,-1.9798,-1.9365,-1.8172,-1.8226,-1.8161,-1.6456,-1.6738,-1.6687,-1.6244,-1.6088,-1.5921,-1.5637,-1.5468,-1.5415,-1.5352,-1.5108,-1.4451,-1.4085,-1.3653,-1.25,-1.2016,-1.2443,-1.25,-1.2324,-1.2393,-1.33,-1.4268,-1.4328,-1.4209,-1.3841,-1.317,-1.2254,-1.1586,-1.1226,-1.1534,-1.1969,-1.2492,-1.2716,-1.2853,-1.2478,-1.1742,-1.054,-1.0047,-0.9791,-0.912,-0.8728,-0.8503,-0.8599,-0.8646,-0.8646,-0.8752,-0.8752,-0.8808,-0.8808,-0.8808,-0.8808,-0.8808,-0.8808,-0.8808,-0.8808,-0.8808,-0.8484,-0.8103,-0.7292,-0.6591,-0.5878,-0.5164,-0.5056,-0.5218,-0.5764,-0.6477,-0.6807,-0.6807,-0.6642,-0.6147,-0.5548,-0.4931,-0.4396,-0.4163,-0.4036,-0.3863,-0.3666,-0.3598,-0.3655,-0.3878,-0.4081,-0.4172,-0.4289,-0.4368,-0.4453,-0.4367,-0.4358,-0.4368,-0.4412,-0.4503,-0.451,-0.4462,-0.4462,-0.4294,-0.3624,-1.9132,-1.8256,-1.8612,-1.8666,-1.8632,-1.9477,-2.0037,-2.0208,-2.0138,-2.0073,-1.995,-1.9592,-1.9422,-1.9792,-1.9798,-1.9798,-1.9534,-1.8286,-1.8661,-1.9032,-1.6682,-1.6738,-1.6738,-1.6083,-1.5637,-1.5526,-1.5526,-1.5473,-1.5415,-1.541,-1.5352,-1.5113,-1.5113,-1.4628,-1.3781,-1.3239,-1.2692,-1.2569,-1.2201,-1.2266,-1.27,-1.3308,-1.3308,-1.3061,-1.2569,-1.2201,-1.171,-1.1167,-1.0804,-1.1115,-1.2008,-1.272,-1.2926,-1.2872,-1.2457,-1.1772,-1.0591,-0.9876,-0.9405,-0.8771,-0.8287,-0.719,-0.7399,-0.8049,-0.8209,-0.8643,-0.8643,-0.8804,-0.8808,-0.8808,-0.8808,-0.8808,-0.8808,-0.8808,-0.8808,-0.8808,-0.8646,-0.7777,-0.691,-0.6315,-0.5662,-0.5115,-0.4679,-0.5003,-0.5485,-0.6034,-0.6367,-0.6418,-0.6197,-0.5814,-0.5435,-0.4917,-0.4295,-0.4113,-0.4043,-0.389,-0.3722,-0.3643,-0.3626,-0.3852,-0.4076,-0.43,-0.4465,-0.4399,-0.4488,-0.4433,-0.4429,-0.4412,-0.4431,-0.4512,-0.4513,-0.4462,-0.4462,-0.4237,-0.368]}]]